<?xml version="1.0" encoding="UTF-8" standalone="no" ?>
<gpx xmlns="http://www.topografix.com/GPX/1/1" creator="MapSource 6.15.7" version="1.1" xmlns:xsi="http://www.w3.org/2001/XMLSchema-instance" xsi:schemaLocation="http://www.topografix.com/GPX/1/1 http://www.topografix.com/GPX/1/1/gpx.xsd">

  <metadata>
    <link href="http://www.garmin.com">
      <text>Garmin International</text>
    </link>
    <time>2009-12-28T16:40:28Z</time>
    <bounds maxlat="45.5899980" maxlon="9.3468680" minlat="45.4828660" minlon="9.0922920"/>
  </metadata>

  <wpt lat="45.4983750" lon="9.1334410">
    <ele>131.0000000</ele>
    <time>2009-12-28T16:37:22Z</time>
    <name>ARRIVO</name>
    <cmt>Tessuto Urbano Discontinuo</cmt>
    <desc>Tessuto Urbano Discontinuo</desc>
    <sym>Diamond, Green</sym>
    <extensions>
      <gpxx:WaypointExtension xmlns:gpxx="http://www.garmin.com/xmlschemas/GpxExtensions/v3">
        <gpxx:DisplayMode>SymbolAndName</gpxx:DisplayMode>
      </gpxx:WaypointExtension>
    </extensions>
  </wpt>

  <wpt lat="45.5005500" lon="9.1307500">
    <ele>240.0000000</ele>
    <time>2009-12-28T16:25:58Z</time>
    <name>PARTENZA</name>
    <cmt>Città</cmt>
    <desc>Città</desc>
    <sym>Bike Trail</sym>
    <extensions>
      <gpxx:WaypointExtension xmlns:gpxx="http://www.garmin.com/xmlschemas/GpxExtensions/v3">
        <gpxx:DisplayMode>SymbolAndName</gpxx:DisplayMode>
      </gpxx:WaypointExtension>
    </extensions>
  </wpt>

  <trk>
    <name>2009-12-27T08_3</name>
    <extensions>
      <gpxx:TrackExtension xmlns:gpxx="http://www.garmin.com/xmlschemas/GpxExtensions/v3">
        <gpxx:DisplayColor>White</gpxx:DisplayColor>
      </gpxx:TrackExtension>
    </extensions>
    <trkseg>
      <trkpt lat="45.5005430" lon="9.1307550">
        <ele>136.4000000</ele>
        <time>2009-12-27T08:35:24Z</time>
      </trkpt>
      <trkpt lat="45.5008900" lon="9.1307660">
        <ele>138.8000000</ele>
        <time>2009-12-27T08:35:44Z</time>
      </trkpt>
      <trkpt lat="45.5012660" lon="9.1307880">
        <ele>138.4000000</ele>
        <time>2009-12-27T08:35:55Z</time>
      </trkpt>
      <trkpt lat="45.5016420" lon="9.1308230">
        <ele>138.6000000</ele>
        <time>2009-12-27T08:36:05Z</time>
      </trkpt>
      <trkpt lat="45.5020270" lon="9.1308430">
        <ele>140.8000000</ele>
        <time>2009-12-27T08:36:15Z</time>
      </trkpt>
      <trkpt lat="45.5024110" lon="9.1308690">
        <ele>142.6000000</ele>
        <time>2009-12-27T08:36:25Z</time>
      </trkpt>
      <trkpt lat="45.5027900" lon="9.1308720">
        <ele>141.0000000</ele>
        <time>2009-12-27T08:36:35Z</time>
      </trkpt>
      <trkpt lat="45.5031500" lon="9.1308800">
        <ele>140.4000000</ele>
        <time>2009-12-27T08:36:45Z</time>
      </trkpt>
      <trkpt lat="45.5035430" lon="9.1308990">
        <ele>136.8000000</ele>
        <time>2009-12-27T08:36:55Z</time>
      </trkpt>
      <trkpt lat="45.5039120" lon="9.1309250">
        <ele>136.4000000</ele>
        <time>2009-12-27T08:37:04Z</time>
      </trkpt>
      <trkpt lat="45.5042970" lon="9.1309540">
        <ele>135.6000000</ele>
        <time>2009-12-27T08:37:13Z</time>
      </trkpt>
      <trkpt lat="45.5046400" lon="9.1309750">
        <ele>136.6000000</ele>
        <time>2009-12-27T08:37:21Z</time>
      </trkpt>
      <trkpt lat="45.5046750" lon="9.1309840">
        <ele>136.0000000</ele>
        <time>2009-12-27T08:37:22Z</time>
      </trkpt>
      <trkpt lat="45.5047740" lon="9.1312570">
        <ele>137.6000000</ele>
        <time>2009-12-27T08:37:28Z</time>
      </trkpt>
      <trkpt lat="45.5047730" lon="9.1314560">
        <ele>137.4000000</ele>
        <time>2009-12-27T08:37:31Z</time>
      </trkpt>
      <trkpt lat="45.5047460" lon="9.1320340">
        <ele>139.0000000</ele>
        <time>2009-12-27T08:37:39Z</time>
      </trkpt>
      <trkpt lat="45.5047660" lon="9.1325910">
        <ele>141.4000000</ele>
        <time>2009-12-27T08:37:47Z</time>
      </trkpt>
      <trkpt lat="45.5047880" lon="9.1331430">
        <ele>143.8000000</ele>
        <time>2009-12-27T08:37:55Z</time>
      </trkpt>
      <trkpt lat="45.5048080" lon="9.1336730">
        <ele>143.8000000</ele>
        <time>2009-12-27T08:38:03Z</time>
      </trkpt>
      <trkpt lat="45.5048390" lon="9.1342130">
        <ele>144.0000000</ele>
        <time>2009-12-27T08:38:11Z</time>
      </trkpt>
      <trkpt lat="45.5048460" lon="9.1343420">
        <ele>144.2000000</ele>
        <time>2009-12-27T08:38:13Z</time>
      </trkpt>
      <trkpt lat="45.5048470" lon="9.1347330">
        <ele>142.4000000</ele>
        <time>2009-12-27T08:38:19Z</time>
      </trkpt>
      <trkpt lat="45.5048560" lon="9.1352790">
        <ele>141.6000000</ele>
        <time>2009-12-27T08:38:27Z</time>
      </trkpt>
      <trkpt lat="45.5049000" lon="9.1358390">
        <ele>143.8000000</ele>
        <time>2009-12-27T08:38:35Z</time>
      </trkpt>
      <trkpt lat="45.5049020" lon="9.1359090">
        <ele>144.0000000</ele>
        <time>2009-12-27T08:38:36Z</time>
      </trkpt>
      <trkpt lat="45.5049000" lon="9.1362590">
        <ele>144.8000000</ele>
        <time>2009-12-27T08:38:41Z</time>
      </trkpt>
      <trkpt lat="45.5049040" lon="9.1363940">
        <ele>145.0000000</ele>
        <time>2009-12-27T08:38:43Z</time>
      </trkpt>
      <trkpt lat="45.5049120" lon="9.1364610">
        <ele>145.4000000</ele>
        <time>2009-12-27T08:38:44Z</time>
      </trkpt>
      <trkpt lat="45.5050010" lon="9.1367590">
        <ele>144.6000000</ele>
        <time>2009-12-27T08:38:49Z</time>
      </trkpt>
      <trkpt lat="45.5050670" lon="9.1368400">
        <ele>145.4000000</ele>
        <time>2009-12-27T08:38:51Z</time>
      </trkpt>
      <trkpt lat="45.5052700" lon="9.1367140">
        <ele>148.4000000</ele>
        <time>2009-12-27T08:38:57Z</time>
      </trkpt>
      <trkpt lat="45.5053820" lon="9.1365740">
        <ele>150.0000000</ele>
        <time>2009-12-27T08:39:00Z</time>
      </trkpt>
      <trkpt lat="45.5057120" lon="9.1361690">
        <ele>151.6000000</ele>
        <time>2009-12-27T08:39:08Z</time>
      </trkpt>
      <trkpt lat="45.5058640" lon="9.1359970">
        <ele>150.0000000</ele>
        <time>2009-12-27T08:39:13Z</time>
      </trkpt>
      <trkpt lat="45.5059760" lon="9.1359190">
        <ele>147.8000000</ele>
        <time>2009-12-27T08:39:16Z</time>
      </trkpt>
      <trkpt lat="45.5060130" lon="9.1358770">
        <ele>147.2000000</ele>
        <time>2009-12-27T08:39:17Z</time>
      </trkpt>
      <trkpt lat="45.5060830" lon="9.1357850">
        <ele>145.6000000</ele>
        <time>2009-12-27T08:39:19Z</time>
      </trkpt>
      <trkpt lat="45.5061840" lon="9.1356770">
        <ele>145.0000000</ele>
        <time>2009-12-27T08:39:22Z</time>
      </trkpt>
      <trkpt lat="45.5062720" lon="9.1356050">
        <ele>141.0000000</ele>
        <time>2009-12-27T08:39:26Z</time>
      </trkpt>
      <trkpt lat="45.5063080" lon="9.1354290">
        <ele>139.2000000</ele>
        <time>2009-12-27T08:39:29Z</time>
      </trkpt>
      <trkpt lat="45.5064030" lon="9.1351070">
        <ele>134.8000000</ele>
        <time>2009-12-27T08:39:35Z</time>
      </trkpt>
      <trkpt lat="45.5063940" lon="9.1350840">
        <ele>133.6000000</ele>
        <time>2009-12-27T08:39:36Z</time>
      </trkpt>
      <trkpt lat="45.5063920" lon="9.1351860">
        <ele>132.0000000</ele>
        <time>2009-12-27T08:39:41Z</time>
      </trkpt>
      <trkpt lat="45.5063190" lon="9.1355030">
        <ele>137.2000000</ele>
        <time>2009-12-27T08:39:47Z</time>
      </trkpt>
      <trkpt lat="45.5062360" lon="9.1360280">
        <ele>136.4000000</ele>
        <time>2009-12-27T08:39:59Z</time>
      </trkpt>
      <trkpt lat="45.5061530" lon="9.1365520">
        <ele>135.4000000</ele>
        <time>2009-12-27T08:40:11Z</time>
      </trkpt>
      <trkpt lat="45.5066670" lon="9.1362000">
        <ele>135.8000000</ele>
        <time>2009-12-27T08:40:19Z</time>
      </trkpt>
      <trkpt lat="45.5068500" lon="9.1360480">
        <ele>143.4000000</ele>
        <time>2009-12-27T08:40:23Z</time>
      </trkpt>
      <trkpt lat="45.5068990" lon="9.1359520">
        <ele>141.6000000</ele>
        <time>2009-12-27T08:40:26Z</time>
      </trkpt>
      <trkpt lat="45.5069210" lon="9.1359120">
        <ele>134.2000000</ele>
        <time>2009-12-27T08:40:30Z</time>
      </trkpt>
      <trkpt lat="45.5069270" lon="9.1359470">
        <ele>131.6000000</ele>
        <time>2009-12-27T08:40:33Z</time>
      </trkpt>
      <trkpt lat="45.5069750" lon="9.1361890">
        <ele>131.2000000</ele>
        <time>2009-12-27T08:40:39Z</time>
      </trkpt>
      <trkpt lat="45.5070860" lon="9.1363000">
        <ele>136.8000000</ele>
        <time>2009-12-27T08:40:42Z</time>
      </trkpt>
      <trkpt lat="45.5072560" lon="9.1365730">
        <ele>141.6000000</ele>
        <time>2009-12-27T08:40:48Z</time>
      </trkpt>
      <trkpt lat="45.5073300" lon="9.1366800">
        <ele>141.6000000</ele>
        <time>2009-12-27T08:40:52Z</time>
      </trkpt>
      <trkpt lat="45.5076690" lon="9.1369760">
        <ele>146.0000000</ele>
        <time>2009-12-27T08:41:02Z</time>
      </trkpt>
      <trkpt lat="45.5078060" lon="9.1370990">
        <ele>146.0000000</ele>
        <time>2009-12-27T08:41:06Z</time>
      </trkpt>
      <trkpt lat="45.5079480" lon="9.1369150">
        <ele>140.6000000</ele>
        <time>2009-12-27T08:41:12Z</time>
      </trkpt>
      <trkpt lat="45.5079770" lon="9.1369080">
        <ele>139.4000000</ele>
        <time>2009-12-27T08:41:13Z</time>
      </trkpt>
      <trkpt lat="45.5082000" lon="9.1367740">
        <ele>136.8000000</ele>
        <time>2009-12-27T08:41:21Z</time>
      </trkpt>
      <trkpt lat="45.5082510" lon="9.1366640">
        <ele>137.8000000</ele>
        <time>2009-12-27T08:41:23Z</time>
      </trkpt>
      <trkpt lat="45.5083450" lon="9.1362900">
        <ele>138.4000000</ele>
        <time>2009-12-27T08:41:30Z</time>
      </trkpt>
      <trkpt lat="45.5083710" lon="9.1361730">
        <ele>139.2000000</ele>
        <time>2009-12-27T08:41:32Z</time>
      </trkpt>
      <trkpt lat="45.5084180" lon="9.1359850">
        <ele>140.2000000</ele>
        <time>2009-12-27T08:41:35Z</time>
      </trkpt>
      <trkpt lat="45.5084410" lon="9.1356530">
        <ele>141.4000000</ele>
        <time>2009-12-27T08:41:40Z</time>
      </trkpt>
      <trkpt lat="45.5084450" lon="9.1354540">
        <ele>142.4000000</ele>
        <time>2009-12-27T08:41:43Z</time>
      </trkpt>
      <trkpt lat="45.5084870" lon="9.1350790">
        <ele>141.6000000</ele>
        <time>2009-12-27T08:41:48Z</time>
      </trkpt>
      <trkpt lat="45.5085180" lon="9.1348930">
        <ele>142.4000000</ele>
        <time>2009-12-27T08:41:52Z</time>
      </trkpt>
      <trkpt lat="45.5085680" lon="9.1346090">
        <ele>143.4000000</ele>
        <time>2009-12-27T08:41:57Z</time>
      </trkpt>
      <trkpt lat="45.5086680" lon="9.1342230">
        <ele>141.6000000</ele>
        <time>2009-12-27T08:42:04Z</time>
      </trkpt>
      <trkpt lat="45.5086410" lon="9.1340620">
        <ele>146.0000000</ele>
        <time>2009-12-27T08:42:06Z</time>
      </trkpt>
      <trkpt lat="45.5087200" lon="9.1335350">
        <ele>143.6000000</ele>
        <time>2009-12-27T08:42:15Z</time>
      </trkpt>
      <trkpt lat="45.5087440" lon="9.1334140">
        <ele>142.8000000</ele>
        <time>2009-12-27T08:42:17Z</time>
      </trkpt>
      <trkpt lat="45.5088030" lon="9.1329800">
        <ele>139.4000000</ele>
        <time>2009-12-27T08:42:24Z</time>
      </trkpt>
      <trkpt lat="45.5088060" lon="9.1329240">
        <ele>138.2000000</ele>
        <time>2009-12-27T08:42:25Z</time>
      </trkpt>
      <trkpt lat="45.5088460" lon="9.1326850">
        <ele>136.8000000</ele>
        <time>2009-12-27T08:42:28Z</time>
      </trkpt>
      <trkpt lat="45.5089060" lon="9.1325550">
        <ele>138.0000000</ele>
        <time>2009-12-27T08:42:31Z</time>
      </trkpt>
      <trkpt lat="45.5089460" lon="9.1325010">
        <ele>139.0000000</ele>
        <time>2009-12-27T08:42:32Z</time>
      </trkpt>
      <trkpt lat="45.5090520" lon="9.1323190">
        <ele>140.2000000</ele>
        <time>2009-12-27T08:42:35Z</time>
      </trkpt>
      <trkpt lat="45.5092060" lon="9.1321330">
        <ele>140.4000000</ele>
        <time>2009-12-27T08:42:39Z</time>
      </trkpt>
      <trkpt lat="45.5093800" lon="9.1319200">
        <ele>141.2000000</ele>
        <time>2009-12-27T08:42:43Z</time>
      </trkpt>
      <trkpt lat="45.5094690" lon="9.1317110">
        <ele>141.4000000</ele>
        <time>2009-12-27T08:42:46Z</time>
      </trkpt>
      <trkpt lat="45.5095720" lon="9.1315130">
        <ele>140.2000000</ele>
        <time>2009-12-27T08:42:48Z</time>
      </trkpt>
      <trkpt lat="45.5096980" lon="9.1312580">
        <ele>139.6000000</ele>
        <time>2009-12-27T08:42:53Z</time>
      </trkpt>
      <trkpt lat="45.5097850" lon="9.1310550">
        <ele>142.0000000</ele>
        <time>2009-12-27T08:42:56Z</time>
      </trkpt>
      <trkpt lat="45.5098860" lon="9.1307750">
        <ele>149.0000000</ele>
        <time>2009-12-27T08:43:00Z</time>
      </trkpt>
      <trkpt lat="45.5100000" lon="9.1305430">
        <ele>154.6000000</ele>
        <time>2009-12-27T08:43:04Z</time>
      </trkpt>
      <trkpt lat="45.5101680" lon="9.1302640">
        <ele>160.8000000</ele>
        <time>2009-12-27T08:43:08Z</time>
      </trkpt>
      <trkpt lat="45.5102150" lon="9.1302020">
        <ele>159.4000000</ele>
        <time>2009-12-27T08:43:10Z</time>
      </trkpt>
      <trkpt lat="45.5104440" lon="9.1299730">
        <ele>154.6000000</ele>
        <time>2009-12-27T08:43:15Z</time>
      </trkpt>
      <trkpt lat="45.5106740" lon="9.1296490">
        <ele>146.6000000</ele>
        <time>2009-12-27T08:43:21Z</time>
      </trkpt>
      <trkpt lat="45.5107140" lon="9.1295870">
        <ele>146.2000000</ele>
        <time>2009-12-27T08:43:22Z</time>
      </trkpt>
      <trkpt lat="45.5109790" lon="9.1291690">
        <ele>146.2000000</ele>
        <time>2009-12-27T08:43:29Z</time>
      </trkpt>
      <trkpt lat="45.5112510" lon="9.1287830">
        <ele>147.4000000</ele>
        <time>2009-12-27T08:43:36Z</time>
      </trkpt>
      <trkpt lat="45.5112930" lon="9.1287430">
        <ele>147.6000000</ele>
        <time>2009-12-27T08:43:37Z</time>
      </trkpt>
      <trkpt lat="45.5115970" lon="9.1284920">
        <ele>145.4000000</ele>
        <time>2009-12-27T08:43:44Z</time>
      </trkpt>
      <trkpt lat="45.5116880" lon="9.1283260">
        <ele>145.0000000</ele>
        <time>2009-12-27T08:43:47Z</time>
      </trkpt>
      <trkpt lat="45.5118080" lon="9.1280740">
        <ele>144.8000000</ele>
        <time>2009-12-27T08:43:51Z</time>
      </trkpt>
      <trkpt lat="45.5118760" lon="9.1279430">
        <ele>145.2000000</ele>
        <time>2009-12-27T08:43:53Z</time>
      </trkpt>
      <trkpt lat="45.5119770" lon="9.1277770">
        <ele>144.4000000</ele>
        <time>2009-12-27T08:43:56Z</time>
      </trkpt>
      <trkpt lat="45.5120560" lon="9.1276840">
        <ele>144.0000000</ele>
        <time>2009-12-27T08:43:58Z</time>
      </trkpt>
      <trkpt lat="45.5123560" lon="9.1273860">
        <ele>149.8000000</ele>
        <time>2009-12-27T08:44:05Z</time>
      </trkpt>
      <trkpt lat="45.5124000" lon="9.1273610">
        <ele>152.6000000</ele>
        <time>2009-12-27T08:44:06Z</time>
      </trkpt>
      <trkpt lat="45.5126960" lon="9.1270750">
        <ele>153.6000000</ele>
        <time>2009-12-27T08:44:13Z</time>
      </trkpt>
      <trkpt lat="45.5129930" lon="9.1267620">
        <ele>150.8000000</ele>
        <time>2009-12-27T08:44:20Z</time>
      </trkpt>
      <trkpt lat="45.5132900" lon="9.1264580">
        <ele>152.0000000</ele>
        <time>2009-12-27T08:44:27Z</time>
      </trkpt>
      <trkpt lat="45.5135760" lon="9.1260900">
        <ele>152.8000000</ele>
        <time>2009-12-27T08:44:34Z</time>
      </trkpt>
      <trkpt lat="45.5138670" lon="9.1257610">
        <ele>155.2000000</ele>
        <time>2009-12-27T08:44:41Z</time>
      </trkpt>
      <trkpt lat="45.5141570" lon="9.1253150">
        <ele>152.6000000</ele>
        <time>2009-12-27T08:44:48Z</time>
      </trkpt>
      <trkpt lat="45.5143710" lon="9.1249050">
        <ele>151.8000000</ele>
        <time>2009-12-27T08:44:56Z</time>
      </trkpt>
      <trkpt lat="45.5145800" lon="9.1244840">
        <ele>151.8000000</ele>
        <time>2009-12-27T08:45:03Z</time>
      </trkpt>
      <trkpt lat="45.5147990" lon="9.1240670">
        <ele>151.6000000</ele>
        <time>2009-12-27T08:45:10Z</time>
      </trkpt>
      <trkpt lat="45.5150300" lon="9.1236010">
        <ele>151.6000000</ele>
        <time>2009-12-27T08:45:18Z</time>
      </trkpt>
      <trkpt lat="45.5152780" lon="9.1231390">
        <ele>150.4000000</ele>
        <time>2009-12-27T08:45:26Z</time>
      </trkpt>
      <trkpt lat="45.5155180" lon="9.1227290">
        <ele>149.8000000</ele>
        <time>2009-12-27T08:45:33Z</time>
      </trkpt>
      <trkpt lat="45.5157820" lon="9.1223470">
        <ele>152.4000000</ele>
        <time>2009-12-27T08:45:39Z</time>
      </trkpt>
      <trkpt lat="45.5160640" lon="9.1219570">
        <ele>153.4000000</ele>
        <time>2009-12-27T08:45:45Z</time>
      </trkpt>
      <trkpt lat="45.5163590" lon="9.1215500">
        <ele>152.4000000</ele>
        <time>2009-12-27T08:45:51Z</time>
      </trkpt>
      <trkpt lat="45.5166240" lon="9.1212050">
        <ele>148.6000000</ele>
        <time>2009-12-27T08:45:56Z</time>
      </trkpt>
      <trkpt lat="45.5169370" lon="9.1208190">
        <ele>145.6000000</ele>
        <time>2009-12-27T08:46:02Z</time>
      </trkpt>
      <trkpt lat="45.5172870" lon="9.1203630">
        <ele>146.2000000</ele>
        <time>2009-12-27T08:46:08Z</time>
      </trkpt>
      <trkpt lat="45.5175340" lon="9.1200630">
        <ele>145.8000000</ele>
        <time>2009-12-27T08:46:15Z</time>
      </trkpt>
      <trkpt lat="45.5178130" lon="9.1197140">
        <ele>146.6000000</ele>
        <time>2009-12-27T08:46:22Z</time>
      </trkpt>
      <trkpt lat="45.5181190" lon="9.1193480">
        <ele>148.6000000</ele>
        <time>2009-12-27T08:46:30Z</time>
      </trkpt>
      <trkpt lat="45.5184020" lon="9.1190220">
        <ele>147.6000000</ele>
        <time>2009-12-27T08:46:37Z</time>
      </trkpt>
      <trkpt lat="45.5187190" lon="9.1187220">
        <ele>145.2000000</ele>
        <time>2009-12-27T08:46:44Z</time>
      </trkpt>
      <trkpt lat="45.5190510" lon="9.1184570">
        <ele>143.4000000</ele>
        <time>2009-12-27T08:46:51Z</time>
      </trkpt>
      <trkpt lat="45.5194140" lon="9.1181770">
        <ele>142.4000000</ele>
        <time>2009-12-27T08:46:58Z</time>
      </trkpt>
      <trkpt lat="45.5197540" lon="9.1179230">
        <ele>142.6000000</ele>
        <time>2009-12-27T08:47:04Z</time>
      </trkpt>
      <trkpt lat="45.5200790" lon="9.1176540">
        <ele>143.6000000</ele>
        <time>2009-12-27T08:47:10Z</time>
      </trkpt>
      <trkpt lat="45.5204000" lon="9.1174030">
        <ele>142.8000000</ele>
        <time>2009-12-27T08:47:16Z</time>
      </trkpt>
      <trkpt lat="45.5207530" lon="9.1171030">
        <ele>147.4000000</ele>
        <time>2009-12-27T08:47:23Z</time>
      </trkpt>
      <trkpt lat="45.5210560" lon="9.1168090">
        <ele>156.6000000</ele>
        <time>2009-12-27T08:47:29Z</time>
      </trkpt>
      <trkpt lat="45.5214260" lon="9.1166280">
        <ele>157.0000000</ele>
        <time>2009-12-27T08:47:35Z</time>
      </trkpt>
      <trkpt lat="45.5217890" lon="9.1163730">
        <ele>156.0000000</ele>
        <time>2009-12-27T08:47:42Z</time>
      </trkpt>
      <trkpt lat="45.5221350" lon="9.1160990">
        <ele>152.4000000</ele>
        <time>2009-12-27T08:47:49Z</time>
      </trkpt>
      <trkpt lat="45.5224750" lon="9.1158350">
        <ele>152.8000000</ele>
        <time>2009-12-27T08:47:56Z</time>
      </trkpt>
      <trkpt lat="45.5228410" lon="9.1155450">
        <ele>152.4000000</ele>
        <time>2009-12-27T08:48:02Z</time>
      </trkpt>
      <trkpt lat="45.5231520" lon="9.1152980">
        <ele>156.4000000</ele>
        <time>2009-12-27T08:48:09Z</time>
      </trkpt>
      <trkpt lat="45.5234760" lon="9.1150570">
        <ele>156.4000000</ele>
        <time>2009-12-27T08:48:15Z</time>
      </trkpt>
      <trkpt lat="45.5238020" lon="9.1148150">
        <ele>153.2000000</ele>
        <time>2009-12-27T08:48:21Z</time>
      </trkpt>
      <trkpt lat="45.5241200" lon="9.1145590">
        <ele>150.2000000</ele>
        <time>2009-12-27T08:48:27Z</time>
      </trkpt>
      <trkpt lat="45.5244420" lon="9.1142970">
        <ele>147.6000000</ele>
        <time>2009-12-27T08:48:33Z</time>
      </trkpt>
      <trkpt lat="45.5247740" lon="9.1140320">
        <ele>144.6000000</ele>
        <time>2009-12-27T08:48:39Z</time>
      </trkpt>
      <trkpt lat="45.5251350" lon="9.1137470">
        <ele>144.0000000</ele>
        <time>2009-12-27T08:48:46Z</time>
      </trkpt>
      <trkpt lat="45.5254610" lon="9.1134870">
        <ele>144.4000000</ele>
        <time>2009-12-27T08:48:52Z</time>
      </trkpt>
      <trkpt lat="45.5258370" lon="9.1131640">
        <ele>145.6000000</ele>
        <time>2009-12-27T08:48:58Z</time>
      </trkpt>
      <trkpt lat="45.5261640" lon="9.1128960">
        <ele>146.0000000</ele>
        <time>2009-12-27T08:49:04Z</time>
      </trkpt>
      <trkpt lat="45.5265220" lon="9.1126290">
        <ele>144.8000000</ele>
        <time>2009-12-27T08:49:11Z</time>
      </trkpt>
      <trkpt lat="45.5268650" lon="9.1123840">
        <ele>142.4000000</ele>
        <time>2009-12-27T08:49:26Z</time>
      </trkpt>
      <trkpt lat="45.5271680" lon="9.1121380">
        <ele>143.4000000</ele>
        <time>2009-12-27T08:49:33Z</time>
      </trkpt>
      <trkpt lat="45.5275720" lon="9.1118380">
        <ele>149.2000000</ele>
        <time>2009-12-27T08:49:40Z</time>
      </trkpt>
      <trkpt lat="45.5279250" lon="9.1116200">
        <ele>159.4000000</ele>
        <time>2009-12-27T08:49:47Z</time>
      </trkpt>
      <trkpt lat="45.5282510" lon="9.1113440">
        <ele>158.8000000</ele>
        <time>2009-12-27T08:49:54Z</time>
      </trkpt>
      <trkpt lat="45.5285660" lon="9.1110640">
        <ele>153.8000000</ele>
        <time>2009-12-27T08:50:01Z</time>
      </trkpt>
      <trkpt lat="45.5289030" lon="9.1107990">
        <ele>148.2000000</ele>
        <time>2009-12-27T08:50:08Z</time>
      </trkpt>
      <trkpt lat="45.5291920" lon="9.1106150">
        <ele>145.4000000</ele>
        <time>2009-12-27T08:50:14Z</time>
      </trkpt>
      <trkpt lat="45.5292440" lon="9.1106020">
        <ele>145.2000000</ele>
        <time>2009-12-27T08:50:15Z</time>
      </trkpt>
      <trkpt lat="45.5294550" lon="9.1106290">
        <ele>144.4000000</ele>
        <time>2009-12-27T08:50:19Z</time>
      </trkpt>
      <trkpt lat="45.5296290" lon="9.1106610">
        <ele>144.4000000</ele>
        <time>2009-12-27T08:50:22Z</time>
      </trkpt>
      <trkpt lat="45.5299770" lon="9.1106070">
        <ele>143.6000000</ele>
        <time>2009-12-27T08:50:28Z</time>
      </trkpt>
      <trkpt lat="45.5300330" lon="9.1105780">
        <ele>143.4000000</ele>
        <time>2009-12-27T08:50:29Z</time>
      </trkpt>
      <trkpt lat="45.5301910" lon="9.1104600">
        <ele>142.6000000</ele>
        <time>2009-12-27T08:50:33Z</time>
      </trkpt>
      <trkpt lat="45.5302890" lon="9.1103570">
        <ele>142.6000000</ele>
        <time>2009-12-27T08:50:34Z</time>
      </trkpt>
      <trkpt lat="45.5303350" lon="9.1102980">
        <ele>142.8000000</ele>
        <time>2009-12-27T08:50:35Z</time>
      </trkpt>
      <trkpt lat="45.5304860" lon="9.1100190">
        <ele>143.0000000</ele>
        <time>2009-12-27T08:50:39Z</time>
      </trkpt>
      <trkpt lat="45.5305600" lon="9.1098520">
        <ele>144.2000000</ele>
        <time>2009-12-27T08:50:41Z</time>
      </trkpt>
      <trkpt lat="45.5307450" lon="9.1094650">
        <ele>145.4000000</ele>
        <time>2009-12-27T08:50:46Z</time>
      </trkpt>
      <trkpt lat="45.5307860" lon="9.1094000">
        <ele>145.2000000</ele>
        <time>2009-12-27T08:50:47Z</time>
      </trkpt>
      <trkpt lat="45.5310850" lon="9.1090940">
        <ele>144.4000000</ele>
        <time>2009-12-27T08:50:53Z</time>
      </trkpt>
      <trkpt lat="45.5314000" lon="9.1088360">
        <ele>144.0000000</ele>
        <time>2009-12-27T08:50:59Z</time>
      </trkpt>
      <trkpt lat="45.5317170" lon="9.1085910">
        <ele>145.0000000</ele>
        <time>2009-12-27T08:51:05Z</time>
      </trkpt>
      <trkpt lat="45.5320360" lon="9.1083510">
        <ele>146.0000000</ele>
        <time>2009-12-27T08:51:11Z</time>
      </trkpt>
      <trkpt lat="45.5323610" lon="9.1081050">
        <ele>146.8000000</ele>
        <time>2009-12-27T08:51:17Z</time>
      </trkpt>
      <trkpt lat="45.5326770" lon="9.1078550">
        <ele>148.4000000</ele>
        <time>2009-12-27T08:51:23Z</time>
      </trkpt>
      <trkpt lat="45.5329960" lon="9.1076060">
        <ele>149.2000000</ele>
        <time>2009-12-27T08:51:29Z</time>
      </trkpt>
      <trkpt lat="45.5333680" lon="9.1073260">
        <ele>149.2000000</ele>
        <time>2009-12-27T08:51:36Z</time>
      </trkpt>
      <trkpt lat="45.5335430" lon="9.1072410">
        <ele>149.2000000</ele>
        <time>2009-12-27T08:51:39Z</time>
      </trkpt>
      <trkpt lat="45.5337240" lon="9.1071900">
        <ele>148.4000000</ele>
        <time>2009-12-27T08:51:42Z</time>
      </trkpt>
      <trkpt lat="45.5339090" lon="9.1069580">
        <ele>146.8000000</ele>
        <time>2009-12-27T08:51:46Z</time>
      </trkpt>
      <trkpt lat="45.5339500" lon="9.1068860">
        <ele>146.6000000</ele>
        <time>2009-12-27T08:51:47Z</time>
      </trkpt>
      <trkpt lat="45.5339980" lon="9.1068230">
        <ele>146.4000000</ele>
        <time>2009-12-27T08:51:48Z</time>
      </trkpt>
      <trkpt lat="45.5343230" lon="9.1065510">
        <ele>146.4000000</ele>
        <time>2009-12-27T08:51:54Z</time>
      </trkpt>
      <trkpt lat="45.5346510" lon="9.1063060">
        <ele>147.6000000</ele>
        <time>2009-12-27T08:52:00Z</time>
      </trkpt>
      <trkpt lat="45.5349740" lon="9.1060480">
        <ele>148.6000000</ele>
        <time>2009-12-27T08:52:06Z</time>
      </trkpt>
      <trkpt lat="45.5352940" lon="9.1057890">
        <ele>147.8000000</ele>
        <time>2009-12-27T08:52:12Z</time>
      </trkpt>
      <trkpt lat="45.5356160" lon="9.1055380">
        <ele>147.4000000</ele>
        <time>2009-12-27T08:52:18Z</time>
      </trkpt>
      <trkpt lat="45.5359850" lon="9.1052580">
        <ele>147.2000000</ele>
        <time>2009-12-27T08:52:25Z</time>
      </trkpt>
      <trkpt lat="45.5363500" lon="9.1049670">
        <ele>147.6000000</ele>
        <time>2009-12-27T08:52:32Z</time>
      </trkpt>
      <trkpt lat="45.5366680" lon="9.1047150">
        <ele>149.6000000</ele>
        <time>2009-12-27T08:52:38Z</time>
      </trkpt>
      <trkpt lat="45.5369870" lon="9.1044570">
        <ele>149.4000000</ele>
        <time>2009-12-27T08:52:44Z</time>
      </trkpt>
      <trkpt lat="45.5373560" lon="9.1042240">
        <ele>152.4000000</ele>
        <time>2009-12-27T08:52:50Z</time>
      </trkpt>
      <trkpt lat="45.5376910" lon="9.1039290">
        <ele>152.4000000</ele>
        <time>2009-12-27T08:52:57Z</time>
      </trkpt>
      <trkpt lat="45.5380570" lon="9.1036440">
        <ele>151.4000000</ele>
        <time>2009-12-27T08:53:04Z</time>
      </trkpt>
      <trkpt lat="45.5383920" lon="9.1033730">
        <ele>149.2000000</ele>
        <time>2009-12-27T08:53:11Z</time>
      </trkpt>
      <trkpt lat="45.5387270" lon="9.1030970">
        <ele>147.2000000</ele>
        <time>2009-12-27T08:53:18Z</time>
      </trkpt>
      <trkpt lat="45.5390640" lon="9.1028130">
        <ele>145.2000000</ele>
        <time>2009-12-27T08:53:25Z</time>
      </trkpt>
      <trkpt lat="45.5394100" lon="9.1025550">
        <ele>146.4000000</ele>
        <time>2009-12-27T08:53:32Z</time>
      </trkpt>
      <trkpt lat="45.5397400" lon="9.1022810">
        <ele>148.2000000</ele>
        <time>2009-12-27T08:53:39Z</time>
      </trkpt>
      <trkpt lat="45.5400900" lon="9.1020270">
        <ele>148.8000000</ele>
        <time>2009-12-27T08:53:46Z</time>
      </trkpt>
      <trkpt lat="45.5404370" lon="9.1017580">
        <ele>153.8000000</ele>
        <time>2009-12-27T08:53:53Z</time>
      </trkpt>
      <trkpt lat="45.5407090" lon="9.1015580">
        <ele>158.2000000</ele>
        <time>2009-12-27T08:53:58Z</time>
      </trkpt>
      <trkpt lat="45.5407910" lon="9.1014730">
        <ele>159.6000000</ele>
        <time>2009-12-27T08:54:00Z</time>
      </trkpt>
      <trkpt lat="45.5411480" lon="9.1012350">
        <ele>161.4000000</ele>
        <time>2009-12-27T08:54:08Z</time>
      </trkpt>
      <trkpt lat="45.5412270" lon="9.1011820">
        <ele>162.8000000</ele>
        <time>2009-12-27T08:54:10Z</time>
      </trkpt>
      <trkpt lat="45.5412550" lon="9.1011650">
        <ele>162.0000000</ele>
        <time>2009-12-27T08:54:12Z</time>
      </trkpt>
      <trkpt lat="45.5412760" lon="9.1011630">
        <ele>160.6000000</ele>
        <time>2009-12-27T08:54:15Z</time>
      </trkpt>
      <trkpt lat="45.5412880" lon="9.1011470">
        <ele>160.2000000</ele>
        <time>2009-12-27T08:54:17Z</time>
      </trkpt>
      <trkpt lat="45.5413330" lon="9.1011140">
        <ele>159.8000000</ele>
        <time>2009-12-27T08:54:21Z</time>
      </trkpt>
      <trkpt lat="45.5414780" lon="9.1009610">
        <ele>159.2000000</ele>
        <time>2009-12-27T08:54:25Z</time>
      </trkpt>
      <trkpt lat="45.5417810" lon="9.1006430">
        <ele>159.2000000</ele>
        <time>2009-12-27T08:54:33Z</time>
      </trkpt>
      <trkpt lat="45.5421110" lon="9.1003130">
        <ele>160.8000000</ele>
        <time>2009-12-27T08:54:41Z</time>
      </trkpt>
      <trkpt lat="45.5424230" lon="9.1000130">
        <ele>161.6000000</ele>
        <time>2009-12-27T08:54:48Z</time>
      </trkpt>
      <trkpt lat="45.5427280" lon="9.0996900">
        <ele>162.8000000</ele>
        <time>2009-12-27T08:54:55Z</time>
      </trkpt>
      <trkpt lat="45.5430340" lon="9.0993490">
        <ele>158.8000000</ele>
        <time>2009-12-27T08:55:02Z</time>
      </trkpt>
      <trkpt lat="45.5433600" lon="9.0990210">
        <ele>155.6000000</ele>
        <time>2009-12-27T08:55:09Z</time>
      </trkpt>
      <trkpt lat="45.5436900" lon="9.0986850">
        <ele>154.0000000</ele>
        <time>2009-12-27T08:55:16Z</time>
      </trkpt>
      <trkpt lat="45.5440110" lon="9.0983570">
        <ele>153.0000000</ele>
        <time>2009-12-27T08:55:23Z</time>
      </trkpt>
      <trkpt lat="45.5443210" lon="9.0980300">
        <ele>152.2000000</ele>
        <time>2009-12-27T08:55:30Z</time>
      </trkpt>
      <trkpt lat="45.5446420" lon="9.0977040">
        <ele>151.2000000</ele>
        <time>2009-12-27T08:55:37Z</time>
      </trkpt>
      <trkpt lat="45.5449810" lon="9.0973730">
        <ele>152.4000000</ele>
        <time>2009-12-27T08:55:44Z</time>
      </trkpt>
      <trkpt lat="45.5453220" lon="9.0970500">
        <ele>154.0000000</ele>
        <time>2009-12-27T08:55:51Z</time>
      </trkpt>
      <trkpt lat="45.5456530" lon="9.0967260">
        <ele>154.4000000</ele>
        <time>2009-12-27T08:55:59Z</time>
      </trkpt>
      <trkpt lat="45.5459590" lon="9.0964010">
        <ele>154.0000000</ele>
        <time>2009-12-27T08:56:09Z</time>
      </trkpt>
      <trkpt lat="45.5462880" lon="9.0960870">
        <ele>153.8000000</ele>
        <time>2009-12-27T08:56:17Z</time>
      </trkpt>
      <trkpt lat="45.5465950" lon="9.0957550">
        <ele>154.4000000</ele>
        <time>2009-12-27T08:56:24Z</time>
      </trkpt>
      <trkpt lat="45.5468920" lon="9.0954490">
        <ele>154.8000000</ele>
        <time>2009-12-27T08:56:31Z</time>
      </trkpt>
      <trkpt lat="45.5470790" lon="9.0952830">
        <ele>155.2000000</ele>
        <time>2009-12-27T08:56:37Z</time>
      </trkpt>
      <trkpt lat="45.5472330" lon="9.0953830">
        <ele>156.2000000</ele>
        <time>2009-12-27T08:56:43Z</time>
      </trkpt>
      <trkpt lat="45.5476320" lon="9.0954320">
        <ele>156.2000000</ele>
        <time>2009-12-27T08:56:52Z</time>
      </trkpt>
      <trkpt lat="45.5480280" lon="9.0954410">
        <ele>157.6000000</ele>
        <time>2009-12-27T08:57:01Z</time>
      </trkpt>
      <trkpt lat="45.5484140" lon="9.0954570">
        <ele>159.2000000</ele>
        <time>2009-12-27T08:57:10Z</time>
      </trkpt>
      <trkpt lat="45.5487780" lon="9.0954790">
        <ele>159.2000000</ele>
        <time>2009-12-27T08:57:18Z</time>
      </trkpt>
      <trkpt lat="45.5488240" lon="9.0954820">
        <ele>159.0000000</ele>
        <time>2009-12-27T08:57:19Z</time>
      </trkpt>
      <trkpt lat="45.5491600" lon="9.0954940">
        <ele>158.4000000</ele>
        <time>2009-12-27T08:57:26Z</time>
      </trkpt>
      <trkpt lat="45.5495620" lon="9.0955020">
        <ele>157.6000000</ele>
        <time>2009-12-27T08:57:35Z</time>
      </trkpt>
      <trkpt lat="45.5499440" lon="9.0955200">
        <ele>158.8000000</ele>
        <time>2009-12-27T08:57:43Z</time>
      </trkpt>
      <trkpt lat="45.5503380" lon="9.0955340">
        <ele>161.0000000</ele>
        <time>2009-12-27T08:57:52Z</time>
      </trkpt>
      <trkpt lat="45.5507210" lon="9.0955500">
        <ele>164.2000000</ele>
        <time>2009-12-27T08:58:01Z</time>
      </trkpt>
      <trkpt lat="45.5511190" lon="9.0955630">
        <ele>164.8000000</ele>
        <time>2009-12-27T08:58:09Z</time>
      </trkpt>
      <trkpt lat="45.5515160" lon="9.0955840">
        <ele>165.6000000</ele>
        <time>2009-12-27T08:58:17Z</time>
      </trkpt>
      <trkpt lat="45.5518830" lon="9.0955960">
        <ele>164.2000000</ele>
        <time>2009-12-27T08:58:24Z</time>
      </trkpt>
      <trkpt lat="45.5519760" lon="9.0956070">
        <ele>165.0000000</ele>
        <time>2009-12-27T08:58:26Z</time>
      </trkpt>
      <trkpt lat="45.5521800" lon="9.0956200">
        <ele>165.4000000</ele>
        <time>2009-12-27T08:58:30Z</time>
      </trkpt>
      <trkpt lat="45.5522910" lon="9.0956210">
        <ele>166.0000000</ele>
        <time>2009-12-27T08:58:32Z</time>
      </trkpt>
      <trkpt lat="45.5526670" lon="9.0956090">
        <ele>165.8000000</ele>
        <time>2009-12-27T08:58:39Z</time>
      </trkpt>
      <trkpt lat="45.5530720" lon="9.0955730">
        <ele>163.8000000</ele>
        <time>2009-12-27T08:58:47Z</time>
      </trkpt>
      <trkpt lat="45.5534370" lon="9.0955490">
        <ele>163.2000000</ele>
        <time>2009-12-27T08:58:54Z</time>
      </trkpt>
      <trkpt lat="45.5538110" lon="9.0955160">
        <ele>163.0000000</ele>
        <time>2009-12-27T08:59:01Z</time>
      </trkpt>
      <trkpt lat="45.5542220" lon="9.0954750">
        <ele>162.8000000</ele>
        <time>2009-12-27T08:59:09Z</time>
      </trkpt>
      <trkpt lat="45.5546090" lon="9.0954320">
        <ele>161.0000000</ele>
        <time>2009-12-27T08:59:16Z</time>
      </trkpt>
      <trkpt lat="45.5550110" lon="9.0954080">
        <ele>159.8000000</ele>
        <time>2009-12-27T08:59:24Z</time>
      </trkpt>
      <trkpt lat="45.5554160" lon="9.0953750">
        <ele>160.0000000</ele>
        <time>2009-12-27T08:59:32Z</time>
      </trkpt>
      <trkpt lat="45.5555540" lon="9.0953470">
        <ele>159.4000000</ele>
        <time>2009-12-27T08:59:35Z</time>
      </trkpt>
      <trkpt lat="45.5557480" lon="9.0951370">
        <ele>161.0000000</ele>
        <time>2009-12-27T08:59:43Z</time>
      </trkpt>
      <trkpt lat="45.5558190" lon="9.0951370">
        <ele>160.4000000</ele>
        <time>2009-12-27T08:59:46Z</time>
      </trkpt>
      <trkpt lat="45.5561140" lon="9.0952090">
        <ele>161.0000000</ele>
        <time>2009-12-27T08:59:54Z</time>
      </trkpt>
      <trkpt lat="45.5564910" lon="9.0952500">
        <ele>162.0000000</ele>
        <time>2009-12-27T09:00:05Z</time>
      </trkpt>
      <trkpt lat="45.5568720" lon="9.0952220">
        <ele>164.6000000</ele>
        <time>2009-12-27T09:00:15Z</time>
      </trkpt>
      <trkpt lat="45.5570430" lon="9.0952490">
        <ele>164.8000000</ele>
        <time>2009-12-27T09:00:20Z</time>
      </trkpt>
      <trkpt lat="45.5570830" lon="9.0954200">
        <ele>165.0000000</ele>
        <time>2009-12-27T09:00:24Z</time>
      </trkpt>
      <trkpt lat="45.5570970" lon="9.0955090">
        <ele>165.2000000</ele>
        <time>2009-12-27T09:00:26Z</time>
      </trkpt>
      <trkpt lat="45.5571810" lon="9.0956510">
        <ele>165.4000000</ele>
        <time>2009-12-27T09:00:30Z</time>
      </trkpt>
      <trkpt lat="45.5574200" lon="9.0956120">
        <ele>164.4000000</ele>
        <time>2009-12-27T09:00:37Z</time>
      </trkpt>
      <trkpt lat="45.5577990" lon="9.0955170">
        <ele>166.2000000</ele>
        <time>2009-12-27T09:00:50Z</time>
      </trkpt>
      <trkpt lat="45.5582030" lon="9.0954620">
        <ele>162.2000000</ele>
        <time>2009-12-27T09:01:00Z</time>
      </trkpt>
      <trkpt lat="45.5584100" lon="9.0954210">
        <ele>163.6000000</ele>
        <time>2009-12-27T09:01:04Z</time>
      </trkpt>
      <trkpt lat="45.5586050" lon="9.0953720">
        <ele>164.0000000</ele>
        <time>2009-12-27T09:01:08Z</time>
      </trkpt>
      <trkpt lat="45.5589610" lon="9.0952790">
        <ele>163.8000000</ele>
        <time>2009-12-27T09:01:15Z</time>
      </trkpt>
      <trkpt lat="45.5593570" lon="9.0951650">
        <ele>163.0000000</ele>
        <time>2009-12-27T09:01:23Z</time>
      </trkpt>
      <trkpt lat="45.5594460" lon="9.0951520">
        <ele>163.2000000</ele>
        <time>2009-12-27T09:01:25Z</time>
      </trkpt>
      <trkpt lat="45.5595980" lon="9.0953840">
        <ele>166.2000000</ele>
        <time>2009-12-27T09:01:30Z</time>
      </trkpt>
      <trkpt lat="45.5596110" lon="9.0954520">
        <ele>166.6000000</ele>
        <time>2009-12-27T09:01:31Z</time>
      </trkpt>
      <trkpt lat="45.5596780" lon="9.0960280">
        <ele>168.2000000</ele>
        <time>2009-12-27T09:01:39Z</time>
      </trkpt>
      <trkpt lat="45.5597230" lon="9.0965580">
        <ele>167.4000000</ele>
        <time>2009-12-27T09:01:46Z</time>
      </trkpt>
      <trkpt lat="45.5597620" lon="9.0971090">
        <ele>168.0000000</ele>
        <time>2009-12-27T09:01:53Z</time>
      </trkpt>
      <trkpt lat="45.5598920" lon="9.0976680">
        <ele>169.0000000</ele>
        <time>2009-12-27T09:02:00Z</time>
      </trkpt>
      <trkpt lat="45.5601350" lon="9.0979330">
        <ele>170.0000000</ele>
        <time>2009-12-27T09:02:05Z</time>
      </trkpt>
      <trkpt lat="45.5601910" lon="9.0979720">
        <ele>169.4000000</ele>
        <time>2009-12-27T09:02:06Z</time>
      </trkpt>
      <trkpt lat="45.5605210" lon="9.0982180">
        <ele>166.8000000</ele>
        <time>2009-12-27T09:02:12Z</time>
      </trkpt>
      <trkpt lat="45.5608540" lon="9.0984590">
        <ele>165.0000000</ele>
        <time>2009-12-27T09:02:18Z</time>
      </trkpt>
      <trkpt lat="45.5612230" lon="9.0987380">
        <ele>163.6000000</ele>
        <time>2009-12-27T09:02:25Z</time>
      </trkpt>
      <trkpt lat="45.5615470" lon="9.0989770">
        <ele>162.2000000</ele>
        <time>2009-12-27T09:02:31Z</time>
      </trkpt>
      <trkpt lat="45.5618890" lon="9.0992920">
        <ele>165.6000000</ele>
        <time>2009-12-27T09:02:38Z</time>
      </trkpt>
      <trkpt lat="45.5622210" lon="9.0996060">
        <ele>169.4000000</ele>
        <time>2009-12-27T09:02:45Z</time>
      </trkpt>
      <trkpt lat="45.5625260" lon="9.0999870">
        <ele>169.4000000</ele>
        <time>2009-12-27T09:02:52Z</time>
      </trkpt>
      <trkpt lat="45.5627960" lon="9.1003550">
        <ele>169.4000000</ele>
        <time>2009-12-27T09:02:57Z</time>
      </trkpt>
      <trkpt lat="45.5630560" lon="9.1007870">
        <ele>167.8000000</ele>
        <time>2009-12-27T09:03:02Z</time>
      </trkpt>
      <trkpt lat="45.5631480" lon="9.1010090">
        <ele>167.4000000</ele>
        <time>2009-12-27T09:03:04Z</time>
      </trkpt>
      <trkpt lat="45.5632270" lon="9.1012800">
        <ele>167.6000000</ele>
        <time>2009-12-27T09:03:07Z</time>
      </trkpt>
      <trkpt lat="45.5632320" lon="9.1013690">
        <ele>167.8000000</ele>
        <time>2009-12-27T09:03:08Z</time>
      </trkpt>
      <trkpt lat="45.5632290" lon="9.1014500">
        <ele>168.0000000</ele>
        <time>2009-12-27T09:03:09Z</time>
      </trkpt>
      <trkpt lat="45.5631560" lon="9.1018250">
        <ele>167.4000000</ele>
        <time>2009-12-27T09:03:15Z</time>
      </trkpt>
      <trkpt lat="45.5630610" lon="9.1023480">
        <ele>167.4000000</ele>
        <time>2009-12-27T09:03:24Z</time>
      </trkpt>
      <trkpt lat="45.5631780" lon="9.1022460">
        <ele>167.2000000</ele>
        <time>2009-12-27T09:03:34Z</time>
      </trkpt>
      <trkpt lat="45.5632200" lon="9.1021320">
        <ele>167.8000000</ele>
        <time>2009-12-27T09:03:36Z</time>
      </trkpt>
      <trkpt lat="45.5633110" lon="9.1018390">
        <ele>168.2000000</ele>
        <time>2009-12-27T09:03:41Z</time>
      </trkpt>
      <trkpt lat="45.5633720" lon="9.1016670">
        <ele>168.6000000</ele>
        <time>2009-12-27T09:03:44Z</time>
      </trkpt>
      <trkpt lat="45.5635380" lon="9.1011850">
        <ele>169.4000000</ele>
        <time>2009-12-27T09:03:52Z</time>
      </trkpt>
      <trkpt lat="45.5635720" lon="9.1010600">
        <ele>170.4000000</ele>
        <time>2009-12-27T09:03:54Z</time>
      </trkpt>
      <trkpt lat="45.5636430" lon="9.1008250">
        <ele>171.2000000</ele>
        <time>2009-12-27T09:03:58Z</time>
      </trkpt>
      <trkpt lat="45.5637410" lon="9.1007160">
        <ele>171.2000000</ele>
        <time>2009-12-27T09:04:01Z</time>
      </trkpt>
      <trkpt lat="45.5638330" lon="9.1006570">
        <ele>170.6000000</ele>
        <time>2009-12-27T09:04:04Z</time>
      </trkpt>
      <trkpt lat="45.5638780" lon="9.1006300">
        <ele>170.0000000</ele>
        <time>2009-12-27T09:04:08Z</time>
      </trkpt>
      <trkpt lat="45.5638770" lon="9.1005200">
        <ele>170.2000000</ele>
        <time>2009-12-27T09:04:19Z</time>
      </trkpt>
      <trkpt lat="45.5639020" lon="9.1004690">
        <ele>170.2000000</ele>
        <time>2009-12-27T09:04:23Z</time>
      </trkpt>
      <trkpt lat="45.5639560" lon="9.1003510">
        <ele>169.8000000</ele>
        <time>2009-12-27T09:04:28Z</time>
      </trkpt>
      <trkpt lat="45.5641990" lon="9.0999550">
        <ele>167.4000000</ele>
        <time>2009-12-27T09:04:41Z</time>
      </trkpt>
      <trkpt lat="45.5645150" lon="9.0996620">
        <ele>166.2000000</ele>
        <time>2009-12-27T09:04:55Z</time>
      </trkpt>
      <trkpt lat="45.5647580" lon="9.0994840">
        <ele>166.6000000</ele>
        <time>2009-12-27T09:05:08Z</time>
      </trkpt>
      <trkpt lat="45.5648550" lon="9.0994370">
        <ele>168.0000000</ele>
        <time>2009-12-27T09:05:12Z</time>
      </trkpt>
      <trkpt lat="45.5649080" lon="9.0993880">
        <ele>169.6000000</ele>
        <time>2009-12-27T09:05:14Z</time>
      </trkpt>
      <trkpt lat="45.5650950" lon="9.0991720">
        <ele>165.6000000</ele>
        <time>2009-12-27T09:05:28Z</time>
      </trkpt>
      <trkpt lat="45.5651420" lon="9.0990910">
        <ele>167.2000000</ele>
        <time>2009-12-27T09:05:34Z</time>
      </trkpt>
      <trkpt lat="45.5651530" lon="9.0990780">
        <ele>167.6000000</ele>
        <time>2009-12-27T09:05:35Z</time>
      </trkpt>
      <trkpt lat="45.5654180" lon="9.0987290">
        <ele>168.2000000</ele>
        <time>2009-12-27T09:05:54Z</time>
      </trkpt>
      <trkpt lat="45.5657370" lon="9.0984690">
        <ele>167.8000000</ele>
        <time>2009-12-27T09:06:08Z</time>
      </trkpt>
      <trkpt lat="45.5659640" lon="9.0980120">
        <ele>168.2000000</ele>
        <time>2009-12-27T09:06:22Z</time>
      </trkpt>
      <trkpt lat="45.5661870" lon="9.0976210">
        <ele>172.2000000</ele>
        <time>2009-12-27T09:07:14Z</time>
      </trkpt>
      <trkpt lat="45.5663900" lon="9.0971900">
        <ele>170.2000000</ele>
        <time>2009-12-27T09:07:47Z</time>
      </trkpt>
      <trkpt lat="45.5666240" lon="9.0967520">
        <ele>172.0000000</ele>
        <time>2009-12-27T09:08:10Z</time>
      </trkpt>
      <trkpt lat="45.5669060" lon="9.0963970">
        <ele>172.2000000</ele>
        <time>2009-12-27T09:08:23Z</time>
      </trkpt>
      <trkpt lat="45.5671930" lon="9.0960830">
        <ele>171.8000000</ele>
        <time>2009-12-27T09:08:35Z</time>
      </trkpt>
      <trkpt lat="45.5674980" lon="9.0957490">
        <ele>171.6000000</ele>
        <time>2009-12-27T09:08:46Z</time>
      </trkpt>
      <trkpt lat="45.5677950" lon="9.0954270">
        <ele>171.4000000</ele>
        <time>2009-12-27T09:08:56Z</time>
      </trkpt>
      <trkpt lat="45.5680900" lon="9.0951160">
        <ele>171.2000000</ele>
        <time>2009-12-27T09:09:06Z</time>
      </trkpt>
      <trkpt lat="45.5683890" lon="9.0947930">
        <ele>171.6000000</ele>
        <time>2009-12-27T09:09:16Z</time>
      </trkpt>
      <trkpt lat="45.5686890" lon="9.0944600">
        <ele>172.4000000</ele>
        <time>2009-12-27T09:09:28Z</time>
      </trkpt>
      <trkpt lat="45.5689830" lon="9.0941110">
        <ele>170.8000000</ele>
        <time>2009-12-27T09:09:41Z</time>
      </trkpt>
      <trkpt lat="45.5692680" lon="9.0937710">
        <ele>171.0000000</ele>
        <time>2009-12-27T09:09:51Z</time>
      </trkpt>
      <trkpt lat="45.5695690" lon="9.0934420">
        <ele>171.6000000</ele>
        <time>2009-12-27T09:10:02Z</time>
      </trkpt>
      <trkpt lat="45.5698500" lon="9.0931070">
        <ele>172.4000000</ele>
        <time>2009-12-27T09:10:12Z</time>
      </trkpt>
      <trkpt lat="45.5701400" lon="9.0927370">
        <ele>173.8000000</ele>
        <time>2009-12-27T09:10:23Z</time>
      </trkpt>
      <trkpt lat="45.5704220" lon="9.0923710">
        <ele>171.8000000</ele>
        <time>2009-12-27T09:10:35Z</time>
      </trkpt>
      <trkpt lat="45.5704790" lon="9.0922920">
        <ele>170.8000000</ele>
        <time>2009-12-27T09:10:38Z</time>
      </trkpt>
      <trkpt lat="45.5706110" lon="9.0923690">
        <ele>172.0000000</ele>
        <time>2009-12-27T09:10:43Z</time>
      </trkpt>
      <trkpt lat="45.5707480" lon="9.0925120">
        <ele>172.6000000</ele>
        <time>2009-12-27T09:10:48Z</time>
      </trkpt>
      <trkpt lat="45.5710110" lon="9.0928680">
        <ele>173.4000000</ele>
        <time>2009-12-27T09:11:00Z</time>
      </trkpt>
      <trkpt lat="45.5712160" lon="9.0933450">
        <ele>172.6000000</ele>
        <time>2009-12-27T09:11:11Z</time>
      </trkpt>
      <trkpt lat="45.5713620" lon="9.0937200">
        <ele>174.4000000</ele>
        <time>2009-12-27T09:11:18Z</time>
      </trkpt>
      <trkpt lat="45.5714090" lon="9.0938270">
        <ele>174.2000000</ele>
        <time>2009-12-27T09:11:20Z</time>
      </trkpt>
      <trkpt lat="45.5715610" lon="9.0943290">
        <ele>175.6000000</ele>
        <time>2009-12-27T09:11:28Z</time>
      </trkpt>
      <trkpt lat="45.5717120" lon="9.0948520">
        <ele>176.0000000</ele>
        <time>2009-12-27T09:11:36Z</time>
      </trkpt>
      <trkpt lat="45.5718110" lon="9.0953510">
        <ele>176.4000000</ele>
        <time>2009-12-27T09:11:43Z</time>
      </trkpt>
      <trkpt lat="45.5718670" lon="9.0958070">
        <ele>176.0000000</ele>
        <time>2009-12-27T09:11:51Z</time>
      </trkpt>
      <trkpt lat="45.5718780" lon="9.0958670">
        <ele>175.8000000</ele>
        <time>2009-12-27T09:11:52Z</time>
      </trkpt>
      <trkpt lat="45.5719390" lon="9.0961110">
        <ele>176.2000000</ele>
        <time>2009-12-27T09:11:56Z</time>
      </trkpt>
      <trkpt lat="45.5719590" lon="9.0963700">
        <ele>176.2000000</ele>
        <time>2009-12-27T09:12:00Z</time>
      </trkpt>
      <trkpt lat="45.5719700" lon="9.0969310">
        <ele>175.6000000</ele>
        <time>2009-12-27T09:12:09Z</time>
      </trkpt>
      <trkpt lat="45.5719870" lon="9.0971080">
        <ele>175.4000000</ele>
        <time>2009-12-27T09:12:12Z</time>
      </trkpt>
      <trkpt lat="45.5719930" lon="9.0975030">
        <ele>175.2000000</ele>
        <time>2009-12-27T09:12:18Z</time>
      </trkpt>
      <trkpt lat="45.5720000" lon="9.0980680">
        <ele>175.6000000</ele>
        <time>2009-12-27T09:12:26Z</time>
      </trkpt>
      <trkpt lat="45.5720120" lon="9.0982770">
        <ele>175.8000000</ele>
        <time>2009-12-27T09:12:29Z</time>
      </trkpt>
      <trkpt lat="45.5720170" lon="9.0986170">
        <ele>176.0000000</ele>
        <time>2009-12-27T09:12:34Z</time>
      </trkpt>
      <trkpt lat="45.5720210" lon="9.0991300">
        <ele>175.4000000</ele>
        <time>2009-12-27T09:12:41Z</time>
      </trkpt>
      <trkpt lat="45.5720290" lon="9.0996980">
        <ele>175.4000000</ele>
        <time>2009-12-27T09:12:49Z</time>
      </trkpt>
      <trkpt lat="45.5720370" lon="9.1002570">
        <ele>176.0000000</ele>
        <time>2009-12-27T09:12:57Z</time>
      </trkpt>
      <trkpt lat="45.5720590" lon="9.1008340">
        <ele>176.2000000</ele>
        <time>2009-12-27T09:13:05Z</time>
      </trkpt>
      <trkpt lat="45.5720570" lon="9.1009060">
        <ele>176.4000000</ele>
        <time>2009-12-27T09:13:06Z</time>
      </trkpt>
      <trkpt lat="45.5720570" lon="9.1013830">
        <ele>176.6000000</ele>
        <time>2009-12-27T09:13:13Z</time>
      </trkpt>
      <trkpt lat="45.5720640" lon="9.1015550">
        <ele>176.6000000</ele>
        <time>2009-12-27T09:13:17Z</time>
      </trkpt>
      <trkpt lat="45.5720800" lon="9.1019010">
        <ele>176.4000000</ele>
        <time>2009-12-27T09:13:23Z</time>
      </trkpt>
      <trkpt lat="45.5720900" lon="9.1024490">
        <ele>175.6000000</ele>
        <time>2009-12-27T09:13:33Z</time>
      </trkpt>
      <trkpt lat="45.5720990" lon="9.1029880">
        <ele>175.0000000</ele>
        <time>2009-12-27T09:13:42Z</time>
      </trkpt>
      <trkpt lat="45.5721110" lon="9.1032750">
        <ele>176.0000000</ele>
        <time>2009-12-27T09:13:46Z</time>
      </trkpt>
      <trkpt lat="45.5721100" lon="9.1035520">
        <ele>176.0000000</ele>
        <time>2009-12-27T09:13:50Z</time>
      </trkpt>
      <trkpt lat="45.5721220" lon="9.1041280">
        <ele>175.8000000</ele>
        <time>2009-12-27T09:13:58Z</time>
      </trkpt>
      <trkpt lat="45.5721330" lon="9.1046920">
        <ele>176.2000000</ele>
        <time>2009-12-27T09:14:06Z</time>
      </trkpt>
      <trkpt lat="45.5721380" lon="9.1048190">
        <ele>176.6000000</ele>
        <time>2009-12-27T09:14:08Z</time>
      </trkpt>
      <trkpt lat="45.5720210" lon="9.1050800">
        <ele>177.6000000</ele>
        <time>2009-12-27T09:14:13Z</time>
      </trkpt>
      <trkpt lat="45.5719880" lon="9.1051320">
        <ele>177.6000000</ele>
        <time>2009-12-27T09:14:14Z</time>
      </trkpt>
      <trkpt lat="45.5720020" lon="9.1054560">
        <ele>176.4000000</ele>
        <time>2009-12-27T09:14:19Z</time>
      </trkpt>
      <trkpt lat="45.5720600" lon="9.1056520">
        <ele>177.0000000</ele>
        <time>2009-12-27T09:14:22Z</time>
      </trkpt>
      <trkpt lat="45.5722030" lon="9.1061790">
        <ele>177.4000000</ele>
        <time>2009-12-27T09:14:30Z</time>
      </trkpt>
      <trkpt lat="45.5722270" lon="9.1062400">
        <ele>177.6000000</ele>
        <time>2009-12-27T09:14:31Z</time>
      </trkpt>
      <trkpt lat="45.5724350" lon="9.1066220">
        <ele>176.0000000</ele>
        <time>2009-12-27T09:14:39Z</time>
      </trkpt>
      <trkpt lat="45.5727660" lon="9.1068660">
        <ele>176.0000000</ele>
        <time>2009-12-27T09:14:51Z</time>
      </trkpt>
      <trkpt lat="45.5731090" lon="9.1071020">
        <ele>174.6000000</ele>
        <time>2009-12-27T09:14:59Z</time>
      </trkpt>
      <trkpt lat="45.5734940" lon="9.1072790">
        <ele>175.0000000</ele>
        <time>2009-12-27T09:15:08Z</time>
      </trkpt>
      <trkpt lat="45.5735930" lon="9.1073220">
        <ele>174.2000000</ele>
        <time>2009-12-27T09:15:10Z</time>
      </trkpt>
      <trkpt lat="45.5738740" lon="9.1074200">
        <ele>175.0000000</ele>
        <time>2009-12-27T09:15:15Z</time>
      </trkpt>
      <trkpt lat="45.5739290" lon="9.1073990">
        <ele>175.4000000</ele>
        <time>2009-12-27T09:15:16Z</time>
      </trkpt>
      <trkpt lat="45.5742530" lon="9.1073670">
        <ele>176.8000000</ele>
        <time>2009-12-27T09:15:22Z</time>
      </trkpt>
      <trkpt lat="45.5745900" lon="9.1076080">
        <ele>177.0000000</ele>
        <time>2009-12-27T09:15:28Z</time>
      </trkpt>
      <trkpt lat="45.5748600" lon="9.1079530">
        <ele>176.6000000</ele>
        <time>2009-12-27T09:15:35Z</time>
      </trkpt>
      <trkpt lat="45.5749690" lon="9.1081460">
        <ele>177.6000000</ele>
        <time>2009-12-27T09:15:40Z</time>
      </trkpt>
      <trkpt lat="45.5750550" lon="9.1081090">
        <ele>179.4000000</ele>
        <time>2009-12-27T09:15:47Z</time>
      </trkpt>
      <trkpt lat="45.5751050" lon="9.1080180">
        <ele>179.4000000</ele>
        <time>2009-12-27T09:15:50Z</time>
      </trkpt>
      <trkpt lat="45.5751650" lon="9.1079430">
        <ele>179.6000000</ele>
        <time>2009-12-27T09:15:53Z</time>
      </trkpt>
      <trkpt lat="45.5752550" lon="9.1080380">
        <ele>178.6000000</ele>
        <time>2009-12-27T09:15:57Z</time>
      </trkpt>
      <trkpt lat="45.5753690" lon="9.1082260">
        <ele>176.8000000</ele>
        <time>2009-12-27T09:16:02Z</time>
      </trkpt>
      <trkpt lat="45.5756540" lon="9.1085880">
        <ele>174.0000000</ele>
        <time>2009-12-27T09:16:13Z</time>
      </trkpt>
      <trkpt lat="45.5758880" lon="9.1087480">
        <ele>173.6000000</ele>
        <time>2009-12-27T09:16:20Z</time>
      </trkpt>
      <trkpt lat="45.5758960" lon="9.1089010">
        <ele>175.0000000</ele>
        <time>2009-12-27T09:16:24Z</time>
      </trkpt>
      <trkpt lat="45.5761480" lon="9.1093040">
        <ele>177.2000000</ele>
        <time>2009-12-27T09:16:37Z</time>
      </trkpt>
      <trkpt lat="45.5763900" lon="9.1097250">
        <ele>178.0000000</ele>
        <time>2009-12-27T09:16:47Z</time>
      </trkpt>
      <trkpt lat="45.5766780" lon="9.1100320">
        <ele>176.0000000</ele>
        <time>2009-12-27T09:16:58Z</time>
      </trkpt>
      <trkpt lat="45.5769640" lon="9.1104050">
        <ele>175.2000000</ele>
        <time>2009-12-27T09:17:09Z</time>
      </trkpt>
      <trkpt lat="45.5772120" lon="9.1108170">
        <ele>174.4000000</ele>
        <time>2009-12-27T09:17:21Z</time>
      </trkpt>
      <trkpt lat="45.5773570" lon="9.1113050">
        <ele>175.8000000</ele>
        <time>2009-12-27T09:17:32Z</time>
      </trkpt>
      <trkpt lat="45.5774220" lon="9.1118350">
        <ele>174.8000000</ele>
        <time>2009-12-27T09:17:43Z</time>
      </trkpt>
      <trkpt lat="45.5774240" lon="9.1123750">
        <ele>173.2000000</ele>
        <time>2009-12-27T09:17:54Z</time>
      </trkpt>
      <trkpt lat="45.5774170" lon="9.1129260">
        <ele>172.4000000</ele>
        <time>2009-12-27T09:18:04Z</time>
      </trkpt>
      <trkpt lat="45.5774340" lon="9.1134580">
        <ele>172.4000000</ele>
        <time>2009-12-27T09:18:14Z</time>
      </trkpt>
      <trkpt lat="45.5775680" lon="9.1139660">
        <ele>176.0000000</ele>
        <time>2009-12-27T09:18:26Z</time>
      </trkpt>
      <trkpt lat="45.5778440" lon="9.1143040">
        <ele>175.2000000</ele>
        <time>2009-12-27T09:18:39Z</time>
      </trkpt>
      <trkpt lat="45.5782110" lon="9.1143970">
        <ele>175.8000000</ele>
        <time>2009-12-27T09:18:50Z</time>
      </trkpt>
      <trkpt lat="45.5785950" lon="9.1144650">
        <ele>176.6000000</ele>
        <time>2009-12-27T09:19:00Z</time>
      </trkpt>
      <trkpt lat="45.5789650" lon="9.1144750">
        <ele>177.8000000</ele>
        <time>2009-12-27T09:19:10Z</time>
      </trkpt>
      <trkpt lat="45.5793410" lon="9.1144840">
        <ele>177.4000000</ele>
        <time>2009-12-27T09:19:22Z</time>
      </trkpt>
      <trkpt lat="45.5796300" lon="9.1145140">
        <ele>179.6000000</ele>
        <time>2009-12-27T09:19:34Z</time>
      </trkpt>
      <trkpt lat="45.5796990" lon="9.1144950">
        <ele>179.2000000</ele>
        <time>2009-12-27T09:19:38Z</time>
      </trkpt>
      <trkpt lat="45.5797200" lon="9.1145010">
        <ele>179.0000000</ele>
        <time>2009-12-27T09:19:39Z</time>
      </trkpt>
      <trkpt lat="45.5800350" lon="9.1145050">
        <ele>177.0000000</ele>
        <time>2009-12-27T09:19:53Z</time>
      </trkpt>
      <trkpt lat="45.5800560" lon="9.1144870">
        <ele>177.4000000</ele>
        <time>2009-12-27T09:19:54Z</time>
      </trkpt>
      <trkpt lat="45.5801540" lon="9.1144950">
        <ele>178.0000000</ele>
        <time>2009-12-27T09:20:00Z</time>
      </trkpt>
      <trkpt lat="45.5802210" lon="9.1145340">
        <ele>177.2000000</ele>
        <time>2009-12-27T09:22:57Z</time>
      </trkpt>
      <trkpt lat="45.5806150" lon="9.1145560">
        <ele>175.4000000</ele>
        <time>2009-12-27T09:23:09Z</time>
      </trkpt>
      <trkpt lat="45.5810020" lon="9.1146670">
        <ele>175.4000000</ele>
        <time>2009-12-27T09:23:19Z</time>
      </trkpt>
      <trkpt lat="45.5813180" lon="9.1149590">
        <ele>174.4000000</ele>
        <time>2009-12-27T09:23:29Z</time>
      </trkpt>
      <trkpt lat="45.5815320" lon="9.1154040">
        <ele>172.8000000</ele>
        <time>2009-12-27T09:23:38Z</time>
      </trkpt>
      <trkpt lat="45.5816350" lon="9.1159030">
        <ele>174.4000000</ele>
        <time>2009-12-27T09:23:48Z</time>
      </trkpt>
      <trkpt lat="45.5817320" lon="9.1164190">
        <ele>176.0000000</ele>
        <time>2009-12-27T09:23:57Z</time>
      </trkpt>
      <trkpt lat="45.5818410" lon="9.1169450">
        <ele>176.4000000</ele>
        <time>2009-12-27T09:24:07Z</time>
      </trkpt>
      <trkpt lat="45.5819430" lon="9.1174840">
        <ele>176.4000000</ele>
        <time>2009-12-27T09:24:17Z</time>
      </trkpt>
      <trkpt lat="45.5820900" lon="9.1179660">
        <ele>177.0000000</ele>
        <time>2009-12-27T09:24:27Z</time>
      </trkpt>
      <trkpt lat="45.5823850" lon="9.1183000">
        <ele>177.2000000</ele>
        <time>2009-12-27T09:24:39Z</time>
      </trkpt>
      <trkpt lat="45.5824600" lon="9.1183370">
        <ele>177.0000000</ele>
        <time>2009-12-27T09:24:43Z</time>
      </trkpt>
      <trkpt lat="45.5823190" lon="9.1186970">
        <ele>175.6000000</ele>
        <time>2009-12-27T09:24:53Z</time>
      </trkpt>
      <trkpt lat="45.5820090" lon="9.1185940">
        <ele>175.6000000</ele>
        <time>2009-12-27T09:24:59Z</time>
      </trkpt>
      <trkpt lat="45.5819520" lon="9.1185560">
        <ele>175.6000000</ele>
        <time>2009-12-27T09:25:00Z</time>
      </trkpt>
      <trkpt lat="45.5817360" lon="9.1184460">
        <ele>174.0000000</ele>
        <time>2009-12-27T09:25:04Z</time>
      </trkpt>
      <trkpt lat="45.5816050" lon="9.1185310">
        <ele>171.8000000</ele>
        <time>2009-12-27T09:25:07Z</time>
      </trkpt>
      <trkpt lat="45.5815550" lon="9.1188340">
        <ele>169.6000000</ele>
        <time>2009-12-27T09:25:11Z</time>
      </trkpt>
      <trkpt lat="45.5815490" lon="9.1190810">
        <ele>168.2000000</ele>
        <time>2009-12-27T09:25:14Z</time>
      </trkpt>
      <trkpt lat="45.5815590" lon="9.1191960">
        <ele>167.8000000</ele>
        <time>2009-12-27T09:25:16Z</time>
      </trkpt>
      <trkpt lat="45.5816960" lon="9.1193230">
        <ele>169.2000000</ele>
        <time>2009-12-27T09:25:21Z</time>
      </trkpt>
      <trkpt lat="45.5817240" lon="9.1193290">
        <ele>169.0000000</ele>
        <time>2009-12-27T09:25:22Z</time>
      </trkpt>
      <trkpt lat="45.5818170" lon="9.1193440">
        <ele>168.8000000</ele>
        <time>2009-12-27T09:25:26Z</time>
      </trkpt>
      <trkpt lat="45.5821950" lon="9.1194030">
        <ele>172.0000000</ele>
        <time>2009-12-27T09:25:38Z</time>
      </trkpt>
      <trkpt lat="45.5825950" lon="9.1194330">
        <ele>171.4000000</ele>
        <time>2009-12-27T09:25:47Z</time>
      </trkpt>
      <trkpt lat="45.5829990" lon="9.1194530">
        <ele>171.6000000</ele>
        <time>2009-12-27T09:25:56Z</time>
      </trkpt>
      <trkpt lat="45.5833910" lon="9.1194560">
        <ele>170.0000000</ele>
        <time>2009-12-27T09:26:04Z</time>
      </trkpt>
      <trkpt lat="45.5837650" lon="9.1194260">
        <ele>170.2000000</ele>
        <time>2009-12-27T09:26:11Z</time>
      </trkpt>
      <trkpt lat="45.5841270" lon="9.1193420">
        <ele>169.4000000</ele>
        <time>2009-12-27T09:26:18Z</time>
      </trkpt>
      <trkpt lat="45.5845190" lon="9.1192650">
        <ele>171.4000000</ele>
        <time>2009-12-27T09:26:25Z</time>
      </trkpt>
      <trkpt lat="45.5849010" lon="9.1191680">
        <ele>170.8000000</ele>
        <time>2009-12-27T09:26:32Z</time>
      </trkpt>
      <trkpt lat="45.5852850" lon="9.1191000">
        <ele>172.4000000</ele>
        <time>2009-12-27T09:26:39Z</time>
      </trkpt>
      <trkpt lat="45.5856780" lon="9.1190500">
        <ele>173.0000000</ele>
        <time>2009-12-27T09:26:46Z</time>
      </trkpt>
      <trkpt lat="45.5860640" lon="9.1190840">
        <ele>173.0000000</ele>
        <time>2009-12-27T09:26:53Z</time>
      </trkpt>
      <trkpt lat="45.5863380" lon="9.1191540">
        <ele>173.0000000</ele>
        <time>2009-12-27T09:26:58Z</time>
      </trkpt>
      <trkpt lat="45.5864420" lon="9.1192050">
        <ele>173.0000000</ele>
        <time>2009-12-27T09:27:00Z</time>
      </trkpt>
      <trkpt lat="45.5864930" lon="9.1192380">
        <ele>173.2000000</ele>
        <time>2009-12-27T09:27:01Z</time>
      </trkpt>
      <trkpt lat="45.5867730" lon="9.1194950">
        <ele>173.8000000</ele>
        <time>2009-12-27T09:27:07Z</time>
      </trkpt>
      <trkpt lat="45.5870650" lon="9.1198080">
        <ele>175.2000000</ele>
        <time>2009-12-27T09:27:14Z</time>
      </trkpt>
      <trkpt lat="45.5872830" lon="9.1200130">
        <ele>176.6000000</ele>
        <time>2009-12-27T09:27:19Z</time>
      </trkpt>
      <trkpt lat="45.5873820" lon="9.1200510">
        <ele>176.8000000</ele>
        <time>2009-12-27T09:27:21Z</time>
      </trkpt>
      <trkpt lat="45.5875320" lon="9.1200550">
        <ele>177.6000000</ele>
        <time>2009-12-27T09:27:24Z</time>
      </trkpt>
      <trkpt lat="45.5875810" lon="9.1200440">
        <ele>177.8000000</ele>
        <time>2009-12-27T09:27:25Z</time>
      </trkpt>
      <trkpt lat="45.5877510" lon="9.1199390">
        <ele>178.0000000</ele>
        <time>2009-12-27T09:27:29Z</time>
      </trkpt>
      <trkpt lat="45.5877830" lon="9.1199070">
        <ele>178.2000000</ele>
        <time>2009-12-27T09:27:30Z</time>
      </trkpt>
      <trkpt lat="45.5878110" lon="9.1198860">
        <ele>178.2000000</ele>
        <time>2009-12-27T09:27:31Z</time>
      </trkpt>
      <trkpt lat="45.5879790" lon="9.1200590">
        <ele>176.6000000</ele>
        <time>2009-12-27T09:27:39Z</time>
      </trkpt>
      <trkpt lat="45.5880450" lon="9.1201420">
        <ele>176.2000000</ele>
        <time>2009-12-27T09:27:41Z</time>
      </trkpt>
      <trkpt lat="45.5882860" lon="9.1205870">
        <ele>174.8000000</ele>
        <time>2009-12-27T09:27:51Z</time>
      </trkpt>
      <trkpt lat="45.5884670" lon="9.1210900">
        <ele>174.0000000</ele>
        <time>2009-12-27T09:28:01Z</time>
      </trkpt>
      <trkpt lat="45.5885800" lon="9.1216250">
        <ele>174.2000000</ele>
        <time>2009-12-27T09:28:12Z</time>
      </trkpt>
      <trkpt lat="45.5886370" lon="9.1221620">
        <ele>175.2000000</ele>
        <time>2009-12-27T09:28:23Z</time>
      </trkpt>
      <trkpt lat="45.5886430" lon="9.1226760">
        <ele>175.2000000</ele>
        <time>2009-12-27T09:28:32Z</time>
      </trkpt>
      <trkpt lat="45.5886250" lon="9.1232000">
        <ele>174.6000000</ele>
        <time>2009-12-27T09:28:43Z</time>
      </trkpt>
      <trkpt lat="45.5885940" lon="9.1237140">
        <ele>174.0000000</ele>
        <time>2009-12-27T09:28:55Z</time>
      </trkpt>
      <trkpt lat="45.5885490" lon="9.1242640">
        <ele>174.4000000</ele>
        <time>2009-12-27T09:29:07Z</time>
      </trkpt>
      <trkpt lat="45.5885040" lon="9.1247110">
        <ele>178.0000000</ele>
        <time>2009-12-27T09:30:23Z</time>
      </trkpt>
      <trkpt lat="45.5884790" lon="9.1250410">
        <ele>177.0000000</ele>
        <time>2009-12-27T09:32:44Z</time>
      </trkpt>
      <trkpt lat="45.5884410" lon="9.1255570">
        <ele>176.8000000</ele>
        <time>2009-12-27T09:32:54Z</time>
      </trkpt>
      <trkpt lat="45.5884060" lon="9.1260740">
        <ele>176.4000000</ele>
        <time>2009-12-27T09:33:03Z</time>
      </trkpt>
      <trkpt lat="45.5883730" lon="9.1265960">
        <ele>175.8000000</ele>
        <time>2009-12-27T09:33:12Z</time>
      </trkpt>
      <trkpt lat="45.5883300" lon="9.1271630">
        <ele>175.6000000</ele>
        <time>2009-12-27T09:33:22Z</time>
      </trkpt>
      <trkpt lat="45.5882650" lon="9.1276960">
        <ele>175.6000000</ele>
        <time>2009-12-27T09:33:31Z</time>
      </trkpt>
      <trkpt lat="45.5882010" lon="9.1282270">
        <ele>173.8000000</ele>
        <time>2009-12-27T09:33:40Z</time>
      </trkpt>
      <trkpt lat="45.5881310" lon="9.1287870">
        <ele>172.6000000</ele>
        <time>2009-12-27T09:33:49Z</time>
      </trkpt>
      <trkpt lat="45.5880500" lon="9.1293380">
        <ele>171.4000000</ele>
        <time>2009-12-27T09:33:58Z</time>
      </trkpt>
      <trkpt lat="45.5880100" lon="9.1296120">
        <ele>171.6000000</ele>
        <time>2009-12-27T09:34:03Z</time>
      </trkpt>
      <trkpt lat="45.5879860" lon="9.1298830">
        <ele>172.4000000</ele>
        <time>2009-12-27T09:34:08Z</time>
      </trkpt>
      <trkpt lat="45.5879170" lon="9.1304190">
        <ele>173.0000000</ele>
        <time>2009-12-27T09:34:19Z</time>
      </trkpt>
      <trkpt lat="45.5878450" lon="9.1309310">
        <ele>173.8000000</ele>
        <time>2009-12-27T09:34:32Z</time>
      </trkpt>
      <trkpt lat="45.5877950" lon="9.1312890">
        <ele>175.0000000</ele>
        <time>2009-12-27T09:34:42Z</time>
      </trkpt>
      <trkpt lat="45.5878340" lon="9.1313020">
        <ele>175.2000000</ele>
        <time>2009-12-27T09:34:46Z</time>
      </trkpt>
      <trkpt lat="45.5879040" lon="9.1313140">
        <ele>175.2000000</ele>
        <time>2009-12-27T09:34:49Z</time>
      </trkpt>
      <trkpt lat="45.5879810" lon="9.1313480">
        <ele>175.4000000</ele>
        <time>2009-12-27T09:34:52Z</time>
      </trkpt>
      <trkpt lat="45.5879960" lon="9.1315690">
        <ele>175.0000000</ele>
        <time>2009-12-27T09:34:56Z</time>
      </trkpt>
      <trkpt lat="45.5879670" lon="9.1317610">
        <ele>174.8000000</ele>
        <time>2009-12-27T09:34:59Z</time>
      </trkpt>
      <trkpt lat="45.5878980" lon="9.1323190">
        <ele>174.4000000</ele>
        <time>2009-12-27T09:35:07Z</time>
      </trkpt>
      <trkpt lat="45.5878310" lon="9.1328660">
        <ele>174.4000000</ele>
        <time>2009-12-27T09:35:14Z</time>
      </trkpt>
      <trkpt lat="45.5877650" lon="9.1333900">
        <ele>174.0000000</ele>
        <time>2009-12-27T09:35:21Z</time>
      </trkpt>
      <trkpt lat="45.5876940" lon="9.1339210">
        <ele>173.8000000</ele>
        <time>2009-12-27T09:35:28Z</time>
      </trkpt>
      <trkpt lat="45.5876300" lon="9.1344740">
        <ele>174.2000000</ele>
        <time>2009-12-27T09:35:35Z</time>
      </trkpt>
      <trkpt lat="45.5875700" lon="9.1350520">
        <ele>173.4000000</ele>
        <time>2009-12-27T09:35:42Z</time>
      </trkpt>
      <trkpt lat="45.5875140" lon="9.1356320">
        <ele>172.8000000</ele>
        <time>2009-12-27T09:35:49Z</time>
      </trkpt>
      <trkpt lat="45.5874480" lon="9.1362150">
        <ele>172.6000000</ele>
        <time>2009-12-27T09:35:56Z</time>
      </trkpt>
      <trkpt lat="45.5873960" lon="9.1367310">
        <ele>172.2000000</ele>
        <time>2009-12-27T09:36:02Z</time>
      </trkpt>
      <trkpt lat="45.5873460" lon="9.1372490">
        <ele>171.6000000</ele>
        <time>2009-12-27T09:36:08Z</time>
      </trkpt>
      <trkpt lat="45.5872860" lon="9.1377970">
        <ele>171.2000000</ele>
        <time>2009-12-27T09:36:14Z</time>
      </trkpt>
      <trkpt lat="45.5872250" lon="9.1383440">
        <ele>171.6000000</ele>
        <time>2009-12-27T09:36:20Z</time>
      </trkpt>
      <trkpt lat="45.5871820" lon="9.1388820">
        <ele>172.6000000</ele>
        <time>2009-12-27T09:36:26Z</time>
      </trkpt>
      <trkpt lat="45.5871430" lon="9.1394100">
        <ele>173.8000000</ele>
        <time>2009-12-27T09:36:32Z</time>
      </trkpt>
      <trkpt lat="45.5871060" lon="9.1399230">
        <ele>174.8000000</ele>
        <time>2009-12-27T09:36:38Z</time>
      </trkpt>
      <trkpt lat="45.5870690" lon="9.1403700">
        <ele>175.2000000</ele>
        <time>2009-12-27T09:36:47Z</time>
      </trkpt>
      <trkpt lat="45.5870520" lon="9.1404540">
        <ele>175.8000000</ele>
        <time>2009-12-27T09:36:53Z</time>
      </trkpt>
      <trkpt lat="45.5870450" lon="9.1405430">
        <ele>175.4000000</ele>
        <time>2009-12-27T09:36:56Z</time>
      </trkpt>
      <trkpt lat="45.5870060" lon="9.1409940">
        <ele>174.0000000</ele>
        <time>2009-12-27T09:37:04Z</time>
      </trkpt>
      <trkpt lat="45.5869570" lon="9.1415760">
        <ele>173.2000000</ele>
        <time>2009-12-27T09:37:12Z</time>
      </trkpt>
      <trkpt lat="45.5869090" lon="9.1421330">
        <ele>173.6000000</ele>
        <time>2009-12-27T09:37:19Z</time>
      </trkpt>
      <trkpt lat="45.5868610" lon="9.1426990">
        <ele>173.2000000</ele>
        <time>2009-12-27T09:37:26Z</time>
      </trkpt>
      <trkpt lat="45.5868130" lon="9.1432670">
        <ele>173.6000000</ele>
        <time>2009-12-27T09:37:33Z</time>
      </trkpt>
      <trkpt lat="45.5867610" lon="9.1438400">
        <ele>174.2000000</ele>
        <time>2009-12-27T09:37:40Z</time>
      </trkpt>
      <trkpt lat="45.5867100" lon="9.1444200">
        <ele>174.6000000</ele>
        <time>2009-12-27T09:37:47Z</time>
      </trkpt>
      <trkpt lat="45.5866460" lon="9.1449500">
        <ele>176.0000000</ele>
        <time>2009-12-27T09:37:54Z</time>
      </trkpt>
      <trkpt lat="45.5866440" lon="9.1454720">
        <ele>176.2000000</ele>
        <time>2009-12-27T09:38:04Z</time>
      </trkpt>
      <trkpt lat="45.5866630" lon="9.1455140">
        <ele>176.4000000</ele>
        <time>2009-12-27T09:38:06Z</time>
      </trkpt>
      <trkpt lat="45.5866410" lon="9.1459180">
        <ele>175.2000000</ele>
        <time>2009-12-27T09:38:18Z</time>
      </trkpt>
      <trkpt lat="45.5866200" lon="9.1460610">
        <ele>175.0000000</ele>
        <time>2009-12-27T09:38:20Z</time>
      </trkpt>
      <trkpt lat="45.5865800" lon="9.1464410">
        <ele>174.4000000</ele>
        <time>2009-12-27T09:38:25Z</time>
      </trkpt>
      <trkpt lat="45.5865280" lon="9.1470130">
        <ele>172.4000000</ele>
        <time>2009-12-27T09:38:33Z</time>
      </trkpt>
      <trkpt lat="45.5864710" lon="9.1475790">
        <ele>172.4000000</ele>
        <time>2009-12-27T09:38:41Z</time>
      </trkpt>
      <trkpt lat="45.5864350" lon="9.1481430">
        <ele>172.2000000</ele>
        <time>2009-12-27T09:38:49Z</time>
      </trkpt>
      <trkpt lat="45.5864370" lon="9.1487110">
        <ele>172.6000000</ele>
        <time>2009-12-27T09:38:57Z</time>
      </trkpt>
      <trkpt lat="45.5864710" lon="9.1492200">
        <ele>172.8000000</ele>
        <time>2009-12-27T09:39:04Z</time>
      </trkpt>
      <trkpt lat="45.5865330" lon="9.1497250">
        <ele>173.2000000</ele>
        <time>2009-12-27T09:39:11Z</time>
      </trkpt>
      <trkpt lat="45.5866090" lon="9.1502270">
        <ele>172.8000000</ele>
        <time>2009-12-27T09:39:18Z</time>
      </trkpt>
      <trkpt lat="45.5866880" lon="9.1507910">
        <ele>173.2000000</ele>
        <time>2009-12-27T09:39:26Z</time>
      </trkpt>
      <trkpt lat="45.5867740" lon="9.1513620">
        <ele>173.2000000</ele>
        <time>2009-12-27T09:39:34Z</time>
      </trkpt>
      <trkpt lat="45.5868590" lon="9.1519340">
        <ele>173.2000000</ele>
        <time>2009-12-27T09:39:42Z</time>
      </trkpt>
      <trkpt lat="45.5869470" lon="9.1524860">
        <ele>172.8000000</ele>
        <time>2009-12-27T09:39:50Z</time>
      </trkpt>
      <trkpt lat="45.5870400" lon="9.1530270">
        <ele>173.2000000</ele>
        <time>2009-12-27T09:39:58Z</time>
      </trkpt>
      <trkpt lat="45.5871370" lon="9.1535250">
        <ele>173.8000000</ele>
        <time>2009-12-27T09:40:06Z</time>
      </trkpt>
      <trkpt lat="45.5872160" lon="9.1538010">
        <ele>174.8000000</ele>
        <time>2009-12-27T09:40:11Z</time>
      </trkpt>
      <trkpt lat="45.5873740" lon="9.1538790">
        <ele>175.8000000</ele>
        <time>2009-12-27T09:40:16Z</time>
      </trkpt>
      <trkpt lat="45.5875310" lon="9.1540420">
        <ele>176.8000000</ele>
        <time>2009-12-27T09:40:21Z</time>
      </trkpt>
      <trkpt lat="45.5875890" lon="9.1542640">
        <ele>177.8000000</ele>
        <time>2009-12-27T09:40:26Z</time>
      </trkpt>
      <trkpt lat="45.5876760" lon="9.1547780">
        <ele>180.4000000</ele>
        <time>2009-12-27T09:40:37Z</time>
      </trkpt>
      <trkpt lat="45.5877310" lon="9.1552910">
        <ele>181.0000000</ele>
        <time>2009-12-27T09:40:58Z</time>
      </trkpt>
      <trkpt lat="45.5880230" lon="9.1554770">
        <ele>177.8000000</ele>
        <time>2009-12-27T09:41:36Z</time>
      </trkpt>
      <trkpt lat="45.5878910" lon="9.1552150">
        <ele>174.8000000</ele>
        <time>2009-12-27T09:42:22Z</time>
      </trkpt>
      <trkpt lat="45.5875190" lon="9.1553520">
        <ele>171.8000000</ele>
        <time>2009-12-27T09:42:35Z</time>
      </trkpt>
      <trkpt lat="45.5874630" lon="9.1555040">
        <ele>170.8000000</ele>
        <time>2009-12-27T09:42:39Z</time>
      </trkpt>
      <trkpt lat="45.5874850" lon="9.1558130">
        <ele>171.8000000</ele>
        <time>2009-12-27T09:42:48Z</time>
      </trkpt>
      <trkpt lat="45.5875010" lon="9.1558370">
        <ele>172.0000000</ele>
        <time>2009-12-27T09:42:49Z</time>
      </trkpt>
      <trkpt lat="45.5876090" lon="9.1559040">
        <ele>173.2000000</ele>
        <time>2009-12-27T09:42:53Z</time>
      </trkpt>
      <trkpt lat="45.5878000" lon="9.1561340">
        <ele>174.2000000</ele>
        <time>2009-12-27T09:43:00Z</time>
      </trkpt>
      <trkpt lat="45.5878100" lon="9.1561830">
        <ele>174.4000000</ele>
        <time>2009-12-27T09:43:01Z</time>
      </trkpt>
      <trkpt lat="45.5876620" lon="9.1563660">
        <ele>175.6000000</ele>
        <time>2009-12-27T09:43:09Z</time>
      </trkpt>
      <trkpt lat="45.5875470" lon="9.1563920">
        <ele>175.4000000</ele>
        <time>2009-12-27T09:43:13Z</time>
      </trkpt>
      <trkpt lat="45.5873730" lon="9.1564310">
        <ele>176.2000000</ele>
        <time>2009-12-27T09:43:20Z</time>
      </trkpt>
      <trkpt lat="45.5873580" lon="9.1567040">
        <ele>175.2000000</ele>
        <time>2009-12-27T09:43:25Z</time>
      </trkpt>
      <trkpt lat="45.5872730" lon="9.1572380">
        <ele>174.4000000</ele>
        <time>2009-12-27T09:43:33Z</time>
      </trkpt>
      <trkpt lat="45.5871510" lon="9.1577680">
        <ele>174.2000000</ele>
        <time>2009-12-27T09:43:42Z</time>
      </trkpt>
      <trkpt lat="45.5871230" lon="9.1583110">
        <ele>174.8000000</ele>
        <time>2009-12-27T09:43:51Z</time>
      </trkpt>
      <trkpt lat="45.5871370" lon="9.1586820">
        <ele>176.4000000</ele>
        <time>2009-12-27T09:43:59Z</time>
      </trkpt>
      <trkpt lat="45.5871890" lon="9.1586740">
        <ele>176.6000000</ele>
        <time>2009-12-27T09:44:03Z</time>
      </trkpt>
      <trkpt lat="45.5872590" lon="9.1586630">
        <ele>176.6000000</ele>
        <time>2009-12-27T09:44:06Z</time>
      </trkpt>
      <trkpt lat="45.5873100" lon="9.1586940">
        <ele>176.4000000</ele>
        <time>2009-12-27T09:44:08Z</time>
      </trkpt>
      <trkpt lat="45.5873110" lon="9.1588570">
        <ele>175.8000000</ele>
        <time>2009-12-27T09:44:12Z</time>
      </trkpt>
      <trkpt lat="45.5873260" lon="9.1591380">
        <ele>175.6000000</ele>
        <time>2009-12-27T09:44:17Z</time>
      </trkpt>
      <trkpt lat="45.5873760" lon="9.1596970">
        <ele>175.2000000</ele>
        <time>2009-12-27T09:44:26Z</time>
      </trkpt>
      <trkpt lat="45.5874430" lon="9.1602200">
        <ele>175.2000000</ele>
        <time>2009-12-27T09:44:34Z</time>
      </trkpt>
      <trkpt lat="45.5875220" lon="9.1607300">
        <ele>175.2000000</ele>
        <time>2009-12-27T09:44:42Z</time>
      </trkpt>
      <trkpt lat="45.5876020" lon="9.1612480">
        <ele>176.2000000</ele>
        <time>2009-12-27T09:44:50Z</time>
      </trkpt>
      <trkpt lat="45.5876850" lon="9.1617630">
        <ele>176.8000000</ele>
        <time>2009-12-27T09:44:58Z</time>
      </trkpt>
      <trkpt lat="45.5878100" lon="9.1622960">
        <ele>176.2000000</ele>
        <time>2009-12-27T09:45:07Z</time>
      </trkpt>
      <trkpt lat="45.5878920" lon="9.1628290">
        <ele>175.8000000</ele>
        <time>2009-12-27T09:45:19Z</time>
      </trkpt>
      <trkpt lat="45.5879600" lon="9.1633400">
        <ele>176.8000000</ele>
        <time>2009-12-27T09:45:29Z</time>
      </trkpt>
      <trkpt lat="45.5881040" lon="9.1638240">
        <ele>176.6000000</ele>
        <time>2009-12-27T09:45:39Z</time>
      </trkpt>
      <trkpt lat="45.5881790" lon="9.1643850">
        <ele>175.4000000</ele>
        <time>2009-12-27T09:45:48Z</time>
      </trkpt>
      <trkpt lat="45.5882080" lon="9.1648670">
        <ele>174.8000000</ele>
        <time>2009-12-27T09:45:56Z</time>
      </trkpt>
      <trkpt lat="45.5882000" lon="9.1649080">
        <ele>174.8000000</ele>
        <time>2009-12-27T09:45:57Z</time>
      </trkpt>
      <trkpt lat="45.5880360" lon="9.1653750">
        <ele>174.2000000</ele>
        <time>2009-12-27T09:46:10Z</time>
      </trkpt>
      <trkpt lat="45.5878160" lon="9.1658160">
        <ele>173.0000000</ele>
        <time>2009-12-27T09:46:20Z</time>
      </trkpt>
      <trkpt lat="45.5874520" lon="9.1659960">
        <ele>172.0000000</ele>
        <time>2009-12-27T09:46:29Z</time>
      </trkpt>
      <trkpt lat="45.5871930" lon="9.1661540">
        <ele>171.0000000</ele>
        <time>2009-12-27T09:46:35Z</time>
      </trkpt>
      <trkpt lat="45.5871220" lon="9.1662300">
        <ele>171.4000000</ele>
        <time>2009-12-27T09:46:37Z</time>
      </trkpt>
      <trkpt lat="45.5869610" lon="9.1667230">
        <ele>171.4000000</ele>
        <time>2009-12-27T09:46:46Z</time>
      </trkpt>
      <trkpt lat="45.5869140" lon="9.1668720">
        <ele>171.6000000</ele>
        <time>2009-12-27T09:46:49Z</time>
      </trkpt>
      <trkpt lat="45.5869100" lon="9.1669300">
        <ele>171.6000000</ele>
        <time>2009-12-27T09:46:50Z</time>
      </trkpt>
      <trkpt lat="45.5869010" lon="9.1671720">
        <ele>172.4000000</ele>
        <time>2009-12-27T09:46:54Z</time>
      </trkpt>
      <trkpt lat="45.5869080" lon="9.1672280">
        <ele>172.6000000</ele>
        <time>2009-12-27T09:46:55Z</time>
      </trkpt>
      <trkpt lat="45.5869170" lon="9.1672840">
        <ele>172.6000000</ele>
        <time>2009-12-27T09:46:56Z</time>
      </trkpt>
      <trkpt lat="45.5870240" lon="9.1677540">
        <ele>173.8000000</ele>
        <time>2009-12-27T09:47:07Z</time>
      </trkpt>
      <trkpt lat="45.5871380" lon="9.1682510">
        <ele>174.2000000</ele>
        <time>2009-12-27T09:47:17Z</time>
      </trkpt>
      <trkpt lat="45.5872640" lon="9.1687950">
        <ele>174.8000000</ele>
        <time>2009-12-27T09:47:26Z</time>
      </trkpt>
      <trkpt lat="45.5873790" lon="9.1692840">
        <ele>175.4000000</ele>
        <time>2009-12-27T09:47:34Z</time>
      </trkpt>
      <trkpt lat="45.5874960" lon="9.1697750">
        <ele>176.0000000</ele>
        <time>2009-12-27T09:47:42Z</time>
      </trkpt>
      <trkpt lat="45.5876170" lon="9.1702700">
        <ele>177.2000000</ele>
        <time>2009-12-27T09:47:50Z</time>
      </trkpt>
      <trkpt lat="45.5877270" lon="9.1707720">
        <ele>177.0000000</ele>
        <time>2009-12-27T09:47:58Z</time>
      </trkpt>
      <trkpt lat="45.5878390" lon="9.1712610">
        <ele>177.0000000</ele>
        <time>2009-12-27T09:48:06Z</time>
      </trkpt>
      <trkpt lat="45.5879130" lon="9.1718040">
        <ele>177.2000000</ele>
        <time>2009-12-27T09:48:15Z</time>
      </trkpt>
      <trkpt lat="45.5879080" lon="9.1723620">
        <ele>176.2000000</ele>
        <time>2009-12-27T09:48:24Z</time>
      </trkpt>
      <trkpt lat="45.5878180" lon="9.1729150">
        <ele>175.4000000</ele>
        <time>2009-12-27T09:48:33Z</time>
      </trkpt>
      <trkpt lat="45.5876640" lon="9.1734440">
        <ele>175.2000000</ele>
        <time>2009-12-27T09:48:42Z</time>
      </trkpt>
      <trkpt lat="45.5875310" lon="9.1739350">
        <ele>175.0000000</ele>
        <time>2009-12-27T09:48:51Z</time>
      </trkpt>
      <trkpt lat="45.5875220" lon="9.1739750">
        <ele>174.8000000</ele>
        <time>2009-12-27T09:48:52Z</time>
      </trkpt>
      <trkpt lat="45.5876140" lon="9.1744280">
        <ele>174.2000000</ele>
        <time>2009-12-27T09:49:02Z</time>
      </trkpt>
      <trkpt lat="45.5875590" lon="9.1745900">
        <ele>177.6000000</ele>
        <time>2009-12-27T09:49:07Z</time>
      </trkpt>
      <trkpt lat="45.5873280" lon="9.1745670">
        <ele>181.6000000</ele>
        <time>2009-12-27T09:49:12Z</time>
      </trkpt>
      <trkpt lat="45.5873120" lon="9.1745970">
        <ele>181.4000000</ele>
        <time>2009-12-27T09:49:13Z</time>
      </trkpt>
      <trkpt lat="45.5872770" lon="9.1746760">
        <ele>181.6000000</ele>
        <time>2009-12-27T09:49:15Z</time>
      </trkpt>
      <trkpt lat="45.5871230" lon="9.1751650">
        <ele>177.8000000</ele>
        <time>2009-12-27T09:49:25Z</time>
      </trkpt>
      <trkpt lat="45.5869710" lon="9.1756690">
        <ele>176.0000000</ele>
        <time>2009-12-27T09:49:34Z</time>
      </trkpt>
      <trkpt lat="45.5869140" lon="9.1758760">
        <ele>175.4000000</ele>
        <time>2009-12-27T09:49:38Z</time>
      </trkpt>
      <trkpt lat="45.5868940" lon="9.1761650">
        <ele>175.6000000</ele>
        <time>2009-12-27T09:49:43Z</time>
      </trkpt>
      <trkpt lat="45.5868220" lon="9.1766780">
        <ele>174.6000000</ele>
        <time>2009-12-27T09:49:52Z</time>
      </trkpt>
      <trkpt lat="45.5868360" lon="9.1772350">
        <ele>174.8000000</ele>
        <time>2009-12-27T09:50:01Z</time>
      </trkpt>
      <trkpt lat="45.5868970" lon="9.1777860">
        <ele>176.6000000</ele>
        <time>2009-12-27T09:50:10Z</time>
      </trkpt>
      <trkpt lat="45.5869960" lon="9.1782890">
        <ele>177.2000000</ele>
        <time>2009-12-27T09:50:19Z</time>
      </trkpt>
      <trkpt lat="45.5871380" lon="9.1787900">
        <ele>176.4000000</ele>
        <time>2009-12-27T09:50:27Z</time>
      </trkpt>
      <trkpt lat="45.5872640" lon="9.1792990">
        <ele>177.0000000</ele>
        <time>2009-12-27T09:50:35Z</time>
      </trkpt>
      <trkpt lat="45.5873810" lon="9.1798460">
        <ele>177.8000000</ele>
        <time>2009-12-27T09:50:45Z</time>
      </trkpt>
      <trkpt lat="45.5874980" lon="9.1803700">
        <ele>178.2000000</ele>
        <time>2009-12-27T09:50:55Z</time>
      </trkpt>
      <trkpt lat="45.5876110" lon="9.1809050">
        <ele>178.4000000</ele>
        <time>2009-12-27T09:51:05Z</time>
      </trkpt>
      <trkpt lat="45.5877280" lon="9.1814490">
        <ele>179.2000000</ele>
        <time>2009-12-27T09:51:15Z</time>
      </trkpt>
      <trkpt lat="45.5878240" lon="9.1819570">
        <ele>179.2000000</ele>
        <time>2009-12-27T09:51:24Z</time>
      </trkpt>
      <trkpt lat="45.5879130" lon="9.1824820">
        <ele>179.4000000</ele>
        <time>2009-12-27T09:51:33Z</time>
      </trkpt>
      <trkpt lat="45.5880270" lon="9.1830020">
        <ele>179.6000000</ele>
        <time>2009-12-27T09:51:42Z</time>
      </trkpt>
      <trkpt lat="45.5881340" lon="9.1834990">
        <ele>179.6000000</ele>
        <time>2009-12-27T09:51:51Z</time>
      </trkpt>
      <trkpt lat="45.5882440" lon="9.1839980">
        <ele>179.4000000</ele>
        <time>2009-12-27T09:52:00Z</time>
      </trkpt>
      <trkpt lat="45.5883480" lon="9.1844910">
        <ele>179.6000000</ele>
        <time>2009-12-27T09:52:09Z</time>
      </trkpt>
      <trkpt lat="45.5884650" lon="9.1850330">
        <ele>179.4000000</ele>
        <time>2009-12-27T09:52:19Z</time>
      </trkpt>
      <trkpt lat="45.5885680" lon="9.1855180">
        <ele>179.4000000</ele>
        <time>2009-12-27T09:52:28Z</time>
      </trkpt>
      <trkpt lat="45.5887100" lon="9.1860310">
        <ele>179.8000000</ele>
        <time>2009-12-27T09:52:38Z</time>
      </trkpt>
      <trkpt lat="45.5887680" lon="9.1865640">
        <ele>180.2000000</ele>
        <time>2009-12-27T09:52:52Z</time>
      </trkpt>
      <trkpt lat="45.5888780" lon="9.1870480">
        <ele>180.2000000</ele>
        <time>2009-12-27T09:53:06Z</time>
      </trkpt>
      <trkpt lat="45.5889830" lon="9.1875690">
        <ele>180.2000000</ele>
        <time>2009-12-27T09:53:13Z</time>
      </trkpt>
      <trkpt lat="45.5890930" lon="9.1881060">
        <ele>180.2000000</ele>
        <time>2009-12-27T09:53:20Z</time>
      </trkpt>
      <trkpt lat="45.5891950" lon="9.1886200">
        <ele>180.2000000</ele>
        <time>2009-12-27T09:53:27Z</time>
      </trkpt>
      <trkpt lat="45.5893110" lon="9.1891700">
        <ele>179.6000000</ele>
        <time>2009-12-27T09:53:36Z</time>
      </trkpt>
      <trkpt lat="45.5894320" lon="9.1897320">
        <ele>178.4000000</ele>
        <time>2009-12-27T09:53:43Z</time>
      </trkpt>
      <trkpt lat="45.5895400" lon="9.1902430">
        <ele>178.4000000</ele>
        <time>2009-12-27T09:53:49Z</time>
      </trkpt>
      <trkpt lat="45.5896490" lon="9.1907940">
        <ele>178.4000000</ele>
        <time>2009-12-27T09:53:56Z</time>
      </trkpt>
      <trkpt lat="45.5896740" lon="9.1909990">
        <ele>178.2000000</ele>
        <time>2009-12-27T09:53:59Z</time>
      </trkpt>
      <trkpt lat="45.5896500" lon="9.1913040">
        <ele>178.2000000</ele>
        <time>2009-12-27T09:54:03Z</time>
      </trkpt>
      <trkpt lat="45.5894940" lon="9.1918130">
        <ele>176.8000000</ele>
        <time>2009-12-27T09:54:10Z</time>
      </trkpt>
      <trkpt lat="45.5892690" lon="9.1921380">
        <ele>173.6000000</ele>
        <time>2009-12-27T09:54:16Z</time>
      </trkpt>
      <trkpt lat="45.5892210" lon="9.1921770">
        <ele>173.2000000</ele>
        <time>2009-12-27T09:54:17Z</time>
      </trkpt>
      <trkpt lat="45.5890690" lon="9.1922830">
        <ele>172.0000000</ele>
        <time>2009-12-27T09:54:20Z</time>
      </trkpt>
      <trkpt lat="45.5888570" lon="9.1923730">
        <ele>172.2000000</ele>
        <time>2009-12-27T09:54:24Z</time>
      </trkpt>
      <trkpt lat="45.5888100" lon="9.1923910">
        <ele>172.2000000</ele>
        <time>2009-12-27T09:54:25Z</time>
      </trkpt>
      <trkpt lat="45.5884760" lon="9.1924670">
        <ele>171.4000000</ele>
        <time>2009-12-27T09:54:36Z</time>
      </trkpt>
      <trkpt lat="45.5880960" lon="9.1925180">
        <ele>170.8000000</ele>
        <time>2009-12-27T09:54:43Z</time>
      </trkpt>
      <trkpt lat="45.5880410" lon="9.1925400">
        <ele>170.8000000</ele>
        <time>2009-12-27T09:54:44Z</time>
      </trkpt>
      <trkpt lat="45.5877920" lon="9.1927220">
        <ele>169.4000000</ele>
        <time>2009-12-27T09:54:49Z</time>
      </trkpt>
      <trkpt lat="45.5877490" lon="9.1927700">
        <ele>169.2000000</ele>
        <time>2009-12-27T09:54:50Z</time>
      </trkpt>
      <trkpt lat="45.5875910" lon="9.1929950">
        <ele>169.4000000</ele>
        <time>2009-12-27T09:54:54Z</time>
      </trkpt>
      <trkpt lat="45.5875070" lon="9.1932080">
        <ele>170.2000000</ele>
        <time>2009-12-27T09:54:57Z</time>
      </trkpt>
      <trkpt lat="45.5874550" lon="9.1934400">
        <ele>170.8000000</ele>
        <time>2009-12-27T09:55:00Z</time>
      </trkpt>
      <trkpt lat="45.5874020" lon="9.1937500">
        <ele>171.0000000</ele>
        <time>2009-12-27T09:55:04Z</time>
      </trkpt>
      <trkpt lat="45.5873140" lon="9.1942540">
        <ele>171.8000000</ele>
        <time>2009-12-27T09:55:10Z</time>
      </trkpt>
      <trkpt lat="45.5872250" lon="9.1947620">
        <ele>173.6000000</ele>
        <time>2009-12-27T09:55:17Z</time>
      </trkpt>
      <trkpt lat="45.5872100" lon="9.1948680">
        <ele>174.2000000</ele>
        <time>2009-12-27T09:55:19Z</time>
      </trkpt>
      <trkpt lat="45.5870390" lon="9.1949860">
        <ele>173.2000000</ele>
        <time>2009-12-27T09:55:28Z</time>
      </trkpt>
      <trkpt lat="45.5870300" lon="9.1950390">
        <ele>173.0000000</ele>
        <time>2009-12-27T09:55:29Z</time>
      </trkpt>
      <trkpt lat="45.5869390" lon="9.1956010">
        <ele>171.4000000</ele>
        <time>2009-12-27T09:55:37Z</time>
      </trkpt>
      <trkpt lat="45.5869190" lon="9.1956790">
        <ele>171.2000000</ele>
        <time>2009-12-27T09:55:38Z</time>
      </trkpt>
      <trkpt lat="45.5868090" lon="9.1960920">
        <ele>170.8000000</ele>
        <time>2009-12-27T09:55:49Z</time>
      </trkpt>
      <trkpt lat="45.5868100" lon="9.1961480">
        <ele>171.2000000</ele>
        <time>2009-12-27T09:55:59Z</time>
      </trkpt>
      <trkpt lat="45.5867190" lon="9.1964130">
        <ele>170.0000000</ele>
        <time>2009-12-27T09:56:10Z</time>
      </trkpt>
      <trkpt lat="45.5867040" lon="9.1965740">
        <ele>169.6000000</ele>
        <time>2009-12-27T09:56:14Z</time>
      </trkpt>
      <trkpt lat="45.5866670" lon="9.1970960">
        <ele>169.8000000</ele>
        <time>2009-12-27T09:56:25Z</time>
      </trkpt>
      <trkpt lat="45.5866420" lon="9.1976700">
        <ele>170.2000000</ele>
        <time>2009-12-27T09:56:34Z</time>
      </trkpt>
      <trkpt lat="45.5866390" lon="9.1979910">
        <ele>171.0000000</ele>
        <time>2009-12-27T09:56:39Z</time>
      </trkpt>
      <trkpt lat="45.5866700" lon="9.1982390">
        <ele>172.2000000</ele>
        <time>2009-12-27T09:56:43Z</time>
      </trkpt>
      <trkpt lat="45.5867540" lon="9.1987540">
        <ele>173.4000000</ele>
        <time>2009-12-27T09:56:53Z</time>
      </trkpt>
      <trkpt lat="45.5868270" lon="9.1993060">
        <ele>173.6000000</ele>
        <time>2009-12-27T09:57:03Z</time>
      </trkpt>
      <trkpt lat="45.5869010" lon="9.1998150">
        <ele>174.8000000</ele>
        <time>2009-12-27T09:57:15Z</time>
      </trkpt>
      <trkpt lat="45.5869740" lon="9.2003510">
        <ele>175.4000000</ele>
        <time>2009-12-27T09:57:24Z</time>
      </trkpt>
      <trkpt lat="45.5870330" lon="9.2008760">
        <ele>175.2000000</ele>
        <time>2009-12-27T09:57:33Z</time>
      </trkpt>
      <trkpt lat="45.5870470" lon="9.2010310">
        <ele>174.8000000</ele>
        <time>2009-12-27T09:57:36Z</time>
      </trkpt>
      <trkpt lat="45.5870450" lon="9.2011770">
        <ele>175.0000000</ele>
        <time>2009-12-27T09:57:40Z</time>
      </trkpt>
      <trkpt lat="45.5870380" lon="9.2014020">
        <ele>176.2000000</ele>
        <time>2009-12-27T09:57:45Z</time>
      </trkpt>
      <trkpt lat="45.5870340" lon="9.2019810">
        <ele>176.0000000</ele>
        <time>2009-12-27T09:57:55Z</time>
      </trkpt>
      <trkpt lat="45.5870270" lon="9.2020430">
        <ele>176.0000000</ele>
        <time>2009-12-27T09:57:56Z</time>
      </trkpt>
      <trkpt lat="45.5870130" lon="9.2024940">
        <ele>175.0000000</ele>
        <time>2009-12-27T09:58:03Z</time>
      </trkpt>
      <trkpt lat="45.5870250" lon="9.2030520">
        <ele>175.2000000</ele>
        <time>2009-12-27T09:58:11Z</time>
      </trkpt>
      <trkpt lat="45.5870580" lon="9.2035060">
        <ele>176.6000000</ele>
        <time>2009-12-27T09:58:19Z</time>
      </trkpt>
      <trkpt lat="45.5870580" lon="9.2035930">
        <ele>176.2000000</ele>
        <time>2009-12-27T09:58:23Z</time>
      </trkpt>
      <trkpt lat="45.5870670" lon="9.2041370">
        <ele>176.4000000</ele>
        <time>2009-12-27T09:58:34Z</time>
      </trkpt>
      <trkpt lat="45.5871090" lon="9.2046540">
        <ele>177.6000000</ele>
        <time>2009-12-27T09:58:43Z</time>
      </trkpt>
      <trkpt lat="45.5871560" lon="9.2051890">
        <ele>178.4000000</ele>
        <time>2009-12-27T09:58:52Z</time>
      </trkpt>
      <trkpt lat="45.5871670" lon="9.2053520">
        <ele>178.0000000</ele>
        <time>2009-12-27T09:58:55Z</time>
      </trkpt>
      <trkpt lat="45.5872520" lon="9.2056690">
        <ele>176.0000000</ele>
        <time>2009-12-27T09:59:24Z</time>
      </trkpt>
      <trkpt lat="45.5872970" lon="9.2061710">
        <ele>176.6000000</ele>
        <time>2009-12-27T09:59:45Z</time>
      </trkpt>
      <trkpt lat="45.5873420" lon="9.2066830">
        <ele>175.0000000</ele>
        <time>2009-12-27T09:59:58Z</time>
      </trkpt>
      <trkpt lat="45.5872970" lon="9.2071870">
        <ele>174.6000000</ele>
        <time>2009-12-27T10:00:12Z</time>
      </trkpt>
      <trkpt lat="45.5871040" lon="9.2076280">
        <ele>175.2000000</ele>
        <time>2009-12-27T10:00:23Z</time>
      </trkpt>
      <trkpt lat="45.5868010" lon="9.2079040">
        <ele>172.6000000</ele>
        <time>2009-12-27T10:00:32Z</time>
      </trkpt>
      <trkpt lat="45.5866740" lon="9.2079480">
        <ele>170.4000000</ele>
        <time>2009-12-27T10:00:35Z</time>
      </trkpt>
      <trkpt lat="45.5865950" lon="9.2079730">
        <ele>168.4000000</ele>
        <time>2009-12-27T10:00:37Z</time>
      </trkpt>
      <trkpt lat="45.5864250" lon="9.2080270">
        <ele>167.8000000</ele>
        <time>2009-12-27T10:00:41Z</time>
      </trkpt>
      <trkpt lat="45.5863170" lon="9.2080470">
        <ele>166.6000000</ele>
        <time>2009-12-27T10:00:44Z</time>
      </trkpt>
      <trkpt lat="45.5861230" lon="9.2081210">
        <ele>165.0000000</ele>
        <time>2009-12-27T10:00:58Z</time>
      </trkpt>
      <trkpt lat="45.5861280" lon="9.2081490">
        <ele>165.0000000</ele>
        <time>2009-12-27T10:00:59Z</time>
      </trkpt>
      <trkpt lat="45.5861420" lon="9.2082890">
        <ele>165.2000000</ele>
        <time>2009-12-27T10:01:04Z</time>
      </trkpt>
      <trkpt lat="45.5860310" lon="9.2083300">
        <ele>164.6000000</ele>
        <time>2009-12-27T10:01:09Z</time>
      </trkpt>
      <trkpt lat="45.5858710" lon="9.2083710">
        <ele>164.6000000</ele>
        <time>2009-12-27T10:01:13Z</time>
      </trkpt>
      <trkpt lat="45.5855270" lon="9.2085590">
        <ele>165.4000000</ele>
        <time>2009-12-27T10:01:22Z</time>
      </trkpt>
      <trkpt lat="45.5854930" lon="9.2085890">
        <ele>165.2000000</ele>
        <time>2009-12-27T10:01:23Z</time>
      </trkpt>
      <trkpt lat="45.5853060" lon="9.2088460">
        <ele>164.6000000</ele>
        <time>2009-12-27T10:01:29Z</time>
      </trkpt>
      <trkpt lat="45.5852610" lon="9.2089600">
        <ele>164.4000000</ele>
        <time>2009-12-27T10:01:31Z</time>
      </trkpt>
      <trkpt lat="45.5852320" lon="9.2090870">
        <ele>164.0000000</ele>
        <time>2009-12-27T10:01:33Z</time>
      </trkpt>
      <trkpt lat="45.5851720" lon="9.2094850">
        <ele>162.6000000</ele>
        <time>2009-12-27T10:01:39Z</time>
      </trkpt>
      <trkpt lat="45.5851490" lon="9.2098160">
        <ele>163.6000000</ele>
        <time>2009-12-27T10:01:44Z</time>
      </trkpt>
      <trkpt lat="45.5851700" lon="9.2100020">
        <ele>164.8000000</ele>
        <time>2009-12-27T10:01:47Z</time>
      </trkpt>
      <trkpt lat="45.5852560" lon="9.2105060">
        <ele>166.2000000</ele>
        <time>2009-12-27T10:01:55Z</time>
      </trkpt>
      <trkpt lat="45.5853220" lon="9.2108860">
        <ele>167.0000000</ele>
        <time>2009-12-27T10:02:01Z</time>
      </trkpt>
      <trkpt lat="45.5853630" lon="9.2110160">
        <ele>167.2000000</ele>
        <time>2009-12-27T10:02:03Z</time>
      </trkpt>
      <trkpt lat="45.5854520" lon="9.2115280">
        <ele>167.6000000</ele>
        <time>2009-12-27T10:02:10Z</time>
      </trkpt>
      <trkpt lat="45.5855290" lon="9.2120570">
        <ele>168.2000000</ele>
        <time>2009-12-27T10:02:17Z</time>
      </trkpt>
      <trkpt lat="45.5855960" lon="9.2125850">
        <ele>168.6000000</ele>
        <time>2009-12-27T10:02:24Z</time>
      </trkpt>
      <trkpt lat="45.5856820" lon="9.2131060">
        <ele>168.4000000</ele>
        <time>2009-12-27T10:02:31Z</time>
      </trkpt>
      <trkpt lat="45.5857600" lon="9.2136160">
        <ele>168.6000000</ele>
        <time>2009-12-27T10:02:38Z</time>
      </trkpt>
      <trkpt lat="45.5857770" lon="9.2137490">
        <ele>168.6000000</ele>
        <time>2009-12-27T10:02:40Z</time>
      </trkpt>
      <trkpt lat="45.5857920" lon="9.2139400">
        <ele>169.2000000</ele>
        <time>2009-12-27T10:02:43Z</time>
      </trkpt>
      <trkpt lat="45.5858200" lon="9.2141320">
        <ele>169.4000000</ele>
        <time>2009-12-27T10:02:46Z</time>
      </trkpt>
      <trkpt lat="45.5859000" lon="9.2146500">
        <ele>169.0000000</ele>
        <time>2009-12-27T10:02:54Z</time>
      </trkpt>
      <trkpt lat="45.5859830" lon="9.2151800">
        <ele>168.8000000</ele>
        <time>2009-12-27T10:03:02Z</time>
      </trkpt>
      <trkpt lat="45.5860620" lon="9.2156830">
        <ele>168.6000000</ele>
        <time>2009-12-27T10:03:10Z</time>
      </trkpt>
      <trkpt lat="45.5861290" lon="9.2160930">
        <ele>169.2000000</ele>
        <time>2009-12-27T10:03:17Z</time>
      </trkpt>
      <trkpt lat="45.5861490" lon="9.2162100">
        <ele>169.2000000</ele>
        <time>2009-12-27T10:03:19Z</time>
      </trkpt>
      <trkpt lat="45.5861640" lon="9.2163290">
        <ele>169.2000000</ele>
        <time>2009-12-27T10:03:21Z</time>
      </trkpt>
      <trkpt lat="45.5862360" lon="9.2167390">
        <ele>169.0000000</ele>
        <time>2009-12-27T10:03:28Z</time>
      </trkpt>
      <trkpt lat="45.5861490" lon="9.2168960">
        <ele>167.8000000</ele>
        <time>2009-12-27T10:03:38Z</time>
      </trkpt>
      <trkpt lat="45.5861850" lon="9.2171800">
        <ele>167.0000000</ele>
        <time>2009-12-27T10:03:45Z</time>
      </trkpt>
      <trkpt lat="45.5862230" lon="9.2176790">
        <ele>167.2000000</ele>
        <time>2009-12-27T10:03:53Z</time>
      </trkpt>
      <trkpt lat="45.5863050" lon="9.2182310">
        <ele>167.2000000</ele>
        <time>2009-12-27T10:04:01Z</time>
      </trkpt>
      <trkpt lat="45.5863820" lon="9.2187930">
        <ele>167.6000000</ele>
        <time>2009-12-27T10:04:09Z</time>
      </trkpt>
      <trkpt lat="45.5864680" lon="9.2193400">
        <ele>167.8000000</ele>
        <time>2009-12-27T10:04:17Z</time>
      </trkpt>
      <trkpt lat="45.5865630" lon="9.2198720">
        <ele>168.6000000</ele>
        <time>2009-12-27T10:04:25Z</time>
      </trkpt>
      <trkpt lat="45.5866350" lon="9.2201190">
        <ele>169.4000000</ele>
        <time>2009-12-27T10:04:29Z</time>
      </trkpt>
      <trkpt lat="45.5866280" lon="9.2203320">
        <ele>169.8000000</ele>
        <time>2009-12-27T10:04:32Z</time>
      </trkpt>
      <trkpt lat="45.5866280" lon="9.2203910">
        <ele>170.2000000</ele>
        <time>2009-12-27T10:04:33Z</time>
      </trkpt>
      <trkpt lat="45.5866260" lon="9.2205170">
        <ele>170.4000000</ele>
        <time>2009-12-27T10:04:35Z</time>
      </trkpt>
      <trkpt lat="45.5865440" lon="9.2208880">
        <ele>168.8000000</ele>
        <time>2009-12-27T10:04:41Z</time>
      </trkpt>
      <trkpt lat="45.5863400" lon="9.2213620">
        <ele>167.6000000</ele>
        <time>2009-12-27T10:04:49Z</time>
      </trkpt>
      <trkpt lat="45.5860670" lon="9.2217390">
        <ele>166.6000000</ele>
        <time>2009-12-27T10:04:57Z</time>
      </trkpt>
      <trkpt lat="45.5860090" lon="9.2218240">
        <ele>166.2000000</ele>
        <time>2009-12-27T10:04:59Z</time>
      </trkpt>
      <trkpt lat="45.5859470" lon="9.2219250">
        <ele>165.6000000</ele>
        <time>2009-12-27T10:05:02Z</time>
      </trkpt>
      <trkpt lat="45.5857600" lon="9.2219630">
        <ele>164.2000000</ele>
        <time>2009-12-27T10:05:08Z</time>
      </trkpt>
      <trkpt lat="45.5856390" lon="9.2220020">
        <ele>163.4000000</ele>
        <time>2009-12-27T10:05:16Z</time>
      </trkpt>
      <trkpt lat="45.5856970" lon="9.2221370">
        <ele>164.0000000</ele>
        <time>2009-12-27T10:05:23Z</time>
      </trkpt>
      <trkpt lat="45.5857240" lon="9.2223340">
        <ele>163.8000000</ele>
        <time>2009-12-27T10:05:29Z</time>
      </trkpt>
      <trkpt lat="45.5856940" lon="9.2227560">
        <ele>164.2000000</ele>
        <time>2009-12-27T10:05:47Z</time>
      </trkpt>
      <trkpt lat="45.5857120" lon="9.2228420">
        <ele>164.4000000</ele>
        <time>2009-12-27T10:05:49Z</time>
      </trkpt>
      <trkpt lat="45.5857200" lon="9.2229350">
        <ele>164.6000000</ele>
        <time>2009-12-27T10:05:51Z</time>
      </trkpt>
      <trkpt lat="45.5857800" lon="9.2233760">
        <ele>165.0000000</ele>
        <time>2009-12-27T10:06:01Z</time>
      </trkpt>
      <trkpt lat="45.5858660" lon="9.2236190">
        <ele>165.4000000</ele>
        <time>2009-12-27T10:06:07Z</time>
      </trkpt>
      <trkpt lat="45.5859010" lon="9.2238570">
        <ele>166.0000000</ele>
        <time>2009-12-27T10:06:12Z</time>
      </trkpt>
      <trkpt lat="45.5859720" lon="9.2244130">
        <ele>166.2000000</ele>
        <time>2009-12-27T10:06:22Z</time>
      </trkpt>
      <trkpt lat="45.5860270" lon="9.2248880">
        <ele>166.2000000</ele>
        <time>2009-12-27T10:06:30Z</time>
      </trkpt>
      <trkpt lat="45.5860380" lon="9.2249450">
        <ele>166.2000000</ele>
        <time>2009-12-27T10:06:31Z</time>
      </trkpt>
      <trkpt lat="45.5861080" lon="9.2254830">
        <ele>166.6000000</ele>
        <time>2009-12-27T10:06:40Z</time>
      </trkpt>
      <trkpt lat="45.5861750" lon="9.2260320">
        <ele>167.0000000</ele>
        <time>2009-12-27T10:06:49Z</time>
      </trkpt>
      <trkpt lat="45.5862390" lon="9.2265720">
        <ele>168.0000000</ele>
        <time>2009-12-27T10:06:58Z</time>
      </trkpt>
      <trkpt lat="45.5863060" lon="9.2271140">
        <ele>168.0000000</ele>
        <time>2009-12-27T10:07:07Z</time>
      </trkpt>
      <trkpt lat="45.5863610" lon="9.2276420">
        <ele>172.8000000</ele>
        <time>2009-12-27T10:07:23Z</time>
      </trkpt>
      <trkpt lat="45.5863790" lon="9.2277690">
        <ele>173.4000000</ele>
        <time>2009-12-27T10:07:28Z</time>
      </trkpt>
      <trkpt lat="45.5864640" lon="9.2281830">
        <ele>171.6000000</ele>
        <time>2009-12-27T10:07:35Z</time>
      </trkpt>
      <trkpt lat="45.5865590" lon="9.2287090">
        <ele>171.0000000</ele>
        <time>2009-12-27T10:07:43Z</time>
      </trkpt>
      <trkpt lat="45.5866870" lon="9.2292090">
        <ele>170.2000000</ele>
        <time>2009-12-27T10:07:51Z</time>
      </trkpt>
      <trkpt lat="45.5867090" lon="9.2293240">
        <ele>169.8000000</ele>
        <time>2009-12-27T10:07:53Z</time>
      </trkpt>
      <trkpt lat="45.5867360" lon="9.2295060">
        <ele>169.0000000</ele>
        <time>2009-12-27T10:07:56Z</time>
      </trkpt>
      <trkpt lat="45.5867760" lon="9.2296340">
        <ele>168.6000000</ele>
        <time>2009-12-27T10:07:58Z</time>
      </trkpt>
      <trkpt lat="45.5868030" lon="9.2297030">
        <ele>168.6000000</ele>
        <time>2009-12-27T10:07:59Z</time>
      </trkpt>
      <trkpt lat="45.5870020" lon="9.2301950">
        <ele>169.0000000</ele>
        <time>2009-12-27T10:08:06Z</time>
      </trkpt>
      <trkpt lat="45.5871940" lon="9.2306630">
        <ele>168.8000000</ele>
        <time>2009-12-27T10:08:13Z</time>
      </trkpt>
      <trkpt lat="45.5872260" lon="9.2307250">
        <ele>168.8000000</ele>
        <time>2009-12-27T10:08:14Z</time>
      </trkpt>
      <trkpt lat="45.5874170" lon="9.2311130">
        <ele>169.0000000</ele>
        <time>2009-12-27T10:08:20Z</time>
      </trkpt>
      <trkpt lat="45.5876190" lon="9.2316200">
        <ele>169.6000000</ele>
        <time>2009-12-27T10:08:28Z</time>
      </trkpt>
      <trkpt lat="45.5877870" lon="9.2321020">
        <ele>171.2000000</ele>
        <time>2009-12-27T10:08:37Z</time>
      </trkpt>
      <trkpt lat="45.5878190" lon="9.2322210">
        <ele>171.2000000</ele>
        <time>2009-12-27T10:08:39Z</time>
      </trkpt>
      <trkpt lat="45.5879380" lon="9.2325690">
        <ele>171.6000000</ele>
        <time>2009-12-27T10:08:44Z</time>
      </trkpt>
      <trkpt lat="45.5880740" lon="9.2330670">
        <ele>172.4000000</ele>
        <time>2009-12-27T10:08:51Z</time>
      </trkpt>
      <trkpt lat="45.5881880" lon="9.2335620">
        <ele>173.2000000</ele>
        <time>2009-12-27T10:08:58Z</time>
      </trkpt>
      <trkpt lat="45.5883110" lon="9.2340780">
        <ele>173.6000000</ele>
        <time>2009-12-27T10:09:05Z</time>
      </trkpt>
      <trkpt lat="45.5884440" lon="9.2345910">
        <ele>174.0000000</ele>
        <time>2009-12-27T10:09:12Z</time>
      </trkpt>
      <trkpt lat="45.5885790" lon="9.2351120">
        <ele>174.6000000</ele>
        <time>2009-12-27T10:09:19Z</time>
      </trkpt>
      <trkpt lat="45.5886480" lon="9.2353170">
        <ele>174.8000000</ele>
        <time>2009-12-27T10:09:22Z</time>
      </trkpt>
      <trkpt lat="45.5887410" lon="9.2356340">
        <ele>175.4000000</ele>
        <time>2009-12-27T10:09:27Z</time>
      </trkpt>
      <trkpt lat="45.5888040" lon="9.2358410">
        <ele>175.2000000</ele>
        <time>2009-12-27T10:09:30Z</time>
      </trkpt>
      <trkpt lat="45.5888730" lon="9.2361190">
        <ele>174.0000000</ele>
        <time>2009-12-27T10:09:34Z</time>
      </trkpt>
      <trkpt lat="45.5889880" lon="9.2366290">
        <ele>173.4000000</ele>
        <time>2009-12-27T10:09:43Z</time>
      </trkpt>
      <trkpt lat="45.5889910" lon="9.2366640">
        <ele>173.4000000</ele>
        <time>2009-12-27T10:09:44Z</time>
      </trkpt>
      <trkpt lat="45.5889740" lon="9.2371520">
        <ele>174.0000000</ele>
        <time>2009-12-27T10:09:57Z</time>
      </trkpt>
      <trkpt lat="45.5888040" lon="9.2376200">
        <ele>173.6000000</ele>
        <time>2009-12-27T10:10:13Z</time>
      </trkpt>
      <trkpt lat="45.5885010" lon="9.2379570">
        <ele>170.8000000</ele>
        <time>2009-12-27T10:10:25Z</time>
      </trkpt>
      <trkpt lat="45.5881510" lon="9.2382410">
        <ele>170.0000000</ele>
        <time>2009-12-27T10:10:34Z</time>
      </trkpt>
      <trkpt lat="45.5878220" lon="9.2385110">
        <ele>169.2000000</ele>
        <time>2009-12-27T10:10:42Z</time>
      </trkpt>
      <trkpt lat="45.5876060" lon="9.2387260">
        <ele>168.6000000</ele>
        <time>2009-12-27T10:10:48Z</time>
      </trkpt>
      <trkpt lat="45.5875460" lon="9.2388030">
        <ele>168.4000000</ele>
        <time>2009-12-27T10:10:50Z</time>
      </trkpt>
      <trkpt lat="45.5875160" lon="9.2388540">
        <ele>169.0000000</ele>
        <time>2009-12-27T10:10:51Z</time>
      </trkpt>
      <trkpt lat="45.5873410" lon="9.2393300">
        <ele>170.4000000</ele>
        <time>2009-12-27T10:10:59Z</time>
      </trkpt>
      <trkpt lat="45.5873120" lon="9.2395130">
        <ele>170.2000000</ele>
        <time>2009-12-27T10:11:02Z</time>
      </trkpt>
      <trkpt lat="45.5873010" lon="9.2398530">
        <ele>168.8000000</ele>
        <time>2009-12-27T10:11:07Z</time>
      </trkpt>
      <trkpt lat="45.5874020" lon="9.2403860">
        <ele>171.8000000</ele>
        <time>2009-12-27T10:11:15Z</time>
      </trkpt>
      <trkpt lat="45.5875470" lon="9.2408780">
        <ele>174.0000000</ele>
        <time>2009-12-27T10:11:22Z</time>
      </trkpt>
      <trkpt lat="45.5876890" lon="9.2413620">
        <ele>175.2000000</ele>
        <time>2009-12-27T10:11:29Z</time>
      </trkpt>
      <trkpt lat="45.5878410" lon="9.2418600">
        <ele>176.8000000</ele>
        <time>2009-12-27T10:11:39Z</time>
      </trkpt>
      <trkpt lat="45.5879980" lon="9.2423610">
        <ele>176.0000000</ele>
        <time>2009-12-27T10:11:57Z</time>
      </trkpt>
      <trkpt lat="45.5881510" lon="9.2428840">
        <ele>178.4000000</ele>
        <time>2009-12-27T10:12:07Z</time>
      </trkpt>
      <trkpt lat="45.5883110" lon="9.2434000">
        <ele>181.6000000</ele>
        <time>2009-12-27T10:12:16Z</time>
      </trkpt>
      <trkpt lat="45.5884560" lon="9.2438810">
        <ele>181.2000000</ele>
        <time>2009-12-27T10:12:25Z</time>
      </trkpt>
      <trkpt lat="45.5886020" lon="9.2443700">
        <ele>180.2000000</ele>
        <time>2009-12-27T10:12:34Z</time>
      </trkpt>
      <trkpt lat="45.5887170" lon="9.2448550">
        <ele>177.8000000</ele>
        <time>2009-12-27T10:12:46Z</time>
      </trkpt>
      <trkpt lat="45.5886740" lon="9.2453660">
        <ele>176.8000000</ele>
        <time>2009-12-27T10:12:56Z</time>
      </trkpt>
      <trkpt lat="45.5885380" lon="9.2457070">
        <ele>176.0000000</ele>
        <time>2009-12-27T10:13:02Z</time>
      </trkpt>
      <trkpt lat="45.5884640" lon="9.2458120">
        <ele>175.8000000</ele>
        <time>2009-12-27T10:13:04Z</time>
      </trkpt>
      <trkpt lat="45.5883820" lon="9.2459010">
        <ele>175.8000000</ele>
        <time>2009-12-27T10:13:06Z</time>
      </trkpt>
      <trkpt lat="45.5881210" lon="9.2460900">
        <ele>175.4000000</ele>
        <time>2009-12-27T10:13:12Z</time>
      </trkpt>
      <trkpt lat="45.5880370" lon="9.2461330">
        <ele>175.4000000</ele>
        <time>2009-12-27T10:13:14Z</time>
      </trkpt>
      <trkpt lat="45.5878170" lon="9.2464160">
        <ele>173.6000000</ele>
        <time>2009-12-27T10:13:20Z</time>
      </trkpt>
      <trkpt lat="45.5877540" lon="9.2465260">
        <ele>173.0000000</ele>
        <time>2009-12-27T10:13:22Z</time>
      </trkpt>
      <trkpt lat="45.5876900" lon="9.2468410">
        <ele>174.4000000</ele>
        <time>2009-12-27T10:13:27Z</time>
      </trkpt>
      <trkpt lat="45.5876870" lon="9.2468970">
        <ele>174.4000000</ele>
        <time>2009-12-27T10:13:28Z</time>
      </trkpt>
      <trkpt lat="45.5876940" lon="9.2474430">
        <ele>175.2000000</ele>
        <time>2009-12-27T10:13:37Z</time>
      </trkpt>
      <trkpt lat="45.5877160" lon="9.2475670">
        <ele>175.4000000</ele>
        <time>2009-12-27T10:13:39Z</time>
      </trkpt>
      <trkpt lat="45.5878140" lon="9.2479390">
        <ele>177.2000000</ele>
        <time>2009-12-27T10:13:45Z</time>
      </trkpt>
      <trkpt lat="45.5879270" lon="9.2483120">
        <ele>176.8000000</ele>
        <time>2009-12-27T10:13:51Z</time>
      </trkpt>
      <trkpt lat="45.5879280" lon="9.2484340">
        <ele>175.0000000</ele>
        <time>2009-12-27T10:13:53Z</time>
      </trkpt>
      <trkpt lat="45.5879040" lon="9.2485300">
        <ele>174.6000000</ele>
        <time>2009-12-27T10:13:55Z</time>
      </trkpt>
      <trkpt lat="45.5880380" lon="9.2488050">
        <ele>174.8000000</ele>
        <time>2009-12-27T10:13:59Z</time>
      </trkpt>
      <trkpt lat="45.5880840" lon="9.2489380">
        <ele>175.4000000</ele>
        <time>2009-12-27T10:14:01Z</time>
      </trkpt>
      <trkpt lat="45.5882430" lon="9.2494640">
        <ele>177.0000000</ele>
        <time>2009-12-27T10:14:09Z</time>
      </trkpt>
      <trkpt lat="45.5883890" lon="9.2499550">
        <ele>177.4000000</ele>
        <time>2009-12-27T10:14:16Z</time>
      </trkpt>
      <trkpt lat="45.5885370" lon="9.2504660">
        <ele>177.8000000</ele>
        <time>2009-12-27T10:14:23Z</time>
      </trkpt>
      <trkpt lat="45.5886880" lon="9.2509820">
        <ele>178.6000000</ele>
        <time>2009-12-27T10:14:30Z</time>
      </trkpt>
      <trkpt lat="45.5888390" lon="9.2514850">
        <ele>179.0000000</ele>
        <time>2009-12-27T10:14:37Z</time>
      </trkpt>
      <trkpt lat="45.5889870" lon="9.2519930">
        <ele>179.0000000</ele>
        <time>2009-12-27T10:14:44Z</time>
      </trkpt>
      <trkpt lat="45.5890590" lon="9.2522720">
        <ele>178.6000000</ele>
        <time>2009-12-27T10:14:48Z</time>
      </trkpt>
      <trkpt lat="45.5890680" lon="9.2524960">
        <ele>178.6000000</ele>
        <time>2009-12-27T10:14:52Z</time>
      </trkpt>
      <trkpt lat="45.5890670" lon="9.2525310">
        <ele>178.6000000</ele>
        <time>2009-12-27T10:14:53Z</time>
      </trkpt>
      <trkpt lat="45.5890020" lon="9.2529510">
        <ele>175.8000000</ele>
        <time>2009-12-27T10:15:04Z</time>
      </trkpt>
      <trkpt lat="45.5890680" lon="9.2529930">
        <ele>175.4000000</ele>
        <time>2009-12-27T10:15:07Z</time>
      </trkpt>
      <trkpt lat="45.5894340" lon="9.2531940">
        <ele>181.8000000</ele>
        <time>2009-12-27T10:15:20Z</time>
      </trkpt>
      <trkpt lat="45.5897770" lon="9.2533260">
        <ele>190.0000000</ele>
        <time>2009-12-27T10:15:29Z</time>
      </trkpt>
      <trkpt lat="45.5898070" lon="9.2533520">
        <ele>191.0000000</ele>
        <time>2009-12-27T10:15:30Z</time>
      </trkpt>
      <trkpt lat="45.5899980" lon="9.2534960">
        <ele>195.0000000</ele>
        <time>2009-12-27T10:15:39Z</time>
      </trkpt>
      <trkpt lat="45.5899740" lon="9.2536890">
        <ele>190.8000000</ele>
        <time>2009-12-27T10:15:48Z</time>
      </trkpt>
      <trkpt lat="45.5899600" lon="9.2537080">
        <ele>189.0000000</ele>
        <time>2009-12-27T10:15:49Z</time>
      </trkpt>
      <trkpt lat="45.5898840" lon="9.2536770">
        <ele>182.4000000</ele>
        <time>2009-12-27T10:15:52Z</time>
      </trkpt>
      <trkpt lat="45.5896000" lon="9.2535810">
        <ele>178.2000000</ele>
        <time>2009-12-27T10:16:00Z</time>
      </trkpt>
      <trkpt lat="45.5892640" lon="9.2533960">
        <ele>180.4000000</ele>
        <time>2009-12-27T10:16:08Z</time>
      </trkpt>
      <trkpt lat="45.5890830" lon="9.2532850">
        <ele>182.2000000</ele>
        <time>2009-12-27T10:16:12Z</time>
      </trkpt>
      <trkpt lat="45.5890010" lon="9.2535140">
        <ele>178.8000000</ele>
        <time>2009-12-27T10:16:17Z</time>
      </trkpt>
      <trkpt lat="45.5889270" lon="9.2540110">
        <ele>175.2000000</ele>
        <time>2009-12-27T10:16:26Z</time>
      </trkpt>
      <trkpt lat="45.5889350" lon="9.2545560">
        <ele>174.4000000</ele>
        <time>2009-12-27T10:16:35Z</time>
      </trkpt>
      <trkpt lat="45.5889440" lon="9.2546230">
        <ele>174.2000000</ele>
        <time>2009-12-27T10:16:36Z</time>
      </trkpt>
      <trkpt lat="45.5890230" lon="9.2551130">
        <ele>172.0000000</ele>
        <time>2009-12-27T10:16:42Z</time>
      </trkpt>
      <trkpt lat="45.5891180" lon="9.2556550">
        <ele>171.2000000</ele>
        <time>2009-12-27T10:16:50Z</time>
      </trkpt>
      <trkpt lat="45.5892360" lon="9.2561090">
        <ele>172.6000000</ele>
        <time>2009-12-27T10:16:58Z</time>
      </trkpt>
      <trkpt lat="45.5892470" lon="9.2561680">
        <ele>172.8000000</ele>
        <time>2009-12-27T10:16:59Z</time>
      </trkpt>
      <trkpt lat="45.5893410" lon="9.2566730">
        <ele>172.6000000</ele>
        <time>2009-12-27T10:17:07Z</time>
      </trkpt>
      <trkpt lat="45.5894290" lon="9.2571930">
        <ele>171.4000000</ele>
        <time>2009-12-27T10:17:15Z</time>
      </trkpt>
      <trkpt lat="45.5894520" lon="9.2574750">
        <ele>171.0000000</ele>
        <time>2009-12-27T10:17:19Z</time>
      </trkpt>
      <trkpt lat="45.5894280" lon="9.2577440">
        <ele>170.8000000</ele>
        <time>2009-12-27T10:17:23Z</time>
      </trkpt>
      <trkpt lat="45.5893150" lon="9.2581310">
        <ele>171.0000000</ele>
        <time>2009-12-27T10:17:29Z</time>
      </trkpt>
      <trkpt lat="45.5892530" lon="9.2582360">
        <ele>170.8000000</ele>
        <time>2009-12-27T10:17:31Z</time>
      </trkpt>
      <trkpt lat="45.5891810" lon="9.2583320">
        <ele>171.2000000</ele>
        <time>2009-12-27T10:17:33Z</time>
      </trkpt>
      <trkpt lat="45.5890880" lon="9.2584030">
        <ele>172.2000000</ele>
        <time>2009-12-27T10:17:35Z</time>
      </trkpt>
      <trkpt lat="45.5889970" lon="9.2584770">
        <ele>171.8000000</ele>
        <time>2009-12-27T10:17:37Z</time>
      </trkpt>
      <trkpt lat="45.5889470" lon="9.2585100">
        <ele>171.6000000</ele>
        <time>2009-12-27T10:17:38Z</time>
      </trkpt>
      <trkpt lat="45.5885780" lon="9.2586880">
        <ele>173.4000000</ele>
        <time>2009-12-27T10:17:45Z</time>
      </trkpt>
      <trkpt lat="45.5881850" lon="9.2588630">
        <ele>171.2000000</ele>
        <time>2009-12-27T10:17:53Z</time>
      </trkpt>
      <trkpt lat="45.5878230" lon="9.2590070">
        <ele>168.4000000</ele>
        <time>2009-12-27T10:18:00Z</time>
      </trkpt>
      <trkpt lat="45.5874540" lon="9.2591560">
        <ele>167.4000000</ele>
        <time>2009-12-27T10:18:07Z</time>
      </trkpt>
      <trkpt lat="45.5870840" lon="9.2592970">
        <ele>167.0000000</ele>
        <time>2009-12-27T10:18:14Z</time>
      </trkpt>
      <trkpt lat="45.5867610" lon="9.2594450">
        <ele>166.2000000</ele>
        <time>2009-12-27T10:18:21Z</time>
      </trkpt>
      <trkpt lat="45.5867200" lon="9.2594690">
        <ele>166.2000000</ele>
        <time>2009-12-27T10:18:22Z</time>
      </trkpt>
      <trkpt lat="45.5863310" lon="9.2596460">
        <ele>166.6000000</ele>
        <time>2009-12-27T10:18:30Z</time>
      </trkpt>
      <trkpt lat="45.5859710" lon="9.2598080">
        <ele>166.2000000</ele>
        <time>2009-12-27T10:18:37Z</time>
      </trkpt>
      <trkpt lat="45.5856250" lon="9.2599750">
        <ele>166.4000000</ele>
        <time>2009-12-27T10:18:44Z</time>
      </trkpt>
      <trkpt lat="45.5854680" lon="9.2600470">
        <ele>166.4000000</ele>
        <time>2009-12-27T10:18:49Z</time>
      </trkpt>
      <trkpt lat="45.5853530" lon="9.2601020">
        <ele>166.4000000</ele>
        <time>2009-12-27T10:18:56Z</time>
      </trkpt>
      <trkpt lat="45.5852490" lon="9.2601460">
        <ele>166.2000000</ele>
        <time>2009-12-27T10:18:59Z</time>
      </trkpt>
      <trkpt lat="45.5849000" lon="9.2603020">
        <ele>166.6000000</ele>
        <time>2009-12-27T10:19:06Z</time>
      </trkpt>
      <trkpt lat="45.5845100" lon="9.2604620">
        <ele>166.6000000</ele>
        <time>2009-12-27T10:19:13Z</time>
      </trkpt>
      <trkpt lat="45.5841500" lon="9.2606660">
        <ele>168.0000000</ele>
        <time>2009-12-27T10:19:20Z</time>
      </trkpt>
      <trkpt lat="45.5837910" lon="9.2608530">
        <ele>169.0000000</ele>
        <time>2009-12-27T10:19:27Z</time>
      </trkpt>
      <trkpt lat="45.5834290" lon="9.2610410">
        <ele>169.2000000</ele>
        <time>2009-12-27T10:19:34Z</time>
      </trkpt>
      <trkpt lat="45.5830610" lon="9.2612260">
        <ele>167.0000000</ele>
        <time>2009-12-27T10:19:41Z</time>
      </trkpt>
      <trkpt lat="45.5827560" lon="9.2613740">
        <ele>167.8000000</ele>
        <time>2009-12-27T10:19:48Z</time>
      </trkpt>
      <trkpt lat="45.5826960" lon="9.2613420">
        <ele>168.0000000</ele>
        <time>2009-12-27T10:19:51Z</time>
      </trkpt>
      <trkpt lat="45.5826730" lon="9.2613210">
        <ele>167.8000000</ele>
        <time>2009-12-27T10:19:52Z</time>
      </trkpt>
      <trkpt lat="45.5825990" lon="9.2612860">
        <ele>167.6000000</ele>
        <time>2009-12-27T10:19:55Z</time>
      </trkpt>
      <trkpt lat="45.5823720" lon="9.2613970">
        <ele>163.6000000</ele>
        <time>2009-12-27T10:20:01Z</time>
      </trkpt>
      <trkpt lat="45.5820260" lon="9.2615650">
        <ele>163.0000000</ele>
        <time>2009-12-27T10:20:08Z</time>
      </trkpt>
      <trkpt lat="45.5816810" lon="9.2617490">
        <ele>167.4000000</ele>
        <time>2009-12-27T10:20:15Z</time>
      </trkpt>
      <trkpt lat="45.5813290" lon="9.2619390">
        <ele>169.4000000</ele>
        <time>2009-12-27T10:20:22Z</time>
      </trkpt>
      <trkpt lat="45.5809590" lon="9.2621390">
        <ele>167.2000000</ele>
        <time>2009-12-27T10:20:29Z</time>
      </trkpt>
      <trkpt lat="45.5806100" lon="9.2623070">
        <ele>165.8000000</ele>
        <time>2009-12-27T10:20:36Z</time>
      </trkpt>
      <trkpt lat="45.5802370" lon="9.2624590">
        <ele>164.8000000</ele>
        <time>2009-12-27T10:20:44Z</time>
      </trkpt>
      <trkpt lat="45.5801080" lon="9.2624820">
        <ele>165.4000000</ele>
        <time>2009-12-27T10:20:47Z</time>
      </trkpt>
      <trkpt lat="45.5800480" lon="9.2625820">
        <ele>173.8000000</ele>
        <time>2009-12-27T10:20:52Z</time>
      </trkpt>
      <trkpt lat="45.5800200" lon="9.2626290">
        <ele>174.2000000</ele>
        <time>2009-12-27T10:20:54Z</time>
      </trkpt>
      <trkpt lat="45.5800490" lon="9.2627890">
        <ele>172.6000000</ele>
        <time>2009-12-27T10:20:59Z</time>
      </trkpt>
      <trkpt lat="45.5800420" lon="9.2628580">
        <ele>172.2000000</ele>
        <time>2009-12-27T10:21:01Z</time>
      </trkpt>
      <trkpt lat="45.5797210" lon="9.2629850">
        <ele>173.0000000</ele>
        <time>2009-12-27T10:21:12Z</time>
      </trkpt>
      <trkpt lat="45.5793530" lon="9.2631520">
        <ele>172.4000000</ele>
        <time>2009-12-27T10:21:20Z</time>
      </trkpt>
      <trkpt lat="45.5789750" lon="9.2633420">
        <ele>171.4000000</ele>
        <time>2009-12-27T10:21:28Z</time>
      </trkpt>
      <trkpt lat="45.5786360" lon="9.2635340">
        <ele>172.2000000</ele>
        <time>2009-12-27T10:21:35Z</time>
      </trkpt>
      <trkpt lat="45.5782620" lon="9.2636780">
        <ele>172.6000000</ele>
        <time>2009-12-27T10:21:42Z</time>
      </trkpt>
      <trkpt lat="45.5778860" lon="9.2638080">
        <ele>172.0000000</ele>
        <time>2009-12-27T10:21:49Z</time>
      </trkpt>
      <trkpt lat="45.5775180" lon="9.2639210">
        <ele>170.6000000</ele>
        <time>2009-12-27T10:21:56Z</time>
      </trkpt>
      <trkpt lat="45.5773120" lon="9.2639650">
        <ele>166.8000000</ele>
        <time>2009-12-27T10:22:00Z</time>
      </trkpt>
      <trkpt lat="45.5772260" lon="9.2640340">
        <ele>166.8000000</ele>
        <time>2009-12-27T10:22:03Z</time>
      </trkpt>
      <trkpt lat="45.5772120" lon="9.2640830">
        <ele>167.2000000</ele>
        <time>2009-12-27T10:22:06Z</time>
      </trkpt>
      <trkpt lat="45.5771850" lon="9.2640730">
        <ele>165.6000000</ele>
        <time>2009-12-27T10:22:08Z</time>
      </trkpt>
      <trkpt lat="45.5771610" lon="9.2640080">
        <ele>164.8000000</ele>
        <time>2009-12-27T10:22:10Z</time>
      </trkpt>
      <trkpt lat="45.5770960" lon="9.2639060">
        <ele>163.4000000</ele>
        <time>2009-12-27T10:22:14Z</time>
      </trkpt>
      <trkpt lat="45.5768990" lon="9.2639700">
        <ele>161.8000000</ele>
        <time>2009-12-27T10:22:20Z</time>
      </trkpt>
      <trkpt lat="45.5765260" lon="9.2641140">
        <ele>159.2000000</ele>
        <time>2009-12-27T10:22:29Z</time>
      </trkpt>
      <trkpt lat="45.5761590" lon="9.2642150">
        <ele>157.4000000</ele>
        <time>2009-12-27T10:22:38Z</time>
      </trkpt>
      <trkpt lat="45.5759620" lon="9.2643080">
        <ele>159.8000000</ele>
        <time>2009-12-27T10:22:45Z</time>
      </trkpt>
      <trkpt lat="45.5757980" lon="9.2643740">
        <ele>161.4000000</ele>
        <time>2009-12-27T10:22:49Z</time>
      </trkpt>
      <trkpt lat="45.5754440" lon="9.2645130">
        <ele>164.6000000</ele>
        <time>2009-12-27T10:22:57Z</time>
      </trkpt>
      <trkpt lat="45.5750670" lon="9.2646490">
        <ele>166.0000000</ele>
        <time>2009-12-27T10:23:05Z</time>
      </trkpt>
      <trkpt lat="45.5746750" lon="9.2647870">
        <ele>169.2000000</ele>
        <time>2009-12-27T10:23:13Z</time>
      </trkpt>
      <trkpt lat="45.5744260" lon="9.2648770">
        <ele>170.4000000</ele>
        <time>2009-12-27T10:23:18Z</time>
      </trkpt>
      <trkpt lat="45.5743240" lon="9.2649220">
        <ele>169.6000000</ele>
        <time>2009-12-27T10:23:20Z</time>
      </trkpt>
      <trkpt lat="45.5739680" lon="9.2651070">
        <ele>168.4000000</ele>
        <time>2009-12-27T10:23:27Z</time>
      </trkpt>
      <trkpt lat="45.5739160" lon="9.2651420">
        <ele>168.2000000</ele>
        <time>2009-12-27T10:23:28Z</time>
      </trkpt>
      <trkpt lat="45.5736690" lon="9.2653850">
        <ele>167.8000000</ele>
        <time>2009-12-27T10:23:33Z</time>
      </trkpt>
      <trkpt lat="45.5733940" lon="9.2658130">
        <ele>166.8000000</ele>
        <time>2009-12-27T10:23:40Z</time>
      </trkpt>
      <trkpt lat="45.5733560" lon="9.2658910">
        <ele>166.8000000</ele>
        <time>2009-12-27T10:23:42Z</time>
      </trkpt>
      <trkpt lat="45.5732530" lon="9.2661250">
        <ele>165.8000000</ele>
        <time>2009-12-27T10:23:48Z</time>
      </trkpt>
      <trkpt lat="45.5731830" lon="9.2662940">
        <ele>164.6000000</ele>
        <time>2009-12-27T10:23:51Z</time>
      </trkpt>
      <trkpt lat="45.5729750" lon="9.2667380">
        <ele>161.8000000</ele>
        <time>2009-12-27T10:24:00Z</time>
      </trkpt>
      <trkpt lat="45.5727520" lon="9.2671770">
        <ele>159.8000000</ele>
        <time>2009-12-27T10:24:10Z</time>
      </trkpt>
      <trkpt lat="45.5725980" lon="9.2675210">
        <ele>157.8000000</ele>
        <time>2009-12-27T10:24:19Z</time>
      </trkpt>
      <trkpt lat="45.5725380" lon="9.2675420">
        <ele>157.8000000</ele>
        <time>2009-12-27T10:24:23Z</time>
      </trkpt>
      <trkpt lat="45.5725120" lon="9.2675250">
        <ele>157.0000000</ele>
        <time>2009-12-27T10:24:24Z</time>
      </trkpt>
      <trkpt lat="45.5723870" lon="9.2673790">
        <ele>160.2000000</ele>
        <time>2009-12-27T10:26:14Z</time>
      </trkpt>
      <trkpt lat="45.5723840" lon="9.2678370">
        <ele>152.2000000</ele>
        <time>2009-12-27T10:44:11Z</time>
      </trkpt>
      <trkpt lat="45.5720940" lon="9.2674970">
        <ele>153.6000000</ele>
        <time>2009-12-27T10:44:17Z</time>
      </trkpt>
      <trkpt lat="45.5718480" lon="9.2672640">
        <ele>153.8000000</ele>
        <time>2009-12-27T10:44:23Z</time>
      </trkpt>
      <trkpt lat="45.5717590" lon="9.2672160">
        <ele>154.0000000</ele>
        <time>2009-12-27T10:44:25Z</time>
      </trkpt>
      <trkpt lat="45.5716100" lon="9.2670700">
        <ele>152.8000000</ele>
        <time>2009-12-27T10:44:29Z</time>
      </trkpt>
      <trkpt lat="45.5714820" lon="9.2669610">
        <ele>152.6000000</ele>
        <time>2009-12-27T10:44:32Z</time>
      </trkpt>
      <trkpt lat="45.5714200" lon="9.2669200">
        <ele>153.8000000</ele>
        <time>2009-12-27T10:44:33Z</time>
      </trkpt>
      <trkpt lat="45.5710320" lon="9.2669350">
        <ele>154.4000000</ele>
        <time>2009-12-27T10:44:40Z</time>
      </trkpt>
      <trkpt lat="45.5708960" lon="9.2669870">
        <ele>159.2000000</ele>
        <time>2009-12-27T10:44:41Z</time>
      </trkpt>
      <trkpt lat="45.5707960" lon="9.2672650">
        <ele>162.0000000</ele>
        <time>2009-12-27T10:44:45Z</time>
      </trkpt>
      <trkpt lat="45.5706600" lon="9.2678620">
        <ele>161.8000000</ele>
        <time>2009-12-27T10:44:50Z</time>
      </trkpt>
      <trkpt lat="45.5704840" lon="9.2684090">
        <ele>157.8000000</ele>
        <time>2009-12-27T10:44:56Z</time>
      </trkpt>
      <trkpt lat="45.5702900" lon="9.2688740">
        <ele>150.8000000</ele>
        <time>2009-12-27T10:45:02Z</time>
      </trkpt>
      <trkpt lat="45.5701920" lon="9.2691570">
        <ele>149.4000000</ele>
        <time>2009-12-27T10:45:07Z</time>
      </trkpt>
      <trkpt lat="45.5701170" lon="9.2693410">
        <ele>145.4000000</ele>
        <time>2009-12-27T10:45:10Z</time>
      </trkpt>
      <trkpt lat="45.5700680" lon="9.2695680">
        <ele>140.2000000</ele>
        <time>2009-12-27T10:45:16Z</time>
      </trkpt>
      <trkpt lat="45.5700930" lon="9.2696310">
        <ele>139.0000000</ele>
        <time>2009-12-27T10:45:17Z</time>
      </trkpt>
      <trkpt lat="45.5702490" lon="9.2696860">
        <ele>140.2000000</ele>
        <time>2009-12-27T10:45:21Z</time>
      </trkpt>
      <trkpt lat="45.5706960" lon="9.2697250">
        <ele>142.6000000</ele>
        <time>2009-12-27T10:45:29Z</time>
      </trkpt>
      <trkpt lat="45.5710070" lon="9.2698410">
        <ele>147.2000000</ele>
        <time>2009-12-27T10:45:53Z</time>
      </trkpt>
      <trkpt lat="45.5710310" lon="9.2698530">
        <ele>146.4000000</ele>
        <time>2009-12-27T10:45:55Z</time>
      </trkpt>
      <trkpt lat="45.5713540" lon="9.2699320">
        <ele>148.2000000</ele>
        <time>2009-12-27T10:46:05Z</time>
      </trkpt>
      <trkpt lat="45.5717500" lon="9.2700660">
        <ele>150.8000000</ele>
        <time>2009-12-27T10:46:12Z</time>
      </trkpt>
      <trkpt lat="45.5721330" lon="9.2701930">
        <ele>152.6000000</ele>
        <time>2009-12-27T10:46:20Z</time>
      </trkpt>
      <trkpt lat="45.5725110" lon="9.2703210">
        <ele>153.4000000</ele>
        <time>2009-12-27T10:46:29Z</time>
      </trkpt>
      <trkpt lat="45.5726480" lon="9.2703880">
        <ele>153.0000000</ele>
        <time>2009-12-27T10:46:34Z</time>
      </trkpt>
      <trkpt lat="45.5726630" lon="9.2705360">
        <ele>153.2000000</ele>
        <time>2009-12-27T10:46:39Z</time>
      </trkpt>
      <trkpt lat="45.5726720" lon="9.2706750">
        <ele>153.2000000</ele>
        <time>2009-12-27T10:46:45Z</time>
      </trkpt>
      <trkpt lat="45.5726990" lon="9.2706940">
        <ele>152.8000000</ele>
        <time>2009-12-27T10:46:47Z</time>
      </trkpt>
      <trkpt lat="45.5727130" lon="9.2708260">
        <ele>152.4000000</ele>
        <time>2009-12-27T10:46:51Z</time>
      </trkpt>
      <trkpt lat="45.5727330" lon="9.2709660">
        <ele>152.4000000</ele>
        <time>2009-12-27T10:46:56Z</time>
      </trkpt>
      <trkpt lat="45.5728210" lon="9.2711510">
        <ele>151.2000000</ele>
        <time>2009-12-27T10:47:03Z</time>
      </trkpt>
      <trkpt lat="45.5729090" lon="9.2712880">
        <ele>150.2000000</ele>
        <time>2009-12-27T10:47:06Z</time>
      </trkpt>
      <trkpt lat="45.5731010" lon="9.2715130">
        <ele>149.2000000</ele>
        <time>2009-12-27T10:47:11Z</time>
      </trkpt>
      <trkpt lat="45.5734160" lon="9.2718690">
        <ele>149.2000000</ele>
        <time>2009-12-27T10:47:19Z</time>
      </trkpt>
      <trkpt lat="45.5737000" lon="9.2722000">
        <ele>150.4000000</ele>
        <time>2009-12-27T10:47:26Z</time>
      </trkpt>
      <trkpt lat="45.5738940" lon="9.2724680">
        <ele>151.2000000</ele>
        <time>2009-12-27T10:47:31Z</time>
      </trkpt>
      <trkpt lat="45.5739540" lon="9.2725950">
        <ele>151.2000000</ele>
        <time>2009-12-27T10:47:32Z</time>
      </trkpt>
      <trkpt lat="45.5739810" lon="9.2726610">
        <ele>151.2000000</ele>
        <time>2009-12-27T10:47:33Z</time>
      </trkpt>
      <trkpt lat="45.5740580" lon="9.2729570">
        <ele>151.4000000</ele>
        <time>2009-12-27T10:47:37Z</time>
      </trkpt>
      <trkpt lat="45.5740780" lon="9.2731050">
        <ele>151.6000000</ele>
        <time>2009-12-27T10:47:39Z</time>
      </trkpt>
      <trkpt lat="45.5741120" lon="9.2736410">
        <ele>153.0000000</ele>
        <time>2009-12-27T10:47:46Z</time>
      </trkpt>
      <trkpt lat="45.5741460" lon="9.2741540">
        <ele>152.8000000</ele>
        <time>2009-12-27T10:47:54Z</time>
      </trkpt>
      <trkpt lat="45.5741790" lon="9.2746640">
        <ele>151.8000000</ele>
        <time>2009-12-27T10:48:01Z</time>
      </trkpt>
      <trkpt lat="45.5742300" lon="9.2752730">
        <ele>151.4000000</ele>
        <time>2009-12-27T10:48:10Z</time>
      </trkpt>
      <trkpt lat="45.5742690" lon="9.2754880">
        <ele>151.2000000</ele>
        <time>2009-12-27T10:48:15Z</time>
      </trkpt>
      <trkpt lat="45.5742500" lon="9.2757510">
        <ele>151.0000000</ele>
        <time>2009-12-27T10:48:20Z</time>
      </trkpt>
      <trkpt lat="45.5742520" lon="9.2758360">
        <ele>151.0000000</ele>
        <time>2009-12-27T10:48:21Z</time>
      </trkpt>
      <trkpt lat="45.5742560" lon="9.2762920">
        <ele>153.4000000</ele>
        <time>2009-12-27T10:48:27Z</time>
      </trkpt>
      <trkpt lat="45.5743200" lon="9.2768390">
        <ele>153.0000000</ele>
        <time>2009-12-27T10:48:33Z</time>
      </trkpt>
      <trkpt lat="45.5743600" lon="9.2773510">
        <ele>154.4000000</ele>
        <time>2009-12-27T10:48:40Z</time>
      </trkpt>
      <trkpt lat="45.5744020" lon="9.2778610">
        <ele>154.2000000</ele>
        <time>2009-12-27T10:48:47Z</time>
      </trkpt>
      <trkpt lat="45.5744380" lon="9.2783730">
        <ele>154.6000000</ele>
        <time>2009-12-27T10:48:55Z</time>
      </trkpt>
      <trkpt lat="45.5744770" lon="9.2789580">
        <ele>153.6000000</ele>
        <time>2009-12-27T10:49:03Z</time>
      </trkpt>
      <trkpt lat="45.5745130" lon="9.2795510">
        <ele>153.8000000</ele>
        <time>2009-12-27T10:49:11Z</time>
      </trkpt>
      <trkpt lat="45.5745430" lon="9.2800730">
        <ele>153.6000000</ele>
        <time>2009-12-27T10:49:17Z</time>
      </trkpt>
      <trkpt lat="45.5745820" lon="9.2806120">
        <ele>152.8000000</ele>
        <time>2009-12-27T10:49:25Z</time>
      </trkpt>
      <trkpt lat="45.5746210" lon="9.2811400">
        <ele>153.0000000</ele>
        <time>2009-12-27T10:49:32Z</time>
      </trkpt>
      <trkpt lat="45.5746630" lon="9.2817190">
        <ele>151.0000000</ele>
        <time>2009-12-27T10:49:39Z</time>
      </trkpt>
      <trkpt lat="45.5746930" lon="9.2822620">
        <ele>150.2000000</ele>
        <time>2009-12-27T10:49:47Z</time>
      </trkpt>
      <trkpt lat="45.5747010" lon="9.2825190">
        <ele>151.2000000</ele>
        <time>2009-12-27T10:49:53Z</time>
      </trkpt>
      <trkpt lat="45.5747040" lon="9.2827900">
        <ele>148.2000000</ele>
        <time>2009-12-27T10:50:01Z</time>
      </trkpt>
      <trkpt lat="45.5747010" lon="9.2827960">
        <ele>148.0000000</ele>
        <time>2009-12-27T10:50:03Z</time>
      </trkpt>
      <trkpt lat="45.5750660" lon="9.2828090">
        <ele>157.8000000</ele>
        <time>2009-12-27T10:50:37Z</time>
      </trkpt>
      <trkpt lat="45.5754270" lon="9.2828180">
        <ele>162.4000000</ele>
        <time>2009-12-27T10:50:46Z</time>
      </trkpt>
      <trkpt lat="45.5758000" lon="9.2827990">
        <ele>164.6000000</ele>
        <time>2009-12-27T10:50:54Z</time>
      </trkpt>
      <trkpt lat="45.5761970" lon="9.2827590">
        <ele>164.0000000</ele>
        <time>2009-12-27T10:51:02Z</time>
      </trkpt>
      <trkpt lat="45.5766030" lon="9.2827380">
        <ele>166.8000000</ele>
        <time>2009-12-27T10:51:10Z</time>
      </trkpt>
      <trkpt lat="45.5769810" lon="9.2827120">
        <ele>165.4000000</ele>
        <time>2009-12-27T10:51:18Z</time>
      </trkpt>
      <trkpt lat="45.5773750" lon="9.2826830">
        <ele>164.0000000</ele>
        <time>2009-12-27T10:51:27Z</time>
      </trkpt>
      <trkpt lat="45.5774210" lon="9.2826760">
        <ele>164.6000000</ele>
        <time>2009-12-27T10:51:28Z</time>
      </trkpt>
      <trkpt lat="45.5775730" lon="9.2828140">
        <ele>162.0000000</ele>
        <time>2009-12-27T10:51:36Z</time>
      </trkpt>
      <trkpt lat="45.5776420" lon="9.2829290">
        <ele>159.0000000</ele>
        <time>2009-12-27T10:51:39Z</time>
      </trkpt>
      <trkpt lat="45.5776640" lon="9.2830200">
        <ele>158.0000000</ele>
        <time>2009-12-27T10:51:42Z</time>
      </trkpt>
      <trkpt lat="45.5775720" lon="9.2834300">
        <ele>149.8000000</ele>
        <time>2009-12-27T10:51:52Z</time>
      </trkpt>
      <trkpt lat="45.5774680" lon="9.2839510">
        <ele>146.6000000</ele>
        <time>2009-12-27T10:52:01Z</time>
      </trkpt>
      <trkpt lat="45.5774170" lon="9.2842740">
        <ele>146.6000000</ele>
        <time>2009-12-27T10:52:06Z</time>
      </trkpt>
      <trkpt lat="45.5773790" lon="9.2844700">
        <ele>147.4000000</ele>
        <time>2009-12-27T10:52:09Z</time>
      </trkpt>
      <trkpt lat="45.5772810" lon="9.2849850">
        <ele>146.2000000</ele>
        <time>2009-12-27T10:52:17Z</time>
      </trkpt>
      <trkpt lat="45.5771830" lon="9.2855040">
        <ele>144.4000000</ele>
        <time>2009-12-27T10:52:25Z</time>
      </trkpt>
      <trkpt lat="45.5771720" lon="9.2855640">
        <ele>144.4000000</ele>
        <time>2009-12-27T10:52:26Z</time>
      </trkpt>
      <trkpt lat="45.5770860" lon="9.2860040">
        <ele>144.8000000</ele>
        <time>2009-12-27T10:52:32Z</time>
      </trkpt>
      <trkpt lat="45.5769740" lon="9.2865510">
        <ele>142.6000000</ele>
        <time>2009-12-27T10:52:40Z</time>
      </trkpt>
      <trkpt lat="45.5768710" lon="9.2871170">
        <ele>141.6000000</ele>
        <time>2009-12-27T10:52:48Z</time>
      </trkpt>
      <trkpt lat="45.5768310" lon="9.2872700">
        <ele>143.4000000</ele>
        <time>2009-12-27T10:52:50Z</time>
      </trkpt>
      <trkpt lat="45.5767630" lon="9.2876380">
        <ele>146.0000000</ele>
        <time>2009-12-27T10:52:55Z</time>
      </trkpt>
      <trkpt lat="45.5767330" lon="9.2877870">
        <ele>146.8000000</ele>
        <time>2009-12-27T10:52:57Z</time>
      </trkpt>
      <trkpt lat="45.5766750" lon="9.2881430">
        <ele>146.0000000</ele>
        <time>2009-12-27T10:53:02Z</time>
      </trkpt>
      <trkpt lat="45.5765760" lon="9.2886580">
        <ele>145.2000000</ele>
        <time>2009-12-27T10:53:09Z</time>
      </trkpt>
      <trkpt lat="45.5764820" lon="9.2891770">
        <ele>143.8000000</ele>
        <time>2009-12-27T10:53:17Z</time>
      </trkpt>
      <trkpt lat="45.5763860" lon="9.2896940">
        <ele>141.0000000</ele>
        <time>2009-12-27T10:53:24Z</time>
      </trkpt>
      <trkpt lat="45.5762800" lon="9.2902260">
        <ele>143.0000000</ele>
        <time>2009-12-27T10:53:31Z</time>
      </trkpt>
      <trkpt lat="45.5761790" lon="9.2907500">
        <ele>141.6000000</ele>
        <time>2009-12-27T10:53:38Z</time>
      </trkpt>
      <trkpt lat="45.5760750" lon="9.2912880">
        <ele>144.6000000</ele>
        <time>2009-12-27T10:53:45Z</time>
      </trkpt>
      <trkpt lat="45.5759720" lon="9.2918230">
        <ele>144.8000000</ele>
        <time>2009-12-27T10:53:52Z</time>
      </trkpt>
      <trkpt lat="45.5758820" lon="9.2923350">
        <ele>145.0000000</ele>
        <time>2009-12-27T10:54:00Z</time>
      </trkpt>
      <trkpt lat="45.5757660" lon="9.2928630">
        <ele>146.0000000</ele>
        <time>2009-12-27T10:54:10Z</time>
      </trkpt>
      <trkpt lat="45.5757010" lon="9.2932060">
        <ele>146.0000000</ele>
        <time>2009-12-27T10:54:16Z</time>
      </trkpt>
      <trkpt lat="45.5756560" lon="9.2934020">
        <ele>145.6000000</ele>
        <time>2009-12-27T10:54:19Z</time>
      </trkpt>
      <trkpt lat="45.5756300" lon="9.2935410">
        <ele>146.4000000</ele>
        <time>2009-12-27T10:54:21Z</time>
      </trkpt>
      <trkpt lat="45.5756090" lon="9.2936860">
        <ele>147.8000000</ele>
        <time>2009-12-27T10:54:23Z</time>
      </trkpt>
      <trkpt lat="45.5755660" lon="9.2939030">
        <ele>148.0000000</ele>
        <time>2009-12-27T10:54:26Z</time>
      </trkpt>
      <trkpt lat="45.5755470" lon="9.2939710">
        <ele>147.2000000</ele>
        <time>2009-12-27T10:54:27Z</time>
      </trkpt>
      <trkpt lat="45.5754670" lon="9.2944050">
        <ele>147.8000000</ele>
        <time>2009-12-27T10:54:33Z</time>
      </trkpt>
      <trkpt lat="45.5753640" lon="9.2949110">
        <ele>145.0000000</ele>
        <time>2009-12-27T10:54:40Z</time>
      </trkpt>
      <trkpt lat="45.5752690" lon="9.2954260">
        <ele>143.4000000</ele>
        <time>2009-12-27T10:54:47Z</time>
      </trkpt>
      <trkpt lat="45.5751670" lon="9.2959560">
        <ele>142.0000000</ele>
        <time>2009-12-27T10:54:54Z</time>
      </trkpt>
      <trkpt lat="45.5750760" lon="9.2964750">
        <ele>140.8000000</ele>
        <time>2009-12-27T10:55:01Z</time>
      </trkpt>
      <trkpt lat="45.5749990" lon="9.2967890">
        <ele>140.2000000</ele>
        <time>2009-12-27T10:55:06Z</time>
      </trkpt>
      <trkpt lat="45.5748730" lon="9.2968980">
        <ele>141.2000000</ele>
        <time>2009-12-27T10:55:09Z</time>
      </trkpt>
      <trkpt lat="45.5747140" lon="9.2969110">
        <ele>140.8000000</ele>
        <time>2009-12-27T10:55:12Z</time>
      </trkpt>
      <trkpt lat="45.5744960" lon="9.2968860">
        <ele>141.8000000</ele>
        <time>2009-12-27T10:55:16Z</time>
      </trkpt>
      <trkpt lat="45.5741380" lon="9.2968700">
        <ele>142.2000000</ele>
        <time>2009-12-27T10:55:23Z</time>
      </trkpt>
      <trkpt lat="45.5741040" lon="9.2969020">
        <ele>142.2000000</ele>
        <time>2009-12-27T10:55:24Z</time>
      </trkpt>
      <trkpt lat="45.5739780" lon="9.2972110">
        <ele>141.4000000</ele>
        <time>2009-12-27T10:55:30Z</time>
      </trkpt>
      <trkpt lat="45.5739010" lon="9.2973180">
        <ele>141.4000000</ele>
        <time>2009-12-27T10:55:32Z</time>
      </trkpt>
      <trkpt lat="45.5736200" lon="9.2977500">
        <ele>141.4000000</ele>
        <time>2009-12-27T10:55:39Z</time>
      </trkpt>
      <trkpt lat="45.5733440" lon="9.2981820">
        <ele>140.4000000</ele>
        <time>2009-12-27T10:55:46Z</time>
      </trkpt>
      <trkpt lat="45.5731020" lon="9.2985690">
        <ele>139.2000000</ele>
        <time>2009-12-27T10:55:52Z</time>
      </trkpt>
      <trkpt lat="45.5728410" lon="9.2989810">
        <ele>138.8000000</ele>
        <time>2009-12-27T10:55:58Z</time>
      </trkpt>
      <trkpt lat="45.5725800" lon="9.2993870">
        <ele>138.0000000</ele>
        <time>2009-12-27T10:56:04Z</time>
      </trkpt>
      <trkpt lat="45.5723250" lon="9.2997840">
        <ele>138.2000000</ele>
        <time>2009-12-27T10:56:10Z</time>
      </trkpt>
      <trkpt lat="45.5720700" lon="9.3002210">
        <ele>137.4000000</ele>
        <time>2009-12-27T10:56:17Z</time>
      </trkpt>
      <trkpt lat="45.5717980" lon="9.3005830">
        <ele>136.2000000</ele>
        <time>2009-12-27T10:56:24Z</time>
      </trkpt>
      <trkpt lat="45.5716690" lon="9.3007190">
        <ele>136.0000000</ele>
        <time>2009-12-27T10:56:27Z</time>
      </trkpt>
      <trkpt lat="45.5714750" lon="9.3008880">
        <ele>136.2000000</ele>
        <time>2009-12-27T10:56:31Z</time>
      </trkpt>
      <trkpt lat="45.5713930" lon="9.3013500">
        <ele>140.6000000</ele>
        <time>2009-12-27T10:56:37Z</time>
      </trkpt>
      <trkpt lat="45.5714980" lon="9.3015520">
        <ele>143.0000000</ele>
        <time>2009-12-27T10:56:40Z</time>
      </trkpt>
      <trkpt lat="45.5715720" lon="9.3016840">
        <ele>144.2000000</ele>
        <time>2009-12-27T10:56:42Z</time>
      </trkpt>
      <trkpt lat="45.5716220" lon="9.3018360">
        <ele>144.8000000</ele>
        <time>2009-12-27T10:56:44Z</time>
      </trkpt>
      <trkpt lat="45.5717490" lon="9.3023400">
        <ele>147.2000000</ele>
        <time>2009-12-27T10:56:50Z</time>
      </trkpt>
      <trkpt lat="45.5717670" lon="9.3024250">
        <ele>147.4000000</ele>
        <time>2009-12-27T10:56:51Z</time>
      </trkpt>
      <trkpt lat="45.5716450" lon="9.3028580">
        <ele>147.0000000</ele>
        <time>2009-12-27T10:56:57Z</time>
      </trkpt>
      <trkpt lat="45.5715450" lon="9.3029580">
        <ele>147.2000000</ele>
        <time>2009-12-27T10:56:59Z</time>
      </trkpt>
      <trkpt lat="45.5714980" lon="9.3030190">
        <ele>146.8000000</ele>
        <time>2009-12-27T10:57:00Z</time>
      </trkpt>
      <trkpt lat="45.5714210" lon="9.3032680">
        <ele>146.6000000</ele>
        <time>2009-12-27T10:57:03Z</time>
      </trkpt>
      <trkpt lat="45.5714110" lon="9.3033560">
        <ele>146.8000000</ele>
        <time>2009-12-27T10:57:04Z</time>
      </trkpt>
      <trkpt lat="45.5714050" lon="9.3034430">
        <ele>146.8000000</ele>
        <time>2009-12-27T10:57:05Z</time>
      </trkpt>
      <trkpt lat="45.5713820" lon="9.3038500">
        <ele>147.2000000</ele>
        <time>2009-12-27T10:57:10Z</time>
      </trkpt>
      <trkpt lat="45.5713360" lon="9.3044240">
        <ele>147.4000000</ele>
        <time>2009-12-27T10:57:17Z</time>
      </trkpt>
      <trkpt lat="45.5712240" lon="9.3049730">
        <ele>147.0000000</ele>
        <time>2009-12-27T10:57:24Z</time>
      </trkpt>
      <trkpt lat="45.5710830" lon="9.3055070">
        <ele>146.6000000</ele>
        <time>2009-12-27T10:57:31Z</time>
      </trkpt>
      <trkpt lat="45.5709370" lon="9.3060650">
        <ele>145.2000000</ele>
        <time>2009-12-27T10:57:38Z</time>
      </trkpt>
      <trkpt lat="45.5708270" lon="9.3065990">
        <ele>145.0000000</ele>
        <time>2009-12-27T10:57:44Z</time>
      </trkpt>
      <trkpt lat="45.5707420" lon="9.3071110">
        <ele>144.6000000</ele>
        <time>2009-12-27T10:57:50Z</time>
      </trkpt>
      <trkpt lat="45.5706550" lon="9.3076140">
        <ele>145.8000000</ele>
        <time>2009-12-27T10:57:56Z</time>
      </trkpt>
      <trkpt lat="45.5705700" lon="9.3081200">
        <ele>146.2000000</ele>
        <time>2009-12-27T10:58:02Z</time>
      </trkpt>
      <trkpt lat="45.5705320" lon="9.3086410">
        <ele>145.6000000</ele>
        <time>2009-12-27T10:58:08Z</time>
      </trkpt>
      <trkpt lat="45.5705160" lon="9.3091620">
        <ele>145.6000000</ele>
        <time>2009-12-27T10:58:14Z</time>
      </trkpt>
      <trkpt lat="45.5705030" lon="9.3097500">
        <ele>146.0000000</ele>
        <time>2009-12-27T10:58:21Z</time>
      </trkpt>
      <trkpt lat="45.5704880" lon="9.3100400">
        <ele>146.0000000</ele>
        <time>2009-12-27T10:58:25Z</time>
      </trkpt>
      <trkpt lat="45.5703360" lon="9.3101510">
        <ele>143.2000000</ele>
        <time>2009-12-27T10:58:29Z</time>
      </trkpt>
      <trkpt lat="45.5701540" lon="9.3104850">
        <ele>143.6000000</ele>
        <time>2009-12-27T10:58:36Z</time>
      </trkpt>
      <trkpt lat="45.5701280" lon="9.3106300">
        <ele>144.4000000</ele>
        <time>2009-12-27T10:58:38Z</time>
      </trkpt>
      <trkpt lat="45.5700930" lon="9.3110180">
        <ele>148.6000000</ele>
        <time>2009-12-27T10:58:43Z</time>
      </trkpt>
      <trkpt lat="45.5700600" lon="9.3115170">
        <ele>150.8000000</ele>
        <time>2009-12-27T10:58:51Z</time>
      </trkpt>
      <trkpt lat="45.5700400" lon="9.3115690">
        <ele>150.6000000</ele>
        <time>2009-12-27T10:58:53Z</time>
      </trkpt>
      <trkpt lat="45.5699980" lon="9.3115860">
        <ele>149.2000000</ele>
        <time>2009-12-27T10:58:56Z</time>
      </trkpt>
      <trkpt lat="45.5695390" lon="9.3111310">
        <ele>158.6000000</ele>
        <time>2009-12-27T11:12:40Z</time>
      </trkpt>
      <trkpt lat="45.5694930" lon="9.3110040">
        <ele>159.4000000</ele>
        <time>2009-12-27T11:12:50Z</time>
      </trkpt>
      <trkpt lat="45.5692930" lon="9.3107600">
        <ele>154.8000000</ele>
        <time>2009-12-27T11:13:23Z</time>
      </trkpt>
      <trkpt lat="45.5690100" lon="9.3104580">
        <ele>153.8000000</ele>
        <time>2009-12-27T11:13:33Z</time>
      </trkpt>
      <trkpt lat="45.5688980" lon="9.3103660">
        <ele>153.4000000</ele>
        <time>2009-12-27T11:13:37Z</time>
      </trkpt>
      <trkpt lat="45.5687800" lon="9.3105170">
        <ele>152.4000000</ele>
        <time>2009-12-27T11:13:42Z</time>
      </trkpt>
      <trkpt lat="45.5687440" lon="9.3105960">
        <ele>151.8000000</ele>
        <time>2009-12-27T11:13:44Z</time>
      </trkpt>
      <trkpt lat="45.5686200" lon="9.3110920">
        <ele>149.8000000</ele>
        <time>2009-12-27T11:13:55Z</time>
      </trkpt>
      <trkpt lat="45.5685630" lon="9.3116140">
        <ele>149.2000000</ele>
        <time>2009-12-27T11:14:05Z</time>
      </trkpt>
      <trkpt lat="45.5685100" lon="9.3121170">
        <ele>149.2000000</ele>
        <time>2009-12-27T11:14:14Z</time>
      </trkpt>
      <trkpt lat="45.5684590" lon="9.3126560">
        <ele>149.4000000</ele>
        <time>2009-12-27T11:14:23Z</time>
      </trkpt>
      <trkpt lat="45.5684070" lon="9.3132120">
        <ele>149.0000000</ele>
        <time>2009-12-27T11:14:32Z</time>
      </trkpt>
      <trkpt lat="45.5683720" lon="9.3137560">
        <ele>149.2000000</ele>
        <time>2009-12-27T11:14:40Z</time>
      </trkpt>
      <trkpt lat="45.5683590" lon="9.3142340">
        <ele>149.4000000</ele>
        <time>2009-12-27T11:14:47Z</time>
      </trkpt>
      <trkpt lat="45.5683660" lon="9.3142930">
        <ele>149.6000000</ele>
        <time>2009-12-27T11:14:48Z</time>
      </trkpt>
      <trkpt lat="45.5684190" lon="9.3145390">
        <ele>150.0000000</ele>
        <time>2009-12-27T11:14:52Z</time>
      </trkpt>
      <trkpt lat="45.5685570" lon="9.3147720">
        <ele>150.2000000</ele>
        <time>2009-12-27T11:14:57Z</time>
      </trkpt>
      <trkpt lat="45.5687160" lon="9.3148820">
        <ele>150.8000000</ele>
        <time>2009-12-27T11:15:01Z</time>
      </trkpt>
      <trkpt lat="45.5687530" lon="9.3148940">
        <ele>150.2000000</ele>
        <time>2009-12-27T11:15:02Z</time>
      </trkpt>
      <trkpt lat="45.5688510" lon="9.3149110">
        <ele>150.2000000</ele>
        <time>2009-12-27T11:15:05Z</time>
      </trkpt>
      <trkpt lat="45.5689150" lon="9.3149350">
        <ele>150.0000000</ele>
        <time>2009-12-27T11:15:07Z</time>
      </trkpt>
      <trkpt lat="45.5692720" lon="9.3150390">
        <ele>147.6000000</ele>
        <time>2009-12-27T11:15:17Z</time>
      </trkpt>
      <trkpt lat="45.5695150" lon="9.3153860">
        <ele>146.8000000</ele>
        <time>2009-12-27T11:15:27Z</time>
      </trkpt>
      <trkpt lat="45.5694940" lon="9.3159300">
        <ele>148.6000000</ele>
        <time>2009-12-27T11:15:36Z</time>
      </trkpt>
      <trkpt lat="45.5694440" lon="9.3164950">
        <ele>149.2000000</ele>
        <time>2009-12-27T11:15:46Z</time>
      </trkpt>
      <trkpt lat="45.5694110" lon="9.3170160">
        <ele>150.2000000</ele>
        <time>2009-12-27T11:15:56Z</time>
      </trkpt>
      <trkpt lat="45.5693930" lon="9.3175330">
        <ele>150.6000000</ele>
        <time>2009-12-27T11:16:06Z</time>
      </trkpt>
      <trkpt lat="45.5693800" lon="9.3180870">
        <ele>151.2000000</ele>
        <time>2009-12-27T11:16:17Z</time>
      </trkpt>
      <trkpt lat="45.5693570" lon="9.3186190">
        <ele>150.6000000</ele>
        <time>2009-12-27T11:16:28Z</time>
      </trkpt>
      <trkpt lat="45.5693360" lon="9.3191420">
        <ele>150.6000000</ele>
        <time>2009-12-27T11:16:40Z</time>
      </trkpt>
      <trkpt lat="45.5693270" lon="9.3196570">
        <ele>151.0000000</ele>
        <time>2009-12-27T11:16:51Z</time>
      </trkpt>
      <trkpt lat="45.5693150" lon="9.3202190">
        <ele>151.0000000</ele>
        <time>2009-12-27T11:17:02Z</time>
      </trkpt>
      <trkpt lat="45.5693290" lon="9.3207730">
        <ele>150.6000000</ele>
        <time>2009-12-27T11:17:12Z</time>
      </trkpt>
      <trkpt lat="45.5693420" lon="9.3212840">
        <ele>150.4000000</ele>
        <time>2009-12-27T11:17:21Z</time>
      </trkpt>
      <trkpt lat="45.5693630" lon="9.3218160">
        <ele>150.8000000</ele>
        <time>2009-12-27T11:17:30Z</time>
      </trkpt>
      <trkpt lat="45.5693540" lon="9.3223410">
        <ele>150.2000000</ele>
        <time>2009-12-27T11:17:38Z</time>
      </trkpt>
      <trkpt lat="45.5693240" lon="9.3228900">
        <ele>150.0000000</ele>
        <time>2009-12-27T11:17:45Z</time>
      </trkpt>
      <trkpt lat="45.5692780" lon="9.3234180">
        <ele>149.6000000</ele>
        <time>2009-12-27T11:17:52Z</time>
      </trkpt>
      <trkpt lat="45.5692250" lon="9.3239950">
        <ele>150.2000000</ele>
        <time>2009-12-27T11:18:00Z</time>
      </trkpt>
      <trkpt lat="45.5691730" lon="9.3245470">
        <ele>151.0000000</ele>
        <time>2009-12-27T11:18:08Z</time>
      </trkpt>
      <trkpt lat="45.5691400" lon="9.3247600">
        <ele>152.0000000</ele>
        <time>2009-12-27T11:18:12Z</time>
      </trkpt>
      <trkpt lat="45.5691120" lon="9.3250150">
        <ele>151.2000000</ele>
        <time>2009-12-27T11:18:17Z</time>
      </trkpt>
      <trkpt lat="45.5691080" lon="9.3250660">
        <ele>151.0000000</ele>
        <time>2009-12-27T11:18:18Z</time>
      </trkpt>
      <trkpt lat="45.5690810" lon="9.3255880">
        <ele>150.6000000</ele>
        <time>2009-12-27T11:18:32Z</time>
      </trkpt>
      <trkpt lat="45.5690120" lon="9.3261160">
        <ele>150.8000000</ele>
        <time>2009-12-27T11:18:47Z</time>
      </trkpt>
      <trkpt lat="45.5688120" lon="9.3265760">
        <ele>151.0000000</ele>
        <time>2009-12-27T11:19:03Z</time>
      </trkpt>
      <trkpt lat="45.5685780" lon="9.3269760">
        <ele>149.6000000</ele>
        <time>2009-12-27T11:19:18Z</time>
      </trkpt>
      <trkpt lat="45.5683410" lon="9.3273810">
        <ele>148.6000000</ele>
        <time>2009-12-27T11:19:34Z</time>
      </trkpt>
      <trkpt lat="45.5680970" lon="9.3277990">
        <ele>150.8000000</ele>
        <time>2009-12-27T11:19:47Z</time>
      </trkpt>
      <trkpt lat="45.5678480" lon="9.3282030">
        <ele>150.2000000</ele>
        <time>2009-12-27T11:20:00Z</time>
      </trkpt>
      <trkpt lat="45.5676110" lon="9.3286050">
        <ele>149.4000000</ele>
        <time>2009-12-27T11:20:13Z</time>
      </trkpt>
      <trkpt lat="45.5673780" lon="9.3290180">
        <ele>150.4000000</ele>
        <time>2009-12-27T11:20:27Z</time>
      </trkpt>
      <trkpt lat="45.5671460" lon="9.3294210">
        <ele>149.2000000</ele>
        <time>2009-12-27T11:20:40Z</time>
      </trkpt>
      <trkpt lat="45.5669040" lon="9.3298310">
        <ele>148.4000000</ele>
        <time>2009-12-27T11:20:53Z</time>
      </trkpt>
      <trkpt lat="45.5668510" lon="9.3298890">
        <ele>149.4000000</ele>
        <time>2009-12-27T11:20:56Z</time>
      </trkpt>
      <trkpt lat="45.5668100" lon="9.3299160">
        <ele>149.6000000</ele>
        <time>2009-12-27T11:21:01Z</time>
      </trkpt>
      <trkpt lat="45.5667580" lon="9.3301000">
        <ele>152.6000000</ele>
        <time>2009-12-27T11:22:16Z</time>
      </trkpt>
      <trkpt lat="45.5667860" lon="9.3301690">
        <ele>152.2000000</ele>
        <time>2009-12-27T11:22:20Z</time>
      </trkpt>
      <trkpt lat="45.5667920" lon="9.3302030">
        <ele>152.0000000</ele>
        <time>2009-12-27T11:22:21Z</time>
      </trkpt>
      <trkpt lat="45.5668690" lon="9.3306820">
        <ele>151.0000000</ele>
        <time>2009-12-27T11:22:30Z</time>
      </trkpt>
      <trkpt lat="45.5669510" lon="9.3311900">
        <ele>150.0000000</ele>
        <time>2009-12-27T11:22:38Z</time>
      </trkpt>
      <trkpt lat="45.5670300" lon="9.3316950">
        <ele>150.0000000</ele>
        <time>2009-12-27T11:22:45Z</time>
      </trkpt>
      <trkpt lat="45.5671100" lon="9.3322420">
        <ele>149.8000000</ele>
        <time>2009-12-27T11:22:53Z</time>
      </trkpt>
      <trkpt lat="45.5671920" lon="9.3327910">
        <ele>149.8000000</ele>
        <time>2009-12-27T11:23:01Z</time>
      </trkpt>
      <trkpt lat="45.5672790" lon="9.3333420">
        <ele>150.2000000</ele>
        <time>2009-12-27T11:23:09Z</time>
      </trkpt>
      <trkpt lat="45.5673580" lon="9.3338920">
        <ele>149.6000000</ele>
        <time>2009-12-27T11:23:17Z</time>
      </trkpt>
      <trkpt lat="45.5674460" lon="9.3344460">
        <ele>149.8000000</ele>
        <time>2009-12-27T11:23:25Z</time>
      </trkpt>
      <trkpt lat="45.5675300" lon="9.3349940">
        <ele>149.6000000</ele>
        <time>2009-12-27T11:23:33Z</time>
      </trkpt>
      <trkpt lat="45.5676060" lon="9.3355370">
        <ele>149.2000000</ele>
        <time>2009-12-27T11:23:40Z</time>
      </trkpt>
      <trkpt lat="45.5677140" lon="9.3360950">
        <ele>149.4000000</ele>
        <time>2009-12-27T11:23:47Z</time>
      </trkpt>
      <trkpt lat="45.5677950" lon="9.3366560">
        <ele>150.0000000</ele>
        <time>2009-12-27T11:23:54Z</time>
      </trkpt>
      <trkpt lat="45.5678970" lon="9.3371080">
        <ele>149.4000000</ele>
        <time>2009-12-27T11:24:00Z</time>
      </trkpt>
      <trkpt lat="45.5679070" lon="9.3371850">
        <ele>149.6000000</ele>
        <time>2009-12-27T11:24:01Z</time>
      </trkpt>
      <trkpt lat="45.5679650" lon="9.3377410">
        <ele>149.4000000</ele>
        <time>2009-12-27T11:24:08Z</time>
      </trkpt>
      <trkpt lat="45.5680380" lon="9.3382850">
        <ele>149.4000000</ele>
        <time>2009-12-27T11:24:15Z</time>
      </trkpt>
      <trkpt lat="45.5681050" lon="9.3388130">
        <ele>148.4000000</ele>
        <time>2009-12-27T11:24:22Z</time>
      </trkpt>
      <trkpt lat="45.5681800" lon="9.3393600">
        <ele>147.2000000</ele>
        <time>2009-12-27T11:24:29Z</time>
      </trkpt>
      <trkpt lat="45.5682600" lon="9.3399290">
        <ele>149.2000000</ele>
        <time>2009-12-27T11:24:36Z</time>
      </trkpt>
      <trkpt lat="45.5683760" lon="9.3404810">
        <ele>151.4000000</ele>
        <time>2009-12-27T11:24:43Z</time>
      </trkpt>
      <trkpt lat="45.5684410" lon="9.3410230">
        <ele>149.4000000</ele>
        <time>2009-12-27T11:24:50Z</time>
      </trkpt>
      <trkpt lat="45.5685210" lon="9.3415770">
        <ele>150.2000000</ele>
        <time>2009-12-27T11:24:57Z</time>
      </trkpt>
      <trkpt lat="45.5685990" lon="9.3421200">
        <ele>150.4000000</ele>
        <time>2009-12-27T11:25:04Z</time>
      </trkpt>
      <trkpt lat="45.5686300" lon="9.3423490">
        <ele>150.6000000</ele>
        <time>2009-12-27T11:25:07Z</time>
      </trkpt>
      <trkpt lat="45.5686370" lon="9.3426360">
        <ele>150.4000000</ele>
        <time>2009-12-27T11:25:11Z</time>
      </trkpt>
      <trkpt lat="45.5686950" lon="9.3431620">
        <ele>151.2000000</ele>
        <time>2009-12-27T11:25:18Z</time>
      </trkpt>
      <trkpt lat="45.5687720" lon="9.3437220">
        <ele>151.4000000</ele>
        <time>2009-12-27T11:25:26Z</time>
      </trkpt>
      <trkpt lat="45.5687820" lon="9.3438660">
        <ele>151.2000000</ele>
        <time>2009-12-27T11:25:28Z</time>
      </trkpt>
      <trkpt lat="45.5686940" lon="9.3442740">
        <ele>151.6000000</ele>
        <time>2009-12-27T11:25:34Z</time>
      </trkpt>
      <trkpt lat="45.5686660" lon="9.3443340">
        <ele>151.8000000</ele>
        <time>2009-12-27T11:25:35Z</time>
      </trkpt>
      <trkpt lat="45.5684770" lon="9.3446840">
        <ele>152.2000000</ele>
        <time>2009-12-27T11:25:41Z</time>
      </trkpt>
      <trkpt lat="45.5684270" lon="9.3448060">
        <ele>152.8000000</ele>
        <time>2009-12-27T11:25:43Z</time>
      </trkpt>
      <trkpt lat="45.5684090" lon="9.3452110">
        <ele>154.6000000</ele>
        <time>2009-12-27T11:25:49Z</time>
      </trkpt>
      <trkpt lat="45.5684930" lon="9.3457790">
        <ele>157.0000000</ele>
        <time>2009-12-27T11:25:58Z</time>
      </trkpt>
      <trkpt lat="45.5685190" lon="9.3461190">
        <ele>158.8000000</ele>
        <time>2009-12-27T11:26:04Z</time>
      </trkpt>
      <trkpt lat="45.5684960" lon="9.3462790">
        <ele>159.0000000</ele>
        <time>2009-12-27T11:26:07Z</time>
      </trkpt>
      <trkpt lat="45.5684810" lon="9.3463300">
        <ele>159.0000000</ele>
        <time>2009-12-27T11:26:08Z</time>
      </trkpt>
      <trkpt lat="45.5682650" lon="9.3465550">
        <ele>159.0000000</ele>
        <time>2009-12-27T11:26:15Z</time>
      </trkpt>
      <trkpt lat="45.5681610" lon="9.3466140">
        <ele>158.6000000</ele>
        <time>2009-12-27T11:26:18Z</time>
      </trkpt>
      <trkpt lat="45.5677960" lon="9.3467200">
        <ele>159.8000000</ele>
        <time>2009-12-27T11:26:28Z</time>
      </trkpt>
      <trkpt lat="45.5674440" lon="9.3468060">
        <ele>159.4000000</ele>
        <time>2009-12-27T11:26:37Z</time>
      </trkpt>
      <trkpt lat="45.5673470" lon="9.3468200">
        <ele>159.2000000</ele>
        <time>2009-12-27T11:26:39Z</time>
      </trkpt>
      <trkpt lat="45.5671290" lon="9.3467940">
        <ele>158.4000000</ele>
        <time>2009-12-27T11:26:43Z</time>
      </trkpt>
      <trkpt lat="45.5670720" lon="9.3468010">
        <ele>158.2000000</ele>
        <time>2009-12-27T11:26:44Z</time>
      </trkpt>
      <trkpt lat="45.5667150" lon="9.3468680">
        <ele>156.4000000</ele>
        <time>2009-12-27T11:26:50Z</time>
      </trkpt>
      <trkpt lat="45.5663360" lon="9.3468450">
        <ele>152.4000000</ele>
        <time>2009-12-27T11:26:55Z</time>
      </trkpt>
      <trkpt lat="45.5659040" lon="9.3467230">
        <ele>150.6000000</ele>
        <time>2009-12-27T11:27:00Z</time>
      </trkpt>
      <trkpt lat="45.5658230" lon="9.3467040">
        <ele>150.2000000</ele>
        <time>2009-12-27T11:27:01Z</time>
      </trkpt>
      <trkpt lat="45.5655260" lon="9.3466540">
        <ele>150.8000000</ele>
        <time>2009-12-27T11:27:05Z</time>
      </trkpt>
      <trkpt lat="45.5653430" lon="9.3465990">
        <ele>151.0000000</ele>
        <time>2009-12-27T11:27:08Z</time>
      </trkpt>
      <trkpt lat="45.5651520" lon="9.3464420">
        <ele>151.4000000</ele>
        <time>2009-12-27T11:27:12Z</time>
      </trkpt>
      <trkpt lat="45.5649930" lon="9.3462920">
        <ele>152.0000000</ele>
        <time>2009-12-27T11:27:16Z</time>
      </trkpt>
      <trkpt lat="45.5648640" lon="9.3461210">
        <ele>152.0000000</ele>
        <time>2009-12-27T11:27:20Z</time>
      </trkpt>
      <trkpt lat="45.5646260" lon="9.3457450">
        <ele>151.6000000</ele>
        <time>2009-12-27T11:27:29Z</time>
      </trkpt>
      <trkpt lat="45.5644020" lon="9.3452720">
        <ele>151.2000000</ele>
        <time>2009-12-27T11:27:37Z</time>
      </trkpt>
      <trkpt lat="45.5642010" lon="9.3448270">
        <ele>151.0000000</ele>
        <time>2009-12-27T11:27:44Z</time>
      </trkpt>
      <trkpt lat="45.5639940" lon="9.3443510">
        <ele>150.6000000</ele>
        <time>2009-12-27T11:27:51Z</time>
      </trkpt>
      <trkpt lat="45.5637820" lon="9.3438480">
        <ele>150.4000000</ele>
        <time>2009-12-27T11:27:58Z</time>
      </trkpt>
      <trkpt lat="45.5635990" lon="9.3434050">
        <ele>150.0000000</ele>
        <time>2009-12-27T11:28:04Z</time>
      </trkpt>
      <trkpt lat="45.5634030" lon="9.3429350">
        <ele>149.8000000</ele>
        <time>2009-12-27T11:28:10Z</time>
      </trkpt>
      <trkpt lat="45.5632100" lon="9.3424820">
        <ele>149.6000000</ele>
        <time>2009-12-27T11:28:16Z</time>
      </trkpt>
      <trkpt lat="45.5630160" lon="9.3420240">
        <ele>149.2000000</ele>
        <time>2009-12-27T11:28:22Z</time>
      </trkpt>
      <trkpt lat="45.5628210" lon="9.3415580">
        <ele>148.8000000</ele>
        <time>2009-12-27T11:28:28Z</time>
      </trkpt>
      <trkpt lat="45.5626230" lon="9.3410930">
        <ele>148.8000000</ele>
        <time>2009-12-27T11:28:34Z</time>
      </trkpt>
      <trkpt lat="45.5624190" lon="9.3406310">
        <ele>148.6000000</ele>
        <time>2009-12-27T11:28:40Z</time>
      </trkpt>
      <trkpt lat="45.5622210" lon="9.3401800">
        <ele>149.0000000</ele>
        <time>2009-12-27T11:28:46Z</time>
      </trkpt>
      <trkpt lat="45.5620110" lon="9.3397510">
        <ele>149.6000000</ele>
        <time>2009-12-27T11:28:52Z</time>
      </trkpt>
      <trkpt lat="45.5617480" lon="9.3392970">
        <ele>150.2000000</ele>
        <time>2009-12-27T11:28:59Z</time>
      </trkpt>
      <trkpt lat="45.5614920" lon="9.3389370">
        <ele>150.0000000</ele>
        <time>2009-12-27T11:29:05Z</time>
      </trkpt>
      <trkpt lat="45.5612010" lon="9.3385830">
        <ele>149.2000000</ele>
        <time>2009-12-27T11:29:11Z</time>
      </trkpt>
      <trkpt lat="45.5608770" lon="9.3382390">
        <ele>148.4000000</ele>
        <time>2009-12-27T11:29:17Z</time>
      </trkpt>
      <trkpt lat="45.5605340" lon="9.3378920">
        <ele>147.8000000</ele>
        <time>2009-12-27T11:29:23Z</time>
      </trkpt>
      <trkpt lat="45.5601960" lon="9.3375500">
        <ele>147.4000000</ele>
        <time>2009-12-27T11:29:29Z</time>
      </trkpt>
      <trkpt lat="45.5598710" lon="9.3372220">
        <ele>147.6000000</ele>
        <time>2009-12-27T11:29:35Z</time>
      </trkpt>
      <trkpt lat="45.5595590" lon="9.3369070">
        <ele>147.6000000</ele>
        <time>2009-12-27T11:29:41Z</time>
      </trkpt>
      <trkpt lat="45.5592500" lon="9.3365940">
        <ele>147.4000000</ele>
        <time>2009-12-27T11:29:47Z</time>
      </trkpt>
      <trkpt lat="45.5589400" lon="9.3362770">
        <ele>147.0000000</ele>
        <time>2009-12-27T11:29:53Z</time>
      </trkpt>
      <trkpt lat="45.5586220" lon="9.3359540">
        <ele>146.6000000</ele>
        <time>2009-12-27T11:29:59Z</time>
      </trkpt>
      <trkpt lat="45.5583030" lon="9.3356310">
        <ele>146.4000000</ele>
        <time>2009-12-27T11:30:05Z</time>
      </trkpt>
      <trkpt lat="45.5579980" lon="9.3352890">
        <ele>146.2000000</ele>
        <time>2009-12-27T11:30:11Z</time>
      </trkpt>
      <trkpt lat="45.5576940" lon="9.3349530">
        <ele>146.0000000</ele>
        <time>2009-12-27T11:30:17Z</time>
      </trkpt>
      <trkpt lat="45.5573800" lon="9.3346470">
        <ele>145.6000000</ele>
        <time>2009-12-27T11:30:23Z</time>
      </trkpt>
      <trkpt lat="45.5572820" lon="9.3345370">
        <ele>145.6000000</ele>
        <time>2009-12-27T11:30:25Z</time>
      </trkpt>
      <trkpt lat="45.5570950" lon="9.3342550">
        <ele>145.4000000</ele>
        <time>2009-12-27T11:30:30Z</time>
      </trkpt>
      <trkpt lat="45.5567930" lon="9.3339420">
        <ele>145.0000000</ele>
        <time>2009-12-27T11:30:51Z</time>
      </trkpt>
      <trkpt lat="45.5564750" lon="9.3336370">
        <ele>145.8000000</ele>
        <time>2009-12-27T11:31:01Z</time>
      </trkpt>
      <trkpt lat="45.5561210" lon="9.3333800">
        <ele>145.2000000</ele>
        <time>2009-12-27T11:31:11Z</time>
      </trkpt>
      <trkpt lat="45.5557810" lon="9.3331840">
        <ele>145.4000000</ele>
        <time>2009-12-27T11:31:20Z</time>
      </trkpt>
      <trkpt lat="45.5554220" lon="9.3330090">
        <ele>144.2000000</ele>
        <time>2009-12-27T11:31:29Z</time>
      </trkpt>
      <trkpt lat="45.5550610" lon="9.3328150">
        <ele>144.4000000</ele>
        <time>2009-12-27T11:31:37Z</time>
      </trkpt>
      <trkpt lat="45.5548670" lon="9.3327360">
        <ele>144.6000000</ele>
        <time>2009-12-27T11:31:41Z</time>
      </trkpt>
      <trkpt lat="45.5547090" lon="9.3327170">
        <ele>144.4000000</ele>
        <time>2009-12-27T11:31:44Z</time>
      </trkpt>
      <trkpt lat="45.5543880" lon="9.3327120">
        <ele>143.8000000</ele>
        <time>2009-12-27T11:31:50Z</time>
      </trkpt>
      <trkpt lat="45.5543340" lon="9.3327020">
        <ele>143.8000000</ele>
        <time>2009-12-27T11:31:51Z</time>
      </trkpt>
      <trkpt lat="45.5542800" lon="9.3326980">
        <ele>144.0000000</ele>
        <time>2009-12-27T11:31:52Z</time>
      </trkpt>
      <trkpt lat="45.5539510" lon="9.3327280">
        <ele>143.8000000</ele>
        <time>2009-12-27T11:31:58Z</time>
      </trkpt>
      <trkpt lat="45.5538960" lon="9.3327230">
        <ele>143.8000000</ele>
        <time>2009-12-27T11:31:59Z</time>
      </trkpt>
      <trkpt lat="45.5536980" lon="9.3323770">
        <ele>143.4000000</ele>
        <time>2009-12-27T11:32:06Z</time>
      </trkpt>
      <trkpt lat="45.5536380" lon="9.3323490">
        <ele>143.6000000</ele>
        <time>2009-12-27T11:32:08Z</time>
      </trkpt>
      <trkpt lat="45.5536090" lon="9.3323470">
        <ele>143.4000000</ele>
        <time>2009-12-27T11:32:09Z</time>
      </trkpt>
      <trkpt lat="45.5534110" lon="9.3325660">
        <ele>144.0000000</ele>
        <time>2009-12-27T11:32:18Z</time>
      </trkpt>
      <trkpt lat="45.5533320" lon="9.3326670">
        <ele>144.0000000</ele>
        <time>2009-12-27T11:32:21Z</time>
      </trkpt>
      <trkpt lat="45.5531170" lon="9.3328140">
        <ele>142.4000000</ele>
        <time>2009-12-27T11:32:26Z</time>
      </trkpt>
      <trkpt lat="45.5529190" lon="9.3328560">
        <ele>142.4000000</ele>
        <time>2009-12-27T11:32:29Z</time>
      </trkpt>
      <trkpt lat="45.5527310" lon="9.3330000">
        <ele>142.2000000</ele>
        <time>2009-12-27T11:32:32Z</time>
      </trkpt>
      <trkpt lat="45.5524980" lon="9.3331200">
        <ele>144.6000000</ele>
        <time>2009-12-27T11:32:37Z</time>
      </trkpt>
      <trkpt lat="45.5523430" lon="9.3331340">
        <ele>145.2000000</ele>
        <time>2009-12-27T11:32:42Z</time>
      </trkpt>
      <trkpt lat="45.5519620" lon="9.3331530">
        <ele>147.8000000</ele>
        <time>2009-12-27T11:32:51Z</time>
      </trkpt>
      <trkpt lat="45.5516100" lon="9.3331790">
        <ele>148.6000000</ele>
        <time>2009-12-27T11:32:58Z</time>
      </trkpt>
      <trkpt lat="45.5515570" lon="9.3331610">
        <ele>149.0000000</ele>
        <time>2009-12-27T11:32:59Z</time>
      </trkpt>
      <trkpt lat="45.5513070" lon="9.3330430">
        <ele>147.0000000</ele>
        <time>2009-12-27T11:33:05Z</time>
      </trkpt>
      <trkpt lat="45.5512630" lon="9.3330580">
        <ele>147.0000000</ele>
        <time>2009-12-27T11:33:06Z</time>
      </trkpt>
      <trkpt lat="45.5512210" lon="9.3330840">
        <ele>147.0000000</ele>
        <time>2009-12-27T11:33:07Z</time>
      </trkpt>
      <trkpt lat="45.5510490" lon="9.3331920">
        <ele>146.6000000</ele>
        <time>2009-12-27T11:33:11Z</time>
      </trkpt>
      <trkpt lat="45.5508630" lon="9.3332120">
        <ele>146.0000000</ele>
        <time>2009-12-27T11:33:15Z</time>
      </trkpt>
      <trkpt lat="45.5504990" lon="9.3332540">
        <ele>144.6000000</ele>
        <time>2009-12-27T11:33:23Z</time>
      </trkpt>
      <trkpt lat="45.5501010" lon="9.3333060">
        <ele>143.6000000</ele>
        <time>2009-12-27T11:33:32Z</time>
      </trkpt>
      <trkpt lat="45.5497110" lon="9.3333510">
        <ele>142.0000000</ele>
        <time>2009-12-27T11:33:40Z</time>
      </trkpt>
      <trkpt lat="45.5493490" lon="9.3333600">
        <ele>142.0000000</ele>
        <time>2009-12-27T11:33:47Z</time>
      </trkpt>
      <trkpt lat="45.5490370" lon="9.3332500">
        <ele>140.8000000</ele>
        <time>2009-12-27T11:33:53Z</time>
      </trkpt>
      <trkpt lat="45.5489910" lon="9.3332120">
        <ele>140.8000000</ele>
        <time>2009-12-27T11:33:54Z</time>
      </trkpt>
      <trkpt lat="45.5487920" lon="9.3329540">
        <ele>140.2000000</ele>
        <time>2009-12-27T11:33:59Z</time>
      </trkpt>
      <trkpt lat="45.5487380" lon="9.3328430">
        <ele>139.6000000</ele>
        <time>2009-12-27T11:34:01Z</time>
      </trkpt>
      <trkpt lat="45.5487180" lon="9.3327860">
        <ele>139.8000000</ele>
        <time>2009-12-27T11:34:02Z</time>
      </trkpt>
      <trkpt lat="45.5486520" lon="9.3324990">
        <ele>140.4000000</ele>
        <time>2009-12-27T11:34:06Z</time>
      </trkpt>
      <trkpt lat="45.5486250" lon="9.3322810">
        <ele>141.0000000</ele>
        <time>2009-12-27T11:34:09Z</time>
      </trkpt>
      <trkpt lat="45.5486190" lon="9.3320970">
        <ele>141.4000000</ele>
        <time>2009-12-27T11:34:12Z</time>
      </trkpt>
      <trkpt lat="45.5485890" lon="9.3318630">
        <ele>142.2000000</ele>
        <time>2009-12-27T11:34:16Z</time>
      </trkpt>
      <trkpt lat="45.5485820" lon="9.3317430">
        <ele>142.8000000</ele>
        <time>2009-12-27T11:34:18Z</time>
      </trkpt>
      <trkpt lat="45.5485700" lon="9.3313530">
        <ele>143.0000000</ele>
        <time>2009-12-27T11:34:25Z</time>
      </trkpt>
      <trkpt lat="45.5485820" lon="9.3311970">
        <ele>143.2000000</ele>
        <time>2009-12-27T11:34:28Z</time>
      </trkpt>
      <trkpt lat="45.5485770" lon="9.3311610">
        <ele>143.2000000</ele>
        <time>2009-12-27T11:34:29Z</time>
      </trkpt>
      <trkpt lat="45.5485330" lon="9.3311490">
        <ele>141.8000000</ele>
        <time>2009-12-27T11:34:38Z</time>
      </trkpt>
      <trkpt lat="45.5484630" lon="9.3312390">
        <ele>141.8000000</ele>
        <time>2009-12-27T11:34:44Z</time>
      </trkpt>
      <trkpt lat="45.5484180" lon="9.3312730">
        <ele>141.4000000</ele>
        <time>2009-12-27T11:34:51Z</time>
      </trkpt>
      <trkpt lat="45.5483920" lon="9.3314380">
        <ele>141.0000000</ele>
        <time>2009-12-27T11:34:55Z</time>
      </trkpt>
      <trkpt lat="45.5484120" lon="9.3319620">
        <ele>140.0000000</ele>
        <time>2009-12-27T11:35:05Z</time>
      </trkpt>
      <trkpt lat="45.5484240" lon="9.3325200">
        <ele>140.0000000</ele>
        <time>2009-12-27T11:35:15Z</time>
      </trkpt>
      <trkpt lat="45.5484330" lon="9.3330750">
        <ele>139.6000000</ele>
        <time>2009-12-27T11:35:24Z</time>
      </trkpt>
      <trkpt lat="45.5484290" lon="9.3331960">
        <ele>139.4000000</ele>
        <time>2009-12-27T11:35:26Z</time>
      </trkpt>
      <trkpt lat="45.5482660" lon="9.3334950">
        <ele>139.4000000</ele>
        <time>2009-12-27T11:35:32Z</time>
      </trkpt>
      <trkpt lat="45.5482260" lon="9.3335360">
        <ele>139.6000000</ele>
        <time>2009-12-27T11:35:33Z</time>
      </trkpt>
      <trkpt lat="45.5481820" lon="9.3335710">
        <ele>139.6000000</ele>
        <time>2009-12-27T11:35:34Z</time>
      </trkpt>
      <trkpt lat="45.5479870" lon="9.3336670">
        <ele>140.0000000</ele>
        <time>2009-12-27T11:35:38Z</time>
      </trkpt>
      <trkpt lat="45.5478830" lon="9.3336890">
        <ele>140.2000000</ele>
        <time>2009-12-27T11:35:40Z</time>
      </trkpt>
      <trkpt lat="45.5475200" lon="9.3337600">
        <ele>140.2000000</ele>
        <time>2009-12-27T11:35:47Z</time>
      </trkpt>
      <trkpt lat="45.5471410" lon="9.3338660">
        <ele>139.6000000</ele>
        <time>2009-12-27T11:35:54Z</time>
      </trkpt>
      <trkpt lat="45.5467640" lon="9.3339950">
        <ele>138.4000000</ele>
        <time>2009-12-27T11:36:01Z</time>
      </trkpt>
      <trkpt lat="45.5466550" lon="9.3340160">
        <ele>138.2000000</ele>
        <time>2009-12-27T11:36:03Z</time>
      </trkpt>
      <trkpt lat="45.5463870" lon="9.3339010">
        <ele>138.0000000</ele>
        <time>2009-12-27T11:36:08Z</time>
      </trkpt>
      <trkpt lat="45.5462760" lon="9.3338680">
        <ele>138.0000000</ele>
        <time>2009-12-27T11:36:10Z</time>
      </trkpt>
      <trkpt lat="45.5460480" lon="9.3340650">
        <ele>139.0000000</ele>
        <time>2009-12-27T11:36:15Z</time>
      </trkpt>
      <trkpt lat="45.5460210" lon="9.3341310">
        <ele>139.2000000</ele>
        <time>2009-12-27T11:36:16Z</time>
      </trkpt>
      <trkpt lat="45.5459610" lon="9.3342640">
        <ele>139.6000000</ele>
        <time>2009-12-27T11:36:18Z</time>
      </trkpt>
      <trkpt lat="45.5457590" lon="9.3344100">
        <ele>139.8000000</ele>
        <time>2009-12-27T11:36:22Z</time>
      </trkpt>
      <trkpt lat="45.5457020" lon="9.3344270">
        <ele>139.8000000</ele>
        <time>2009-12-27T11:36:23Z</time>
      </trkpt>
      <trkpt lat="45.5453830" lon="9.3345440">
        <ele>139.8000000</ele>
        <time>2009-12-27T11:36:29Z</time>
      </trkpt>
      <trkpt lat="45.5452330" lon="9.3345970">
        <ele>139.8000000</ele>
        <time>2009-12-27T11:36:32Z</time>
      </trkpt>
      <trkpt lat="45.5449860" lon="9.3346810">
        <ele>138.8000000</ele>
        <time>2009-12-27T11:36:37Z</time>
      </trkpt>
      <trkpt lat="45.5446050" lon="9.3348020">
        <ele>136.8000000</ele>
        <time>2009-12-27T11:36:45Z</time>
      </trkpt>
      <trkpt lat="45.5442250" lon="9.3349060">
        <ele>134.0000000</ele>
        <time>2009-12-27T11:36:53Z</time>
      </trkpt>
      <trkpt lat="45.5438580" lon="9.3350530">
        <ele>134.6000000</ele>
        <time>2009-12-27T11:37:00Z</time>
      </trkpt>
      <trkpt lat="45.5435050" lon="9.3351470">
        <ele>132.2000000</ele>
        <time>2009-12-27T11:37:07Z</time>
      </trkpt>
      <trkpt lat="45.5431460" lon="9.3352420">
        <ele>130.0000000</ele>
        <time>2009-12-27T11:37:14Z</time>
      </trkpt>
      <trkpt lat="45.5429960" lon="9.3352980">
        <ele>130.2000000</ele>
        <time>2009-12-27T11:37:17Z</time>
      </trkpt>
      <trkpt lat="45.5427880" lon="9.3353690">
        <ele>130.4000000</ele>
        <time>2009-12-27T11:37:21Z</time>
      </trkpt>
      <trkpt lat="45.5426230" lon="9.3354380">
        <ele>131.0000000</ele>
        <time>2009-12-27T11:37:24Z</time>
      </trkpt>
      <trkpt lat="45.5424440" lon="9.3355460">
        <ele>133.4000000</ele>
        <time>2009-12-27T11:37:27Z</time>
      </trkpt>
      <trkpt lat="45.5420740" lon="9.3357320">
        <ele>137.2000000</ele>
        <time>2009-12-27T11:37:33Z</time>
      </trkpt>
      <trkpt lat="45.5417020" lon="9.3358720">
        <ele>138.0000000</ele>
        <time>2009-12-27T11:37:39Z</time>
      </trkpt>
      <trkpt lat="45.5413280" lon="9.3360170">
        <ele>138.0000000</ele>
        <time>2009-12-27T11:37:45Z</time>
      </trkpt>
      <trkpt lat="45.5409630" lon="9.3361490">
        <ele>137.4000000</ele>
        <time>2009-12-27T11:37:51Z</time>
      </trkpt>
      <trkpt lat="45.5405990" lon="9.3362830">
        <ele>136.4000000</ele>
        <time>2009-12-27T11:37:57Z</time>
      </trkpt>
      <trkpt lat="45.5402310" lon="9.3364150">
        <ele>136.0000000</ele>
        <time>2009-12-27T11:38:03Z</time>
      </trkpt>
      <trkpt lat="45.5399260" lon="9.3365150">
        <ele>136.0000000</ele>
        <time>2009-12-27T11:38:08Z</time>
      </trkpt>
      <trkpt lat="45.5398640" lon="9.3365230">
        <ele>135.8000000</ele>
        <time>2009-12-27T11:38:09Z</time>
      </trkpt>
      <trkpt lat="45.5394860" lon="9.3366160">
        <ele>134.8000000</ele>
        <time>2009-12-27T11:38:15Z</time>
      </trkpt>
      <trkpt lat="45.5390740" lon="9.3367270">
        <ele>134.4000000</ele>
        <time>2009-12-27T11:38:22Z</time>
      </trkpt>
      <trkpt lat="45.5386950" lon="9.3369400">
        <ele>134.8000000</ele>
        <time>2009-12-27T11:38:30Z</time>
      </trkpt>
      <trkpt lat="45.5385840" lon="9.3369770">
        <ele>134.8000000</ele>
        <time>2009-12-27T11:38:32Z</time>
      </trkpt>
      <trkpt lat="45.5383860" lon="9.3370030">
        <ele>135.2000000</ele>
        <time>2009-12-27T11:38:35Z</time>
      </trkpt>
      <trkpt lat="45.5383070" lon="9.3369800">
        <ele>135.8000000</ele>
        <time>2009-12-27T11:38:36Z</time>
      </trkpt>
      <trkpt lat="45.5378950" lon="9.3370040">
        <ele>134.4000000</ele>
        <time>2009-12-27T11:38:43Z</time>
      </trkpt>
      <trkpt lat="45.5374930" lon="9.3370700">
        <ele>135.0000000</ele>
        <time>2009-12-27T11:38:50Z</time>
      </trkpt>
      <trkpt lat="45.5374390" lon="9.3370820">
        <ele>135.0000000</ele>
        <time>2009-12-27T11:38:51Z</time>
      </trkpt>
      <trkpt lat="45.5372200" lon="9.3370880">
        <ele>134.8000000</ele>
        <time>2009-12-27T11:38:55Z</time>
      </trkpt>
      <trkpt lat="45.5371150" lon="9.3370950">
        <ele>134.6000000</ele>
        <time>2009-12-27T11:38:57Z</time>
      </trkpt>
      <trkpt lat="45.5367470" lon="9.3371190">
        <ele>133.8000000</ele>
        <time>2009-12-27T11:39:04Z</time>
      </trkpt>
      <trkpt lat="45.5366950" lon="9.3371180">
        <ele>133.6000000</ele>
        <time>2009-12-27T11:39:05Z</time>
      </trkpt>
      <trkpt lat="45.5363780" lon="9.3371170">
        <ele>133.2000000</ele>
        <time>2009-12-27T11:39:11Z</time>
      </trkpt>
      <trkpt lat="45.5361670" lon="9.3371100">
        <ele>133.2000000</ele>
        <time>2009-12-27T11:39:15Z</time>
      </trkpt>
      <trkpt lat="45.5360090" lon="9.3371320">
        <ele>133.2000000</ele>
        <time>2009-12-27T11:39:18Z</time>
      </trkpt>
      <trkpt lat="45.5359610" lon="9.3371330">
        <ele>133.2000000</ele>
        <time>2009-12-27T11:39:19Z</time>
      </trkpt>
      <trkpt lat="45.5356060" lon="9.3371400">
        <ele>133.2000000</ele>
        <time>2009-12-27T11:39:26Z</time>
      </trkpt>
      <trkpt lat="45.5352290" lon="9.3371430">
        <ele>132.8000000</ele>
        <time>2009-12-27T11:39:33Z</time>
      </trkpt>
      <trkpt lat="45.5348570" lon="9.3371550">
        <ele>132.6000000</ele>
        <time>2009-12-27T11:39:40Z</time>
      </trkpt>
      <trkpt lat="45.5344820" lon="9.3371620">
        <ele>132.6000000</ele>
        <time>2009-12-27T11:39:47Z</time>
      </trkpt>
      <trkpt lat="45.5340980" lon="9.3371690">
        <ele>132.4000000</ele>
        <time>2009-12-27T11:39:54Z</time>
      </trkpt>
      <trkpt lat="45.5337150" lon="9.3371830">
        <ele>131.8000000</ele>
        <time>2009-12-27T11:40:01Z</time>
      </trkpt>
      <trkpt lat="45.5333510" lon="9.3371860">
        <ele>131.6000000</ele>
        <time>2009-12-27T11:40:08Z</time>
      </trkpt>
      <trkpt lat="45.5329840" lon="9.3371810">
        <ele>131.4000000</ele>
        <time>2009-12-27T11:40:15Z</time>
      </trkpt>
      <trkpt lat="45.5328350" lon="9.3371530">
        <ele>131.6000000</ele>
        <time>2009-12-27T11:40:18Z</time>
      </trkpt>
      <trkpt lat="45.5326940" lon="9.3369190">
        <ele>131.6000000</ele>
        <time>2009-12-27T11:40:23Z</time>
      </trkpt>
      <trkpt lat="45.5326770" lon="9.3368660">
        <ele>131.8000000</ele>
        <time>2009-12-27T11:40:24Z</time>
      </trkpt>
      <trkpt lat="45.5326470" lon="9.3367540">
        <ele>131.8000000</ele>
        <time>2009-12-27T11:40:26Z</time>
      </trkpt>
      <trkpt lat="45.5326160" lon="9.3365490">
        <ele>132.0000000</ele>
        <time>2009-12-27T11:40:30Z</time>
      </trkpt>
      <trkpt lat="45.5325340" lon="9.3365660">
        <ele>131.8000000</ele>
        <time>2009-12-27T11:40:35Z</time>
      </trkpt>
      <trkpt lat="45.5325050" lon="9.3367000">
        <ele>131.6000000</ele>
        <time>2009-12-27T11:40:38Z</time>
      </trkpt>
      <trkpt lat="45.5324930" lon="9.3370930">
        <ele>131.8000000</ele>
        <time>2009-12-27T11:40:45Z</time>
      </trkpt>
      <trkpt lat="45.5324520" lon="9.3371950">
        <ele>132.0000000</ele>
        <time>2009-12-27T11:40:47Z</time>
      </trkpt>
      <trkpt lat="45.5322850" lon="9.3372420">
        <ele>131.8000000</ele>
        <time>2009-12-27T11:40:51Z</time>
      </trkpt>
      <trkpt lat="45.5321530" lon="9.3372470">
        <ele>131.4000000</ele>
        <time>2009-12-27T11:40:54Z</time>
      </trkpt>
      <trkpt lat="45.5321080" lon="9.3372530">
        <ele>131.2000000</ele>
        <time>2009-12-27T11:40:55Z</time>
      </trkpt>
      <trkpt lat="45.5319770" lon="9.3372850">
        <ele>131.0000000</ele>
        <time>2009-12-27T11:40:58Z</time>
      </trkpt>
      <trkpt lat="45.5318900" lon="9.3373270">
        <ele>130.8000000</ele>
        <time>2009-12-27T11:41:00Z</time>
      </trkpt>
      <trkpt lat="45.5317960" lon="9.3373350">
        <ele>130.2000000</ele>
        <time>2009-12-27T11:41:02Z</time>
      </trkpt>
      <trkpt lat="45.5313910" lon="9.3373140">
        <ele>128.8000000</ele>
        <time>2009-12-27T11:41:10Z</time>
      </trkpt>
      <trkpt lat="45.5313350" lon="9.3373120">
        <ele>128.6000000</ele>
        <time>2009-12-27T11:41:11Z</time>
      </trkpt>
      <trkpt lat="45.5310000" lon="9.3373350">
        <ele>129.0000000</ele>
        <time>2009-12-27T11:41:17Z</time>
      </trkpt>
      <trkpt lat="45.5305980" lon="9.3373520">
        <ele>129.2000000</ele>
        <time>2009-12-27T11:41:24Z</time>
      </trkpt>
      <trkpt lat="45.5302060" lon="9.3373750">
        <ele>128.2000000</ele>
        <time>2009-12-27T11:41:31Z</time>
      </trkpt>
      <trkpt lat="45.5298190" lon="9.3373980">
        <ele>127.6000000</ele>
        <time>2009-12-27T11:41:38Z</time>
      </trkpt>
      <trkpt lat="45.5294350" lon="9.3373930">
        <ele>127.6000000</ele>
        <time>2009-12-27T11:41:45Z</time>
      </trkpt>
      <trkpt lat="45.5290200" lon="9.3373980">
        <ele>129.6000000</ele>
        <time>2009-12-27T11:41:53Z</time>
      </trkpt>
      <trkpt lat="45.5286150" lon="9.3374180">
        <ele>128.0000000</ele>
        <time>2009-12-27T11:42:01Z</time>
      </trkpt>
      <trkpt lat="45.5282340" lon="9.3374270">
        <ele>127.6000000</ele>
        <time>2009-12-27T11:42:08Z</time>
      </trkpt>
      <trkpt lat="45.5281350" lon="9.3374460">
        <ele>127.2000000</ele>
        <time>2009-12-27T11:42:10Z</time>
      </trkpt>
      <trkpt lat="45.5278550" lon="9.3374050">
        <ele>128.2000000</ele>
        <time>2009-12-27T11:42:16Z</time>
      </trkpt>
      <trkpt lat="45.5277520" lon="9.3374190">
        <ele>128.6000000</ele>
        <time>2009-12-27T11:42:18Z</time>
      </trkpt>
      <trkpt lat="45.5274850" lon="9.3374670">
        <ele>128.8000000</ele>
        <time>2009-12-27T11:42:23Z</time>
      </trkpt>
      <trkpt lat="45.5270860" lon="9.3374940">
        <ele>128.8000000</ele>
        <time>2009-12-27T11:42:31Z</time>
      </trkpt>
      <trkpt lat="45.5267260" lon="9.3374870">
        <ele>129.0000000</ele>
        <time>2009-12-27T11:42:38Z</time>
      </trkpt>
      <trkpt lat="45.5264980" lon="9.3374690">
        <ele>130.4000000</ele>
        <time>2009-12-27T11:42:42Z</time>
      </trkpt>
      <trkpt lat="45.5263260" lon="9.3374620">
        <ele>131.2000000</ele>
        <time>2009-12-27T11:42:45Z</time>
      </trkpt>
      <trkpt lat="45.5262740" lon="9.3374620">
        <ele>130.8000000</ele>
        <time>2009-12-27T11:42:46Z</time>
      </trkpt>
      <trkpt lat="45.5259550" lon="9.3374790">
        <ele>128.8000000</ele>
        <time>2009-12-27T11:42:52Z</time>
      </trkpt>
      <trkpt lat="45.5255470" lon="9.3374770">
        <ele>128.4000000</ele>
        <time>2009-12-27T11:42:59Z</time>
      </trkpt>
      <trkpt lat="45.5251560" lon="9.3374870">
        <ele>126.6000000</ele>
        <time>2009-12-27T11:43:06Z</time>
      </trkpt>
      <trkpt lat="45.5247520" lon="9.3375020">
        <ele>126.4000000</ele>
        <time>2009-12-27T11:43:13Z</time>
      </trkpt>
      <trkpt lat="45.5243800" lon="9.3375220">
        <ele>127.4000000</ele>
        <time>2009-12-27T11:43:19Z</time>
      </trkpt>
      <trkpt lat="45.5239880" lon="9.3375430">
        <ele>126.6000000</ele>
        <time>2009-12-27T11:43:26Z</time>
      </trkpt>
      <trkpt lat="45.5236140" lon="9.3375110">
        <ele>126.2000000</ele>
        <time>2009-12-27T11:43:33Z</time>
      </trkpt>
      <trkpt lat="45.5235650" lon="9.3375000">
        <ele>126.2000000</ele>
        <time>2009-12-27T11:43:34Z</time>
      </trkpt>
      <trkpt lat="45.5233850" lon="9.3371790">
        <ele>126.4000000</ele>
        <time>2009-12-27T11:43:41Z</time>
      </trkpt>
      <trkpt lat="45.5233710" lon="9.3366640">
        <ele>127.0000000</ele>
        <time>2009-12-27T11:43:48Z</time>
      </trkpt>
      <trkpt lat="45.5233550" lon="9.3362040">
        <ele>127.6000000</ele>
        <time>2009-12-27T11:43:54Z</time>
      </trkpt>
      <trkpt lat="45.5233530" lon="9.3361300">
        <ele>127.6000000</ele>
        <time>2009-12-27T11:43:55Z</time>
      </trkpt>
      <trkpt lat="45.5233460" lon="9.3355830">
        <ele>127.6000000</ele>
        <time>2009-12-27T11:44:02Z</time>
      </trkpt>
      <trkpt lat="45.5233400" lon="9.3350450">
        <ele>129.8000000</ele>
        <time>2009-12-27T11:44:09Z</time>
      </trkpt>
      <trkpt lat="45.5232910" lon="9.3346310">
        <ele>132.8000000</ele>
        <time>2009-12-27T11:44:14Z</time>
      </trkpt>
      <trkpt lat="45.5232720" lon="9.3344660">
        <ele>132.6000000</ele>
        <time>2009-12-27T11:44:16Z</time>
      </trkpt>
      <trkpt lat="45.5232480" lon="9.3342020">
        <ele>133.0000000</ele>
        <time>2009-12-27T11:44:19Z</time>
      </trkpt>
      <trkpt lat="45.5232740" lon="9.3338840">
        <ele>134.0000000</ele>
        <time>2009-12-27T11:44:23Z</time>
      </trkpt>
      <trkpt lat="45.5232530" lon="9.3333320">
        <ele>131.0000000</ele>
        <time>2009-12-27T11:44:30Z</time>
      </trkpt>
      <trkpt lat="45.5232320" lon="9.3328150">
        <ele>130.0000000</ele>
        <time>2009-12-27T11:44:36Z</time>
      </trkpt>
      <trkpt lat="45.5232300" lon="9.3322390">
        <ele>129.2000000</ele>
        <time>2009-12-27T11:44:43Z</time>
      </trkpt>
      <trkpt lat="45.5232160" lon="9.3316680">
        <ele>128.8000000</ele>
        <time>2009-12-27T11:44:50Z</time>
      </trkpt>
      <trkpt lat="45.5232240" lon="9.3311070">
        <ele>128.6000000</ele>
        <time>2009-12-27T11:44:58Z</time>
      </trkpt>
      <trkpt lat="45.5232230" lon="9.3310460">
        <ele>128.2000000</ele>
        <time>2009-12-27T11:44:59Z</time>
      </trkpt>
      <trkpt lat="45.5232280" lon="9.3305710">
        <ele>129.6000000</ele>
        <time>2009-12-27T11:45:07Z</time>
      </trkpt>
      <trkpt lat="45.5232570" lon="9.3303370">
        <ele>129.2000000</ele>
        <time>2009-12-27T11:45:11Z</time>
      </trkpt>
      <trkpt lat="45.5231380" lon="9.3301350">
        <ele>127.6000000</ele>
        <time>2009-12-27T11:45:16Z</time>
      </trkpt>
      <trkpt lat="45.5231060" lon="9.3301170">
        <ele>126.8000000</ele>
        <time>2009-12-27T11:45:17Z</time>
      </trkpt>
      <trkpt lat="45.5227780" lon="9.3300300">
        <ele>129.4000000</ele>
        <time>2009-12-27T11:45:25Z</time>
      </trkpt>
      <trkpt lat="45.5227320" lon="9.3300350">
        <ele>129.6000000</ele>
        <time>2009-12-27T11:45:26Z</time>
      </trkpt>
      <trkpt lat="45.5226660" lon="9.3300480">
        <ele>126.8000000</ele>
        <time>2009-12-27T11:45:28Z</time>
      </trkpt>
      <trkpt lat="45.5224320" lon="9.3302740">
        <ele>131.6000000</ele>
        <time>2009-12-27T11:45:34Z</time>
      </trkpt>
      <trkpt lat="45.5223650" lon="9.3303170">
        <ele>131.6000000</ele>
        <time>2009-12-27T11:45:36Z</time>
      </trkpt>
      <trkpt lat="45.5221980" lon="9.3303890">
        <ele>132.4000000</ele>
        <time>2009-12-27T11:45:41Z</time>
      </trkpt>
      <trkpt lat="45.5220760" lon="9.3303720">
        <ele>130.8000000</ele>
        <time>2009-12-27T11:45:46Z</time>
      </trkpt>
      <trkpt lat="45.5220610" lon="9.3303540">
        <ele>130.4000000</ele>
        <time>2009-12-27T11:45:47Z</time>
      </trkpt>
      <trkpt lat="45.5220640" lon="9.3299020">
        <ele>127.8000000</ele>
        <time>2009-12-27T11:45:56Z</time>
      </trkpt>
      <trkpt lat="45.5220310" lon="9.3293690">
        <ele>128.8000000</ele>
        <time>2009-12-27T11:46:04Z</time>
      </trkpt>
      <trkpt lat="45.5220210" lon="9.3293020">
        <ele>128.4000000</ele>
        <time>2009-12-27T11:46:05Z</time>
      </trkpt>
      <trkpt lat="45.5219570" lon="9.3288450">
        <ele>127.8000000</ele>
        <time>2009-12-27T11:46:11Z</time>
      </trkpt>
      <trkpt lat="45.5219070" lon="9.3285480">
        <ele>127.0000000</ele>
        <time>2009-12-27T11:46:16Z</time>
      </trkpt>
      <trkpt lat="45.5218880" lon="9.3283320">
        <ele>128.4000000</ele>
        <time>2009-12-27T11:46:20Z</time>
      </trkpt>
      <trkpt lat="45.5217560" lon="9.3278410">
        <ele>127.4000000</ele>
        <time>2009-12-27T11:46:28Z</time>
      </trkpt>
      <trkpt lat="45.5215830" lon="9.3273640">
        <ele>129.6000000</ele>
        <time>2009-12-27T11:46:36Z</time>
      </trkpt>
      <trkpt lat="45.5215640" lon="9.3273040">
        <ele>130.2000000</ele>
        <time>2009-12-27T11:46:37Z</time>
      </trkpt>
      <trkpt lat="45.5214100" lon="9.3268480">
        <ele>130.4000000</ele>
        <time>2009-12-27T11:46:44Z</time>
      </trkpt>
      <trkpt lat="45.5212640" lon="9.3263240">
        <ele>129.8000000</ele>
        <time>2009-12-27T11:46:52Z</time>
      </trkpt>
      <trkpt lat="45.5210650" lon="9.3258440">
        <ele>130.0000000</ele>
        <time>2009-12-27T11:47:00Z</time>
      </trkpt>
      <trkpt lat="45.5208640" lon="9.3254100">
        <ele>129.4000000</ele>
        <time>2009-12-27T11:47:08Z</time>
      </trkpt>
      <trkpt lat="45.5207870" lon="9.3252580">
        <ele>129.0000000</ele>
        <time>2009-12-27T11:47:11Z</time>
      </trkpt>
      <trkpt lat="45.5206690" lon="9.3249210">
        <ele>127.2000000</ele>
        <time>2009-12-27T11:47:25Z</time>
      </trkpt>
      <trkpt lat="45.5206000" lon="9.3243870">
        <ele>127.2000000</ele>
        <time>2009-12-27T11:47:33Z</time>
      </trkpt>
      <trkpt lat="45.5205920" lon="9.3241810">
        <ele>127.6000000</ele>
        <time>2009-12-27T11:47:36Z</time>
      </trkpt>
      <trkpt lat="45.5205950" lon="9.3240430">
        <ele>127.4000000</ele>
        <time>2009-12-27T11:47:38Z</time>
      </trkpt>
      <trkpt lat="45.5205770" lon="9.3238250">
        <ele>128.0000000</ele>
        <time>2009-12-27T11:47:41Z</time>
      </trkpt>
      <trkpt lat="45.5205550" lon="9.3232520">
        <ele>127.2000000</ele>
        <time>2009-12-27T11:47:49Z</time>
      </trkpt>
      <trkpt lat="45.5205210" lon="9.3227350">
        <ele>127.6000000</ele>
        <time>2009-12-27T11:47:56Z</time>
      </trkpt>
      <trkpt lat="45.5205230" lon="9.3226640">
        <ele>127.4000000</ele>
        <time>2009-12-27T11:47:57Z</time>
      </trkpt>
      <trkpt lat="45.5205350" lon="9.3221600">
        <ele>126.8000000</ele>
        <time>2009-12-27T11:48:04Z</time>
      </trkpt>
      <trkpt lat="45.5205720" lon="9.3215790">
        <ele>126.4000000</ele>
        <time>2009-12-27T11:48:12Z</time>
      </trkpt>
      <trkpt lat="45.5205670" lon="9.3210640">
        <ele>126.2000000</ele>
        <time>2009-12-27T11:48:19Z</time>
      </trkpt>
      <trkpt lat="45.5205250" lon="9.3205010">
        <ele>126.2000000</ele>
        <time>2009-12-27T11:48:27Z</time>
      </trkpt>
      <trkpt lat="45.5204820" lon="9.3199250">
        <ele>125.2000000</ele>
        <time>2009-12-27T11:48:35Z</time>
      </trkpt>
      <trkpt lat="45.5204380" lon="9.3193960">
        <ele>125.4000000</ele>
        <time>2009-12-27T11:48:42Z</time>
      </trkpt>
      <trkpt lat="45.5204310" lon="9.3188600">
        <ele>126.0000000</ele>
        <time>2009-12-27T11:48:49Z</time>
      </trkpt>
      <trkpt lat="45.5204260" lon="9.3183250">
        <ele>125.8000000</ele>
        <time>2009-12-27T11:48:56Z</time>
      </trkpt>
      <trkpt lat="45.5204210" lon="9.3177980">
        <ele>125.6000000</ele>
        <time>2009-12-27T11:49:03Z</time>
      </trkpt>
      <trkpt lat="45.5204090" lon="9.3172660">
        <ele>124.8000000</ele>
        <time>2009-12-27T11:49:10Z</time>
      </trkpt>
      <trkpt lat="45.5203860" lon="9.3167300">
        <ele>123.6000000</ele>
        <time>2009-12-27T11:49:17Z</time>
      </trkpt>
      <trkpt lat="45.5203510" lon="9.3162020">
        <ele>123.0000000</ele>
        <time>2009-12-27T11:49:24Z</time>
      </trkpt>
      <trkpt lat="45.5203190" lon="9.3156780">
        <ele>122.2000000</ele>
        <time>2009-12-27T11:49:31Z</time>
      </trkpt>
      <trkpt lat="45.5202890" lon="9.3151610">
        <ele>121.6000000</ele>
        <time>2009-12-27T11:49:38Z</time>
      </trkpt>
      <trkpt lat="45.5202450" lon="9.3146120">
        <ele>121.8000000</ele>
        <time>2009-12-27T11:49:45Z</time>
      </trkpt>
      <trkpt lat="45.5202050" lon="9.3140440">
        <ele>123.2000000</ele>
        <time>2009-12-27T11:49:52Z</time>
      </trkpt>
      <trkpt lat="45.5201930" lon="9.3135020">
        <ele>124.6000000</ele>
        <time>2009-12-27T11:49:59Z</time>
      </trkpt>
      <trkpt lat="45.5202110" lon="9.3130630">
        <ele>124.8000000</ele>
        <time>2009-12-27T11:50:05Z</time>
      </trkpt>
      <trkpt lat="45.5202130" lon="9.3129860">
        <ele>125.0000000</ele>
        <time>2009-12-27T11:50:06Z</time>
      </trkpt>
      <trkpt lat="45.5202200" lon="9.3125980">
        <ele>124.8000000</ele>
        <time>2009-12-27T11:50:11Z</time>
      </trkpt>
      <trkpt lat="45.5202190" lon="9.3124430">
        <ele>124.8000000</ele>
        <time>2009-12-27T11:50:13Z</time>
      </trkpt>
      <trkpt lat="45.5202580" lon="9.3118930">
        <ele>123.6000000</ele>
        <time>2009-12-27T11:50:20Z</time>
      </trkpt>
      <trkpt lat="45.5202760" lon="9.3113460">
        <ele>122.0000000</ele>
        <time>2009-12-27T11:50:27Z</time>
      </trkpt>
      <trkpt lat="45.5202810" lon="9.3107920">
        <ele>122.6000000</ele>
        <time>2009-12-27T11:50:34Z</time>
      </trkpt>
      <trkpt lat="45.5202530" lon="9.3102300">
        <ele>123.8000000</ele>
        <time>2009-12-27T11:50:41Z</time>
      </trkpt>
      <trkpt lat="45.5202470" lon="9.3096840">
        <ele>123.4000000</ele>
        <time>2009-12-27T11:50:48Z</time>
      </trkpt>
      <trkpt lat="45.5202310" lon="9.3091460">
        <ele>122.0000000</ele>
        <time>2009-12-27T11:50:55Z</time>
      </trkpt>
      <trkpt lat="45.5202180" lon="9.3086050">
        <ele>121.6000000</ele>
        <time>2009-12-27T11:51:02Z</time>
      </trkpt>
      <trkpt lat="45.5202020" lon="9.3080530">
        <ele>122.0000000</ele>
        <time>2009-12-27T11:51:09Z</time>
      </trkpt>
      <trkpt lat="45.5201820" lon="9.3075190">
        <ele>122.4000000</ele>
        <time>2009-12-27T11:51:16Z</time>
      </trkpt>
      <trkpt lat="45.5201510" lon="9.3069890">
        <ele>123.6000000</ele>
        <time>2009-12-27T11:51:23Z</time>
      </trkpt>
      <trkpt lat="45.5201300" lon="9.3064460">
        <ele>124.4000000</ele>
        <time>2009-12-27T11:51:30Z</time>
      </trkpt>
      <trkpt lat="45.5201190" lon="9.3059060">
        <ele>125.8000000</ele>
        <time>2009-12-27T11:51:37Z</time>
      </trkpt>
      <trkpt lat="45.5201090" lon="9.3053880">
        <ele>125.6000000</ele>
        <time>2009-12-27T11:51:44Z</time>
      </trkpt>
      <trkpt lat="45.5200850" lon="9.3048310">
        <ele>126.6000000</ele>
        <time>2009-12-27T11:51:54Z</time>
      </trkpt>
      <trkpt lat="45.5200460" lon="9.3042990">
        <ele>126.4000000</ele>
        <time>2009-12-27T11:52:05Z</time>
      </trkpt>
      <trkpt lat="45.5200070" lon="9.3038020">
        <ele>124.8000000</ele>
        <time>2009-12-27T11:52:12Z</time>
      </trkpt>
      <trkpt lat="45.5199640" lon="9.3032780">
        <ele>124.8000000</ele>
        <time>2009-12-27T11:52:19Z</time>
      </trkpt>
      <trkpt lat="45.5199550" lon="9.3032130">
        <ele>125.0000000</ele>
        <time>2009-12-27T11:52:20Z</time>
      </trkpt>
      <trkpt lat="45.5198730" lon="9.3027090">
        <ele>125.0000000</ele>
        <time>2009-12-27T11:52:27Z</time>
      </trkpt>
      <trkpt lat="45.5197230" lon="9.3022070">
        <ele>125.2000000</ele>
        <time>2009-12-27T11:52:34Z</time>
      </trkpt>
      <trkpt lat="45.5195520" lon="9.3017540">
        <ele>125.4000000</ele>
        <time>2009-12-27T11:52:41Z</time>
      </trkpt>
      <trkpt lat="45.5193850" lon="9.3012880">
        <ele>125.8000000</ele>
        <time>2009-12-27T11:52:48Z</time>
      </trkpt>
      <trkpt lat="45.5192020" lon="9.3008220">
        <ele>126.6000000</ele>
        <time>2009-12-27T11:52:55Z</time>
      </trkpt>
      <trkpt lat="45.5190450" lon="9.3003440">
        <ele>127.0000000</ele>
        <time>2009-12-27T11:53:02Z</time>
      </trkpt>
      <trkpt lat="45.5189010" lon="9.2998440">
        <ele>126.4000000</ele>
        <time>2009-12-27T11:53:09Z</time>
      </trkpt>
      <trkpt lat="45.5188240" lon="9.2993160">
        <ele>126.8000000</ele>
        <time>2009-12-27T11:53:16Z</time>
      </trkpt>
      <trkpt lat="45.5188000" lon="9.2987620">
        <ele>126.8000000</ele>
        <time>2009-12-27T11:53:23Z</time>
      </trkpt>
      <trkpt lat="45.5187850" lon="9.2982220">
        <ele>127.0000000</ele>
        <time>2009-12-27T11:53:30Z</time>
      </trkpt>
      <trkpt lat="45.5187950" lon="9.2979320">
        <ele>126.4000000</ele>
        <time>2009-12-27T11:53:34Z</time>
      </trkpt>
      <trkpt lat="45.5187960" lon="9.2976370">
        <ele>126.0000000</ele>
        <time>2009-12-27T11:53:38Z</time>
      </trkpt>
      <trkpt lat="45.5187700" lon="9.2970720">
        <ele>125.6000000</ele>
        <time>2009-12-27T11:53:45Z</time>
      </trkpt>
      <trkpt lat="45.5187480" lon="9.2965260">
        <ele>125.4000000</ele>
        <time>2009-12-27T11:53:52Z</time>
      </trkpt>
      <trkpt lat="45.5187250" lon="9.2961410">
        <ele>125.2000000</ele>
        <time>2009-12-27T11:53:57Z</time>
      </trkpt>
      <trkpt lat="45.5187230" lon="9.2959900">
        <ele>125.4000000</ele>
        <time>2009-12-27T11:53:59Z</time>
      </trkpt>
      <trkpt lat="45.5186500" lon="9.2954300">
        <ele>125.6000000</ele>
        <time>2009-12-27T11:54:06Z</time>
      </trkpt>
      <trkpt lat="45.5185650" lon="9.2948780">
        <ele>124.8000000</ele>
        <time>2009-12-27T11:54:13Z</time>
      </trkpt>
      <trkpt lat="45.5185200" lon="9.2945780">
        <ele>125.2000000</ele>
        <time>2009-12-27T11:54:17Z</time>
      </trkpt>
      <trkpt lat="45.5184380" lon="9.2943690">
        <ele>126.4000000</ele>
        <time>2009-12-27T11:54:20Z</time>
      </trkpt>
      <trkpt lat="45.5184090" lon="9.2943050">
        <ele>126.0000000</ele>
        <time>2009-12-27T11:54:21Z</time>
      </trkpt>
      <trkpt lat="45.5182150" lon="9.2939220">
        <ele>125.4000000</ele>
        <time>2009-12-27T11:54:27Z</time>
      </trkpt>
      <trkpt lat="45.5179720" lon="9.2934830">
        <ele>125.2000000</ele>
        <time>2009-12-27T11:54:34Z</time>
      </trkpt>
      <trkpt lat="45.5177270" lon="9.2930590">
        <ele>125.8000000</ele>
        <time>2009-12-27T11:54:41Z</time>
      </trkpt>
      <trkpt lat="45.5174730" lon="9.2926440">
        <ele>126.0000000</ele>
        <time>2009-12-27T11:54:48Z</time>
      </trkpt>
      <trkpt lat="45.5172190" lon="9.2922280">
        <ele>126.4000000</ele>
        <time>2009-12-27T11:54:55Z</time>
      </trkpt>
      <trkpt lat="45.5169730" lon="9.2918210">
        <ele>125.6000000</ele>
        <time>2009-12-27T11:55:02Z</time>
      </trkpt>
      <trkpt lat="45.5167630" lon="9.2913820">
        <ele>125.2000000</ele>
        <time>2009-12-27T11:55:09Z</time>
      </trkpt>
      <trkpt lat="45.5166270" lon="9.2908820">
        <ele>124.8000000</ele>
        <time>2009-12-27T11:55:16Z</time>
      </trkpt>
      <trkpt lat="45.5165470" lon="9.2903440">
        <ele>125.0000000</ele>
        <time>2009-12-27T11:55:23Z</time>
      </trkpt>
      <trkpt lat="45.5165140" lon="9.2897870">
        <ele>125.4000000</ele>
        <time>2009-12-27T11:55:30Z</time>
      </trkpt>
      <trkpt lat="45.5165100" lon="9.2892200">
        <ele>125.4000000</ele>
        <time>2009-12-27T11:55:37Z</time>
      </trkpt>
      <trkpt lat="45.5164730" lon="9.2886510">
        <ele>125.6000000</ele>
        <time>2009-12-27T11:55:44Z</time>
      </trkpt>
      <trkpt lat="45.5164260" lon="9.2881100">
        <ele>126.0000000</ele>
        <time>2009-12-27T11:55:51Z</time>
      </trkpt>
      <trkpt lat="45.5164160" lon="9.2880410">
        <ele>126.0000000</ele>
        <time>2009-12-27T11:55:52Z</time>
      </trkpt>
      <trkpt lat="45.5164000" lon="9.2879120">
        <ele>126.4000000</ele>
        <time>2009-12-27T11:55:54Z</time>
      </trkpt>
      <trkpt lat="45.5164330" lon="9.2877020">
        <ele>126.2000000</ele>
        <time>2009-12-27T11:55:58Z</time>
      </trkpt>
      <trkpt lat="45.5164440" lon="9.2876540">
        <ele>126.2000000</ele>
        <time>2009-12-27T11:55:59Z</time>
      </trkpt>
      <trkpt lat="45.5164820" lon="9.2875550">
        <ele>125.6000000</ele>
        <time>2009-12-27T11:56:01Z</time>
      </trkpt>
      <trkpt lat="45.5165770" lon="9.2871640">
        <ele>126.0000000</ele>
        <time>2009-12-27T11:56:07Z</time>
      </trkpt>
      <trkpt lat="45.5166160" lon="9.2870220">
        <ele>125.4000000</ele>
        <time>2009-12-27T11:56:10Z</time>
      </trkpt>
      <trkpt lat="45.5167770" lon="9.2865120">
        <ele>124.2000000</ele>
        <time>2009-12-27T11:56:20Z</time>
      </trkpt>
      <trkpt lat="45.5169070" lon="9.2861570">
        <ele>124.6000000</ele>
        <time>2009-12-27T11:56:26Z</time>
      </trkpt>
      <trkpt lat="45.5169400" lon="9.2860360">
        <ele>124.8000000</ele>
        <time>2009-12-27T11:56:28Z</time>
      </trkpt>
      <trkpt lat="45.5170720" lon="9.2855530">
        <ele>126.0000000</ele>
        <time>2009-12-27T11:56:36Z</time>
      </trkpt>
      <trkpt lat="45.5172090" lon="9.2850640">
        <ele>127.8000000</ele>
        <time>2009-12-27T11:56:44Z</time>
      </trkpt>
      <trkpt lat="45.5172770" lon="9.2847390">
        <ele>127.6000000</ele>
        <time>2009-12-27T11:56:49Z</time>
      </trkpt>
      <trkpt lat="45.5173070" lon="9.2845260">
        <ele>127.0000000</ele>
        <time>2009-12-27T11:56:52Z</time>
      </trkpt>
      <trkpt lat="45.5173150" lon="9.2844560">
        <ele>127.0000000</ele>
        <time>2009-12-27T11:56:53Z</time>
      </trkpt>
      <trkpt lat="45.5173520" lon="9.2839660">
        <ele>128.2000000</ele>
        <time>2009-12-27T11:57:03Z</time>
      </trkpt>
      <trkpt lat="45.5173540" lon="9.2838810">
        <ele>128.6000000</ele>
        <time>2009-12-27T11:57:07Z</time>
      </trkpt>
      <trkpt lat="45.5173560" lon="9.2837420">
        <ele>132.4000000</ele>
        <time>2009-12-27T12:59:19Z</time>
      </trkpt>
      <trkpt lat="45.5173800" lon="9.2835140">
        <ele>131.2000000</ele>
        <time>2009-12-27T12:59:24Z</time>
      </trkpt>
      <trkpt lat="45.5173310" lon="9.2829790">
        <ele>127.4000000</ele>
        <time>2009-12-27T12:59:31Z</time>
      </trkpt>
      <trkpt lat="45.5172840" lon="9.2824020">
        <ele>128.6000000</ele>
        <time>2009-12-27T12:59:39Z</time>
      </trkpt>
      <trkpt lat="45.5172430" lon="9.2818610">
        <ele>126.8000000</ele>
        <time>2009-12-27T12:59:47Z</time>
      </trkpt>
      <trkpt lat="45.5172360" lon="9.2813200">
        <ele>123.0000000</ele>
        <time>2009-12-27T12:59:56Z</time>
      </trkpt>
      <trkpt lat="45.5172040" lon="9.2807790">
        <ele>124.2000000</ele>
        <time>2009-12-27T13:00:04Z</time>
      </trkpt>
      <trkpt lat="45.5171770" lon="9.2802490">
        <ele>124.8000000</ele>
        <time>2009-12-27T13:00:12Z</time>
      </trkpt>
      <trkpt lat="45.5171310" lon="9.2797040">
        <ele>125.4000000</ele>
        <time>2009-12-27T13:00:20Z</time>
      </trkpt>
      <trkpt lat="45.5171120" lon="9.2791890">
        <ele>125.6000000</ele>
        <time>2009-12-27T13:00:28Z</time>
      </trkpt>
      <trkpt lat="45.5170870" lon="9.2786630">
        <ele>126.8000000</ele>
        <time>2009-12-27T13:00:36Z</time>
      </trkpt>
      <trkpt lat="45.5170720" lon="9.2781270">
        <ele>128.0000000</ele>
        <time>2009-12-27T13:00:44Z</time>
      </trkpt>
      <trkpt lat="45.5170450" lon="9.2776050">
        <ele>128.8000000</ele>
        <time>2009-12-27T13:00:52Z</time>
      </trkpt>
      <trkpt lat="45.5170180" lon="9.2770630">
        <ele>129.8000000</ele>
        <time>2009-12-27T13:01:00Z</time>
      </trkpt>
      <trkpt lat="45.5170020" lon="9.2765270">
        <ele>131.6000000</ele>
        <time>2009-12-27T13:01:08Z</time>
      </trkpt>
      <trkpt lat="45.5169790" lon="9.2759710">
        <ele>132.6000000</ele>
        <time>2009-12-27T13:01:16Z</time>
      </trkpt>
      <trkpt lat="45.5169370" lon="9.2754280">
        <ele>130.0000000</ele>
        <time>2009-12-27T13:01:24Z</time>
      </trkpt>
      <trkpt lat="45.5169210" lon="9.2748730">
        <ele>133.4000000</ele>
        <time>2009-12-27T13:01:33Z</time>
      </trkpt>
      <trkpt lat="45.5168890" lon="9.2743460">
        <ele>132.0000000</ele>
        <time>2009-12-27T13:01:43Z</time>
      </trkpt>
      <trkpt lat="45.5168620" lon="9.2737940">
        <ele>129.8000000</ele>
        <time>2009-12-27T13:01:51Z</time>
      </trkpt>
      <trkpt lat="45.5168380" lon="9.2732510">
        <ele>129.6000000</ele>
        <time>2009-12-27T13:01:58Z</time>
      </trkpt>
      <trkpt lat="45.5168190" lon="9.2726670">
        <ele>129.6000000</ele>
        <time>2009-12-27T13:02:06Z</time>
      </trkpt>
      <trkpt lat="45.5168210" lon="9.2721070">
        <ele>128.8000000</ele>
        <time>2009-12-27T13:02:14Z</time>
      </trkpt>
      <trkpt lat="45.5168280" lon="9.2715860">
        <ele>127.8000000</ele>
        <time>2009-12-27T13:02:21Z</time>
      </trkpt>
      <trkpt lat="45.5168290" lon="9.2710110">
        <ele>124.4000000</ele>
        <time>2009-12-27T13:02:29Z</time>
      </trkpt>
      <trkpt lat="45.5168190" lon="9.2708730">
        <ele>123.2000000</ele>
        <time>2009-12-27T13:02:31Z</time>
      </trkpt>
      <trkpt lat="45.5168770" lon="9.2705780">
        <ele>123.6000000</ele>
        <time>2009-12-27T13:02:35Z</time>
      </trkpt>
      <trkpt lat="45.5168930" lon="9.2705070">
        <ele>124.0000000</ele>
        <time>2009-12-27T13:02:36Z</time>
      </trkpt>
      <trkpt lat="45.5169390" lon="9.2701060">
        <ele>120.8000000</ele>
        <time>2009-12-27T13:02:42Z</time>
      </trkpt>
      <trkpt lat="45.5169630" lon="9.2699780">
        <ele>121.4000000</ele>
        <time>2009-12-27T13:02:44Z</time>
      </trkpt>
      <trkpt lat="45.5170750" lon="9.2694170">
        <ele>126.8000000</ele>
        <time>2009-12-27T13:02:52Z</time>
      </trkpt>
      <trkpt lat="45.5171780" lon="9.2688520">
        <ele>129.6000000</ele>
        <time>2009-12-27T13:03:00Z</time>
      </trkpt>
      <trkpt lat="45.5172740" lon="9.2682820">
        <ele>129.4000000</ele>
        <time>2009-12-27T13:03:08Z</time>
      </trkpt>
      <trkpt lat="45.5173480" lon="9.2677650">
        <ele>129.2000000</ele>
        <time>2009-12-27T13:03:15Z</time>
      </trkpt>
      <trkpt lat="45.5174310" lon="9.2672050">
        <ele>129.6000000</ele>
        <time>2009-12-27T13:03:23Z</time>
      </trkpt>
      <trkpt lat="45.5175450" lon="9.2666810">
        <ele>132.8000000</ele>
        <time>2009-12-27T13:03:33Z</time>
      </trkpt>
      <trkpt lat="45.5176610" lon="9.2661800">
        <ele>131.2000000</ele>
        <time>2009-12-27T13:03:44Z</time>
      </trkpt>
      <trkpt lat="45.5177800" lon="9.2656490">
        <ele>131.0000000</ele>
        <time>2009-12-27T13:03:52Z</time>
      </trkpt>
      <trkpt lat="45.5178930" lon="9.2651530">
        <ele>131.2000000</ele>
        <time>2009-12-27T13:03:59Z</time>
      </trkpt>
      <trkpt lat="45.5179910" lon="9.2646580">
        <ele>131.4000000</ele>
        <time>2009-12-27T13:04:06Z</time>
      </trkpt>
      <trkpt lat="45.5180750" lon="9.2641250">
        <ele>129.8000000</ele>
        <time>2009-12-27T13:04:14Z</time>
      </trkpt>
      <trkpt lat="45.5181800" lon="9.2635840">
        <ele>128.4000000</ele>
        <time>2009-12-27T13:04:22Z</time>
      </trkpt>
      <trkpt lat="45.5182400" lon="9.2632530">
        <ele>129.8000000</ele>
        <time>2009-12-27T13:04:27Z</time>
      </trkpt>
      <trkpt lat="45.5182630" lon="9.2631250">
        <ele>130.6000000</ele>
        <time>2009-12-27T13:04:29Z</time>
      </trkpt>
      <trkpt lat="45.5182720" lon="9.2630620">
        <ele>129.8000000</ele>
        <time>2009-12-27T13:04:30Z</time>
      </trkpt>
      <trkpt lat="45.5183090" lon="9.2628360">
        <ele>130.4000000</ele>
        <time>2009-12-27T13:04:33Z</time>
      </trkpt>
      <trkpt lat="45.5183040" lon="9.2625340">
        <ele>129.0000000</ele>
        <time>2009-12-27T13:04:37Z</time>
      </trkpt>
      <trkpt lat="45.5182820" lon="9.2619960">
        <ele>125.4000000</ele>
        <time>2009-12-27T13:04:44Z</time>
      </trkpt>
      <trkpt lat="45.5182890" lon="9.2619220">
        <ele>125.0000000</ele>
        <time>2009-12-27T13:04:45Z</time>
      </trkpt>
      <trkpt lat="45.5182660" lon="9.2614530">
        <ele>122.4000000</ele>
        <time>2009-12-27T13:04:51Z</time>
      </trkpt>
      <trkpt lat="45.5182580" lon="9.2611800">
        <ele>122.6000000</ele>
        <time>2009-12-27T13:04:54Z</time>
      </trkpt>
      <trkpt lat="45.5184260" lon="9.2611240">
        <ele>128.4000000</ele>
        <time>2009-12-27T13:04:58Z</time>
      </trkpt>
      <trkpt lat="45.5185000" lon="9.2611130">
        <ele>130.0000000</ele>
        <time>2009-12-27T13:05:00Z</time>
      </trkpt>
      <trkpt lat="45.5186550" lon="9.2607450">
        <ele>129.4000000</ele>
        <time>2009-12-27T13:05:10Z</time>
      </trkpt>
      <trkpt lat="45.5187280" lon="9.2602320">
        <ele>127.8000000</ele>
        <time>2009-12-27T13:05:19Z</time>
      </trkpt>
      <trkpt lat="45.5188360" lon="9.2597360">
        <ele>127.2000000</ele>
        <time>2009-12-27T13:05:28Z</time>
      </trkpt>
      <trkpt lat="45.5188830" lon="9.2592030">
        <ele>133.6000000</ele>
        <time>2009-12-27T13:05:40Z</time>
      </trkpt>
      <trkpt lat="45.5187710" lon="9.2587220">
        <ele>133.6000000</ele>
        <time>2009-12-27T13:05:51Z</time>
      </trkpt>
      <trkpt lat="45.5185630" lon="9.2582700">
        <ele>132.6000000</ele>
        <time>2009-12-27T13:05:59Z</time>
      </trkpt>
      <trkpt lat="45.5184240" lon="9.2580180">
        <ele>132.0000000</ele>
        <time>2009-12-27T13:06:05Z</time>
      </trkpt>
      <trkpt lat="45.5183200" lon="9.2578660">
        <ele>131.6000000</ele>
        <time>2009-12-27T13:06:09Z</time>
      </trkpt>
      <trkpt lat="45.5181230" lon="9.2574170">
        <ele>131.4000000</ele>
        <time>2009-12-27T13:06:18Z</time>
      </trkpt>
      <trkpt lat="45.5180570" lon="9.2572540">
        <ele>131.2000000</ele>
        <time>2009-12-27T13:06:21Z</time>
      </trkpt>
      <trkpt lat="45.5178960" lon="9.2569860">
        <ele>131.2000000</ele>
        <time>2009-12-27T13:06:26Z</time>
      </trkpt>
      <trkpt lat="45.5175720" lon="9.2566730">
        <ele>130.8000000</ele>
        <time>2009-12-27T13:06:34Z</time>
      </trkpt>
      <trkpt lat="45.5171990" lon="9.2565230">
        <ele>129.4000000</ele>
        <time>2009-12-27T13:06:42Z</time>
      </trkpt>
      <trkpt lat="45.5168120" lon="9.2565110">
        <ele>127.8000000</ele>
        <time>2009-12-27T13:06:50Z</time>
      </trkpt>
      <trkpt lat="45.5165450" lon="9.2565140">
        <ele>127.8000000</ele>
        <time>2009-12-27T13:06:56Z</time>
      </trkpt>
      <trkpt lat="45.5164170" lon="9.2564810">
        <ele>128.4000000</ele>
        <time>2009-12-27T13:06:59Z</time>
      </trkpt>
      <trkpt lat="45.5161510" lon="9.2563680">
        <ele>128.6000000</ele>
        <time>2009-12-27T13:07:05Z</time>
      </trkpt>
      <trkpt lat="45.5160650" lon="9.2563030">
        <ele>128.8000000</ele>
        <time>2009-12-27T13:07:07Z</time>
      </trkpt>
      <trkpt lat="45.5157160" lon="9.2560130">
        <ele>129.2000000</ele>
        <time>2009-12-27T13:07:15Z</time>
      </trkpt>
      <trkpt lat="45.5153960" lon="9.2556860">
        <ele>130.4000000</ele>
        <time>2009-12-27T13:07:23Z</time>
      </trkpt>
      <trkpt lat="45.5150900" lon="9.2553180">
        <ele>131.4000000</ele>
        <time>2009-12-27T13:07:31Z</time>
      </trkpt>
      <trkpt lat="45.5147990" lon="9.2549580">
        <ele>132.2000000</ele>
        <time>2009-12-27T13:07:39Z</time>
      </trkpt>
      <trkpt lat="45.5145180" lon="9.2546120">
        <ele>132.8000000</ele>
        <time>2009-12-27T13:07:47Z</time>
      </trkpt>
      <trkpt lat="45.5142390" lon="9.2542650">
        <ele>133.2000000</ele>
        <time>2009-12-27T13:07:55Z</time>
      </trkpt>
      <trkpt lat="45.5139400" lon="9.2539670">
        <ele>133.4000000</ele>
        <time>2009-12-27T13:08:03Z</time>
      </trkpt>
      <trkpt lat="45.5138120" lon="9.2539090">
        <ele>133.2000000</ele>
        <time>2009-12-27T13:08:06Z</time>
      </trkpt>
      <trkpt lat="45.5136310" lon="9.2539090">
        <ele>133.4000000</ele>
        <time>2009-12-27T13:08:10Z</time>
      </trkpt>
      <trkpt lat="45.5135840" lon="9.2539180">
        <ele>133.4000000</ele>
        <time>2009-12-27T13:08:11Z</time>
      </trkpt>
      <trkpt lat="45.5132110" lon="9.2540660">
        <ele>133.2000000</ele>
        <time>2009-12-27T13:08:19Z</time>
      </trkpt>
      <trkpt lat="45.5128330" lon="9.2542390">
        <ele>132.4000000</ele>
        <time>2009-12-27T13:08:27Z</time>
      </trkpt>
      <trkpt lat="45.5124490" lon="9.2543710">
        <ele>132.2000000</ele>
        <time>2009-12-27T13:08:35Z</time>
      </trkpt>
      <trkpt lat="45.5120770" lon="9.2545080">
        <ele>131.2000000</ele>
        <time>2009-12-27T13:08:43Z</time>
      </trkpt>
      <trkpt lat="45.5116960" lon="9.2545860">
        <ele>131.8000000</ele>
        <time>2009-12-27T13:08:51Z</time>
      </trkpt>
      <trkpt lat="45.5116510" lon="9.2545770">
        <ele>132.0000000</ele>
        <time>2009-12-27T13:08:52Z</time>
      </trkpt>
      <trkpt lat="45.5114560" lon="9.2544380">
        <ele>131.2000000</ele>
        <time>2009-12-27T13:08:57Z</time>
      </trkpt>
      <trkpt lat="45.5113620" lon="9.2543250">
        <ele>130.4000000</ele>
        <time>2009-12-27T13:09:00Z</time>
      </trkpt>
      <trkpt lat="45.5113290" lon="9.2542960">
        <ele>130.6000000</ele>
        <time>2009-12-27T13:09:01Z</time>
      </trkpt>
      <trkpt lat="45.5112600" lon="9.2542490">
        <ele>130.6000000</ele>
        <time>2009-12-27T13:09:03Z</time>
      </trkpt>
      <trkpt lat="45.5112020" lon="9.2539860">
        <ele>130.0000000</ele>
        <time>2009-12-27T13:09:08Z</time>
      </trkpt>
      <trkpt lat="45.5111820" lon="9.2538680">
        <ele>130.0000000</ele>
        <time>2009-12-27T13:09:10Z</time>
      </trkpt>
      <trkpt lat="45.5110900" lon="9.2533610">
        <ele>131.2000000</ele>
        <time>2009-12-27T13:09:18Z</time>
      </trkpt>
      <trkpt lat="45.5109920" lon="9.2528290">
        <ele>132.0000000</ele>
        <time>2009-12-27T13:09:26Z</time>
      </trkpt>
      <trkpt lat="45.5108800" lon="9.2522800">
        <ele>131.4000000</ele>
        <time>2009-12-27T13:09:34Z</time>
      </trkpt>
      <trkpt lat="45.5107680" lon="9.2517320">
        <ele>130.6000000</ele>
        <time>2009-12-27T13:09:42Z</time>
      </trkpt>
      <trkpt lat="45.5106750" lon="9.2512010">
        <ele>129.8000000</ele>
        <time>2009-12-27T13:09:50Z</time>
      </trkpt>
      <trkpt lat="45.5105750" lon="9.2506420">
        <ele>132.8000000</ele>
        <time>2009-12-27T13:09:58Z</time>
      </trkpt>
      <trkpt lat="45.5105530" lon="9.2505030">
        <ele>134.4000000</ele>
        <time>2009-12-27T13:10:00Z</time>
      </trkpt>
      <trkpt lat="45.5104860" lon="9.2500760">
        <ele>134.8000000</ele>
        <time>2009-12-27T13:10:06Z</time>
      </trkpt>
      <trkpt lat="45.5103870" lon="9.2495780">
        <ele>133.4000000</ele>
        <time>2009-12-27T13:10:13Z</time>
      </trkpt>
      <trkpt lat="45.5102830" lon="9.2490860">
        <ele>132.2000000</ele>
        <time>2009-12-27T13:10:20Z</time>
      </trkpt>
      <trkpt lat="45.5101170" lon="9.2485550">
        <ele>132.8000000</ele>
        <time>2009-12-27T13:10:28Z</time>
      </trkpt>
      <trkpt lat="45.5098740" lon="9.2481030">
        <ele>134.6000000</ele>
        <time>2009-12-27T13:10:36Z</time>
      </trkpt>
      <trkpt lat="45.5096720" lon="9.2477560">
        <ele>135.4000000</ele>
        <time>2009-12-27T13:10:43Z</time>
      </trkpt>
      <trkpt lat="45.5096640" lon="9.2476650">
        <ele>135.4000000</ele>
        <time>2009-12-27T13:10:45Z</time>
      </trkpt>
      <trkpt lat="45.5096670" lon="9.2475970">
        <ele>134.2000000</ele>
        <time>2009-12-27T13:10:47Z</time>
      </trkpt>
      <trkpt lat="45.5096620" lon="9.2475660">
        <ele>133.8000000</ele>
        <time>2009-12-27T13:10:48Z</time>
      </trkpt>
      <trkpt lat="45.5095710" lon="9.2474630">
        <ele>132.4000000</ele>
        <time>2009-12-27T13:10:52Z</time>
      </trkpt>
      <trkpt lat="45.5094860" lon="9.2474350">
        <ele>132.4000000</ele>
        <time>2009-12-27T13:10:57Z</time>
      </trkpt>
      <trkpt lat="45.5094330" lon="9.2473430">
        <ele>131.6000000</ele>
        <time>2009-12-27T13:11:00Z</time>
      </trkpt>
      <trkpt lat="45.5092030" lon="9.2469160">
        <ele>132.2000000</ele>
        <time>2009-12-27T13:11:09Z</time>
      </trkpt>
      <trkpt lat="45.5091680" lon="9.2468230">
        <ele>133.8000000</ele>
        <time>2009-12-27T13:11:11Z</time>
      </trkpt>
      <trkpt lat="45.5090250" lon="9.2464410">
        <ele>140.6000000</ele>
        <time>2009-12-27T13:11:22Z</time>
      </trkpt>
      <trkpt lat="45.5088110" lon="9.2459610">
        <ele>139.0000000</ele>
        <time>2009-12-27T13:11:31Z</time>
      </trkpt>
      <trkpt lat="45.5086700" lon="9.2456260">
        <ele>139.8000000</ele>
        <time>2009-12-27T13:11:37Z</time>
      </trkpt>
      <trkpt lat="45.5086030" lon="9.2455240">
        <ele>138.2000000</ele>
        <time>2009-12-27T13:11:39Z</time>
      </trkpt>
      <trkpt lat="45.5083740" lon="9.2450680">
        <ele>134.2000000</ele>
        <time>2009-12-27T13:11:47Z</time>
      </trkpt>
      <trkpt lat="45.5082580" lon="9.2447950">
        <ele>135.8000000</ele>
        <time>2009-12-27T13:11:52Z</time>
      </trkpt>
      <trkpt lat="45.5082110" lon="9.2447000">
        <ele>136.6000000</ele>
        <time>2009-12-27T13:11:54Z</time>
      </trkpt>
      <trkpt lat="45.5081830" lon="9.2446000">
        <ele>137.4000000</ele>
        <time>2009-12-27T13:11:56Z</time>
      </trkpt>
      <trkpt lat="45.5081610" lon="9.2444910">
        <ele>136.4000000</ele>
        <time>2009-12-27T13:11:58Z</time>
      </trkpt>
      <trkpt lat="45.5080770" lon="9.2440460">
        <ele>149.8000000</ele>
        <time>2009-12-27T13:12:08Z</time>
      </trkpt>
      <trkpt lat="45.5080260" lon="9.2439100">
        <ele>153.4000000</ele>
        <time>2009-12-27T13:12:10Z</time>
      </trkpt>
      <trkpt lat="45.5078600" lon="9.2436280">
        <ele>150.0000000</ele>
        <time>2009-12-27T13:12:15Z</time>
      </trkpt>
      <trkpt lat="45.5075830" lon="9.2432310">
        <ele>142.0000000</ele>
        <time>2009-12-27T13:12:21Z</time>
      </trkpt>
      <trkpt lat="45.5073500" lon="9.2428110">
        <ele>136.4000000</ele>
        <time>2009-12-27T13:12:29Z</time>
      </trkpt>
      <trkpt lat="45.5071380" lon="9.2423820">
        <ele>134.6000000</ele>
        <time>2009-12-27T13:12:37Z</time>
      </trkpt>
      <trkpt lat="45.5069300" lon="9.2419530">
        <ele>133.0000000</ele>
        <time>2009-12-27T13:12:45Z</time>
      </trkpt>
      <trkpt lat="45.5067190" lon="9.2414730">
        <ele>135.6000000</ele>
        <time>2009-12-27T13:12:54Z</time>
      </trkpt>
      <trkpt lat="45.5065140" lon="9.2410410">
        <ele>135.2000000</ele>
        <time>2009-12-27T13:13:02Z</time>
      </trkpt>
      <trkpt lat="45.5063100" lon="9.2406040">
        <ele>137.0000000</ele>
        <time>2009-12-27T13:13:10Z</time>
      </trkpt>
      <trkpt lat="45.5060700" lon="9.2401490">
        <ele>134.4000000</ele>
        <time>2009-12-27T13:13:18Z</time>
      </trkpt>
      <trkpt lat="45.5060160" lon="9.2400390">
        <ele>134.8000000</ele>
        <time>2009-12-27T13:13:20Z</time>
      </trkpt>
      <trkpt lat="45.5058640" lon="9.2397120">
        <ele>132.6000000</ele>
        <time>2009-12-27T13:13:26Z</time>
      </trkpt>
      <trkpt lat="45.5057930" lon="9.2395420">
        <ele>134.0000000</ele>
        <time>2009-12-27T13:13:29Z</time>
      </trkpt>
      <trkpt lat="45.5056560" lon="9.2392690">
        <ele>133.6000000</ele>
        <time>2009-12-27T13:13:34Z</time>
      </trkpt>
      <trkpt lat="45.5054770" lon="9.2387680">
        <ele>146.2000000</ele>
        <time>2009-12-27T13:13:43Z</time>
      </trkpt>
      <trkpt lat="45.5054510" lon="9.2386530">
        <ele>146.8000000</ele>
        <time>2009-12-27T13:13:45Z</time>
      </trkpt>
      <trkpt lat="45.5053830" lon="9.2383910">
        <ele>155.2000000</ele>
        <time>2009-12-27T13:13:50Z</time>
      </trkpt>
      <trkpt lat="45.5053550" lon="9.2383350">
        <ele>155.0000000</ele>
        <time>2009-12-27T13:13:51Z</time>
      </trkpt>
      <trkpt lat="45.5053160" lon="9.2382770">
        <ele>153.8000000</ele>
        <time>2009-12-27T13:13:52Z</time>
      </trkpt>
      <trkpt lat="45.5051660" lon="9.2380480">
        <ele>145.6000000</ele>
        <time>2009-12-27T13:13:56Z</time>
      </trkpt>
      <trkpt lat="45.5050670" lon="9.2378190">
        <ele>143.4000000</ele>
        <time>2009-12-27T13:14:00Z</time>
      </trkpt>
      <trkpt lat="45.5050060" lon="9.2376770">
        <ele>141.2000000</ele>
        <time>2009-12-27T13:14:02Z</time>
      </trkpt>
      <trkpt lat="45.5049010" lon="9.2373540">
        <ele>137.8000000</ele>
        <time>2009-12-27T13:14:07Z</time>
      </trkpt>
      <trkpt lat="45.5047780" lon="9.2368470">
        <ele>132.2000000</ele>
        <time>2009-12-27T13:14:15Z</time>
      </trkpt>
      <trkpt lat="45.5046860" lon="9.2364620">
        <ele>131.2000000</ele>
        <time>2009-12-27T13:14:21Z</time>
      </trkpt>
      <trkpt lat="45.5046740" lon="9.2363280">
        <ele>131.0000000</ele>
        <time>2009-12-27T13:14:23Z</time>
      </trkpt>
      <trkpt lat="45.5045960" lon="9.2357990">
        <ele>130.4000000</ele>
        <time>2009-12-27T13:14:31Z</time>
      </trkpt>
      <trkpt lat="45.5044860" lon="9.2352660">
        <ele>129.8000000</ele>
        <time>2009-12-27T13:14:39Z</time>
      </trkpt>
      <trkpt lat="45.5043870" lon="9.2347200">
        <ele>130.4000000</ele>
        <time>2009-12-27T13:14:47Z</time>
      </trkpt>
      <trkpt lat="45.5042690" lon="9.2341910">
        <ele>130.8000000</ele>
        <time>2009-12-27T13:14:55Z</time>
      </trkpt>
      <trkpt lat="45.5041900" lon="9.2338050">
        <ele>130.4000000</ele>
        <time>2009-12-27T13:15:02Z</time>
      </trkpt>
      <trkpt lat="45.5041740" lon="9.2336750">
        <ele>129.4000000</ele>
        <time>2009-12-27T13:15:04Z</time>
      </trkpt>
      <trkpt lat="45.5041370" lon="9.2334260">
        <ele>127.8000000</ele>
        <time>2009-12-27T13:15:07Z</time>
      </trkpt>
      <trkpt lat="45.5041180" lon="9.2331970">
        <ele>128.4000000</ele>
        <time>2009-12-27T13:15:10Z</time>
      </trkpt>
      <trkpt lat="45.5041150" lon="9.2331250">
        <ele>128.6000000</ele>
        <time>2009-12-27T13:15:11Z</time>
      </trkpt>
      <trkpt lat="45.5040510" lon="9.2325590">
        <ele>128.0000000</ele>
        <time>2009-12-27T13:15:19Z</time>
      </trkpt>
      <trkpt lat="45.5040250" lon="9.2322840">
        <ele>129.8000000</ele>
        <time>2009-12-27T13:15:23Z</time>
      </trkpt>
      <trkpt lat="45.5039600" lon="9.2320200">
        <ele>128.6000000</ele>
        <time>2009-12-27T13:15:28Z</time>
      </trkpt>
      <trkpt lat="45.5039650" lon="9.2319630">
        <ele>128.4000000</ele>
        <time>2009-12-27T13:15:29Z</time>
      </trkpt>
      <trkpt lat="45.5039720" lon="9.2318430">
        <ele>127.8000000</ele>
        <time>2009-12-27T13:15:31Z</time>
      </trkpt>
      <trkpt lat="45.5039410" lon="9.2314620">
        <ele>126.0000000</ele>
        <time>2009-12-27T13:15:37Z</time>
      </trkpt>
      <trkpt lat="45.5038660" lon="9.2308930">
        <ele>126.6000000</ele>
        <time>2009-12-27T13:15:45Z</time>
      </trkpt>
      <trkpt lat="45.5037730" lon="9.2303450">
        <ele>126.4000000</ele>
        <time>2009-12-27T13:15:53Z</time>
      </trkpt>
      <trkpt lat="45.5036980" lon="9.2299230">
        <ele>127.2000000</ele>
        <time>2009-12-27T13:15:59Z</time>
      </trkpt>
      <trkpt lat="45.5036680" lon="9.2297820">
        <ele>127.8000000</ele>
        <time>2009-12-27T13:16:01Z</time>
      </trkpt>
      <trkpt lat="45.5035710" lon="9.2292280">
        <ele>128.0000000</ele>
        <time>2009-12-27T13:16:09Z</time>
      </trkpt>
      <trkpt lat="45.5035050" lon="9.2288960">
        <ele>127.8000000</ele>
        <time>2009-12-27T13:16:14Z</time>
      </trkpt>
      <trkpt lat="45.5034680" lon="9.2287620">
        <ele>127.8000000</ele>
        <time>2009-12-27T13:16:16Z</time>
      </trkpt>
      <trkpt lat="45.5034550" lon="9.2286920">
        <ele>128.0000000</ele>
        <time>2009-12-27T13:16:17Z</time>
      </trkpt>
      <trkpt lat="45.5033860" lon="9.2281640">
        <ele>126.8000000</ele>
        <time>2009-12-27T13:16:25Z</time>
      </trkpt>
      <trkpt lat="45.5033730" lon="9.2276360">
        <ele>123.8000000</ele>
        <time>2009-12-27T13:16:33Z</time>
      </trkpt>
      <trkpt lat="45.5033960" lon="9.2270910">
        <ele>123.2000000</ele>
        <time>2009-12-27T13:16:40Z</time>
      </trkpt>
      <trkpt lat="45.5035050" lon="9.2265830">
        <ele>126.0000000</ele>
        <time>2009-12-27T13:16:47Z</time>
      </trkpt>
      <trkpt lat="45.5036420" lon="9.2260850">
        <ele>130.8000000</ele>
        <time>2009-12-27T13:16:54Z</time>
      </trkpt>
      <trkpt lat="45.5037720" lon="9.2257580">
        <ele>130.6000000</ele>
        <time>2009-12-27T13:16:59Z</time>
      </trkpt>
      <trkpt lat="45.5038130" lon="9.2256210">
        <ele>130.2000000</ele>
        <time>2009-12-27T13:17:01Z</time>
      </trkpt>
      <trkpt lat="45.5039480" lon="9.2251760">
        <ele>130.4000000</ele>
        <time>2009-12-27T13:17:08Z</time>
      </trkpt>
      <trkpt lat="45.5039570" lon="9.2251120">
        <ele>130.0000000</ele>
        <time>2009-12-27T13:17:09Z</time>
      </trkpt>
      <trkpt lat="45.5039890" lon="9.2245830">
        <ele>129.8000000</ele>
        <time>2009-12-27T13:17:17Z</time>
      </trkpt>
      <trkpt lat="45.5039920" lon="9.2244490">
        <ele>129.2000000</ele>
        <time>2009-12-27T13:17:19Z</time>
      </trkpt>
      <trkpt lat="45.5039770" lon="9.2241870">
        <ele>130.4000000</ele>
        <time>2009-12-27T13:17:23Z</time>
      </trkpt>
      <trkpt lat="45.5039710" lon="9.2240460">
        <ele>129.6000000</ele>
        <time>2009-12-27T13:17:26Z</time>
      </trkpt>
      <trkpt lat="45.5039850" lon="9.2238230">
        <ele>131.4000000</ele>
        <time>2009-12-27T13:17:32Z</time>
      </trkpt>
      <trkpt lat="45.5039750" lon="9.2234900">
        <ele>131.2000000</ele>
        <time>2009-12-27T13:17:37Z</time>
      </trkpt>
      <trkpt lat="45.5039710" lon="9.2230880">
        <ele>136.8000000</ele>
        <time>2009-12-27T13:17:43Z</time>
      </trkpt>
      <trkpt lat="45.5039440" lon="9.2229580">
        <ele>136.4000000</ele>
        <time>2009-12-27T13:17:45Z</time>
      </trkpt>
      <trkpt lat="45.5038400" lon="9.2224430">
        <ele>134.4000000</ele>
        <time>2009-12-27T13:17:53Z</time>
      </trkpt>
      <trkpt lat="45.5038190" lon="9.2223860">
        <ele>134.0000000</ele>
        <time>2009-12-27T13:17:54Z</time>
      </trkpt>
      <trkpt lat="45.5037620" lon="9.2222320">
        <ele>131.0000000</ele>
        <time>2009-12-27T13:17:59Z</time>
      </trkpt>
      <trkpt lat="45.5036820" lon="9.2217400">
        <ele>127.2000000</ele>
        <time>2009-12-27T13:18:05Z</time>
      </trkpt>
      <trkpt lat="45.5036850" lon="9.2215540">
        <ele>128.4000000</ele>
        <time>2009-12-27T13:18:09Z</time>
      </trkpt>
      <trkpt lat="45.5037040" lon="9.2214530">
        <ele>134.4000000</ele>
        <time>2009-12-27T13:18:11Z</time>
      </trkpt>
      <trkpt lat="45.5037140" lon="9.2212750">
        <ele>138.8000000</ele>
        <time>2009-12-27T13:18:14Z</time>
      </trkpt>
      <trkpt lat="45.5037130" lon="9.2211520">
        <ele>145.6000000</ele>
        <time>2009-12-27T13:18:16Z</time>
      </trkpt>
      <trkpt lat="45.5036840" lon="9.2209570">
        <ele>151.4000000</ele>
        <time>2009-12-27T13:18:19Z</time>
      </trkpt>
      <trkpt lat="45.5036290" lon="9.2206480">
        <ele>152.8000000</ele>
        <time>2009-12-27T13:18:24Z</time>
      </trkpt>
      <trkpt lat="45.5036220" lon="9.2205260">
        <ele>152.6000000</ele>
        <time>2009-12-27T13:18:26Z</time>
      </trkpt>
      <trkpt lat="45.5035840" lon="9.2201360">
        <ele>151.8000000</ele>
        <time>2009-12-27T13:18:32Z</time>
      </trkpt>
      <trkpt lat="45.5035780" lon="9.2200650">
        <ele>152.8000000</ele>
        <time>2009-12-27T13:18:33Z</time>
      </trkpt>
      <trkpt lat="45.5035460" lon="9.2198540">
        <ele>152.6000000</ele>
        <time>2009-12-27T13:18:36Z</time>
      </trkpt>
      <trkpt lat="45.5035030" lon="9.2196530">
        <ele>154.8000000</ele>
        <time>2009-12-27T13:18:39Z</time>
      </trkpt>
      <trkpt lat="45.5034880" lon="9.2195850">
        <ele>154.8000000</ele>
        <time>2009-12-27T13:18:40Z</time>
      </trkpt>
      <trkpt lat="45.5034590" lon="9.2195160">
        <ele>152.4000000</ele>
        <time>2009-12-27T13:18:41Z</time>
      </trkpt>
      <trkpt lat="45.5032580" lon="9.2191320">
        <ele>144.0000000</ele>
        <time>2009-12-27T13:18:47Z</time>
      </trkpt>
      <trkpt lat="45.5031170" lon="9.2189090">
        <ele>139.2000000</ele>
        <time>2009-12-27T13:18:51Z</time>
      </trkpt>
      <trkpt lat="45.5029900" lon="9.2187540">
        <ele>137.4000000</ele>
        <time>2009-12-27T13:18:54Z</time>
      </trkpt>
      <trkpt lat="45.5027100" lon="9.2184280">
        <ele>132.8000000</ele>
        <time>2009-12-27T13:19:01Z</time>
      </trkpt>
      <trkpt lat="45.5023710" lon="9.2181040">
        <ele>133.2000000</ele>
        <time>2009-12-27T13:19:09Z</time>
      </trkpt>
      <trkpt lat="45.5020140" lon="9.2178560">
        <ele>131.4000000</ele>
        <time>2009-12-27T13:19:17Z</time>
      </trkpt>
      <trkpt lat="45.5016570" lon="9.2175840">
        <ele>132.0000000</ele>
        <time>2009-12-27T13:19:25Z</time>
      </trkpt>
      <trkpt lat="45.5012900" lon="9.2173920">
        <ele>131.0000000</ele>
        <time>2009-12-27T13:19:33Z</time>
      </trkpt>
      <trkpt lat="45.5011020" lon="9.2173130">
        <ele>130.4000000</ele>
        <time>2009-12-27T13:19:37Z</time>
      </trkpt>
      <trkpt lat="45.5009020" lon="9.2172980">
        <ele>131.6000000</ele>
        <time>2009-12-27T13:19:41Z</time>
      </trkpt>
      <trkpt lat="45.5005290" lon="9.2171020">
        <ele>128.6000000</ele>
        <time>2009-12-27T13:19:49Z</time>
      </trkpt>
      <trkpt lat="45.5004210" lon="9.2170550">
        <ele>128.0000000</ele>
        <time>2009-12-27T13:19:51Z</time>
      </trkpt>
      <trkpt lat="45.5001880" lon="9.2168520">
        <ele>128.4000000</ele>
        <time>2009-12-27T13:19:56Z</time>
      </trkpt>
      <trkpt lat="45.4999450" lon="9.2165740">
        <ele>127.8000000</ele>
        <time>2009-12-27T13:20:02Z</time>
      </trkpt>
      <trkpt lat="45.4999110" lon="9.2165230">
        <ele>127.8000000</ele>
        <time>2009-12-27T13:20:03Z</time>
      </trkpt>
      <trkpt lat="45.4996300" lon="9.2161070">
        <ele>127.2000000</ele>
        <time>2009-12-27T13:20:11Z</time>
      </trkpt>
      <trkpt lat="45.4994210" lon="9.2158360">
        <ele>129.4000000</ele>
        <time>2009-12-27T13:20:17Z</time>
      </trkpt>
      <trkpt lat="45.4993400" lon="9.2158180">
        <ele>130.2000000</ele>
        <time>2009-12-27T13:20:19Z</time>
      </trkpt>
      <trkpt lat="45.4989920" lon="9.2158810">
        <ele>129.0000000</ele>
        <time>2009-12-27T13:20:24Z</time>
      </trkpt>
      <trkpt lat="45.4990730" lon="9.2152740">
        <ele>125.4000000</ele>
        <time>2009-12-27T13:20:28Z</time>
      </trkpt>
      <trkpt lat="45.4990090" lon="9.2149140">
        <ele>126.4000000</ele>
        <time>2009-12-27T13:20:33Z</time>
      </trkpt>
      <trkpt lat="45.4988170" lon="9.2144640">
        <ele>129.6000000</ele>
        <time>2009-12-27T13:20:40Z</time>
      </trkpt>
      <trkpt lat="45.4987700" lon="9.2143330">
        <ele>129.8000000</ele>
        <time>2009-12-27T13:20:42Z</time>
      </trkpt>
      <trkpt lat="45.4987010" lon="9.2139820">
        <ele>130.8000000</ele>
        <time>2009-12-27T13:20:47Z</time>
      </trkpt>
      <trkpt lat="45.4986900" lon="9.2139140">
        <ele>130.8000000</ele>
        <time>2009-12-27T13:20:48Z</time>
      </trkpt>
      <trkpt lat="45.4985850" lon="9.2134210">
        <ele>132.2000000</ele>
        <time>2009-12-27T13:20:55Z</time>
      </trkpt>
      <trkpt lat="45.4984390" lon="9.2128930">
        <ele>131.6000000</ele>
        <time>2009-12-27T13:21:03Z</time>
      </trkpt>
      <trkpt lat="45.4983390" lon="9.2124780">
        <ele>133.4000000</ele>
        <time>2009-12-27T13:21:10Z</time>
      </trkpt>
      <trkpt lat="45.4983340" lon="9.2123630">
        <ele>134.8000000</ele>
        <time>2009-12-27T13:21:11Z</time>
      </trkpt>
      <trkpt lat="45.4982460" lon="9.2122010">
        <ele>134.6000000</ele>
        <time>2009-12-27T13:21:14Z</time>
      </trkpt>
      <trkpt lat="45.4981750" lon="9.2120320">
        <ele>131.8000000</ele>
        <time>2009-12-27T13:21:17Z</time>
      </trkpt>
      <trkpt lat="45.4981230" lon="9.2119260">
        <ele>131.2000000</ele>
        <time>2009-12-27T13:21:19Z</time>
      </trkpt>
      <trkpt lat="45.4980860" lon="9.2117370">
        <ele>130.4000000</ele>
        <time>2009-12-27T13:21:22Z</time>
      </trkpt>
      <trkpt lat="45.4980450" lon="9.2114160">
        <ele>129.4000000</ele>
        <time>2009-12-27T13:21:27Z</time>
      </trkpt>
      <trkpt lat="45.4979450" lon="9.2109100">
        <ele>128.6000000</ele>
        <time>2009-12-27T13:21:35Z</time>
      </trkpt>
      <trkpt lat="45.4978640" lon="9.2103950">
        <ele>128.4000000</ele>
        <time>2009-12-27T13:21:43Z</time>
      </trkpt>
      <trkpt lat="45.4977790" lon="9.2098850">
        <ele>127.0000000</ele>
        <time>2009-12-27T13:21:51Z</time>
      </trkpt>
      <trkpt lat="45.4976720" lon="9.2093880">
        <ele>126.2000000</ele>
        <time>2009-12-27T13:21:59Z</time>
      </trkpt>
      <trkpt lat="45.4975100" lon="9.2089270">
        <ele>127.0000000</ele>
        <time>2009-12-27T13:22:07Z</time>
      </trkpt>
      <trkpt lat="45.4974340" lon="9.2087790">
        <ele>126.2000000</ele>
        <time>2009-12-27T13:22:10Z</time>
      </trkpt>
      <trkpt lat="45.4972200" lon="9.2085430">
        <ele>126.6000000</ele>
        <time>2009-12-27T13:22:16Z</time>
      </trkpt>
      <trkpt lat="45.4970210" lon="9.2083250">
        <ele>126.8000000</ele>
        <time>2009-12-27T13:22:22Z</time>
      </trkpt>
      <trkpt lat="45.4968950" lon="9.2082550">
        <ele>127.4000000</ele>
        <time>2009-12-27T13:22:26Z</time>
      </trkpt>
      <trkpt lat="45.4968630" lon="9.2082490">
        <ele>127.6000000</ele>
        <time>2009-12-27T13:22:27Z</time>
      </trkpt>
      <trkpt lat="45.4965190" lon="9.2081370">
        <ele>128.6000000</ele>
        <time>2009-12-27T13:22:38Z</time>
      </trkpt>
      <trkpt lat="45.4961370" lon="9.2080340">
        <ele>127.2000000</ele>
        <time>2009-12-27T13:22:49Z</time>
      </trkpt>
      <trkpt lat="45.4957800" lon="9.2079430">
        <ele>126.4000000</ele>
        <time>2009-12-27T13:22:57Z</time>
      </trkpt>
      <trkpt lat="45.4956990" lon="9.2079350">
        <ele>126.6000000</ele>
        <time>2009-12-27T13:22:59Z</time>
      </trkpt>
      <trkpt lat="45.4954190" lon="9.2077670">
        <ele>128.6000000</ele>
        <time>2009-12-27T13:23:06Z</time>
      </trkpt>
      <trkpt lat="45.4953330" lon="9.2077060">
        <ele>129.0000000</ele>
        <time>2009-12-27T13:23:08Z</time>
      </trkpt>
      <trkpt lat="45.4951720" lon="9.2076080">
        <ele>130.0000000</ele>
        <time>2009-12-27T13:23:12Z</time>
      </trkpt>
      <trkpt lat="45.4950610" lon="9.2075360">
        <ele>132.2000000</ele>
        <time>2009-12-27T13:23:15Z</time>
      </trkpt>
      <trkpt lat="45.4947880" lon="9.2073590">
        <ele>131.8000000</ele>
        <time>2009-12-27T13:23:22Z</time>
      </trkpt>
      <trkpt lat="45.4947350" lon="9.2072760">
        <ele>131.6000000</ele>
        <time>2009-12-27T13:23:24Z</time>
      </trkpt>
      <trkpt lat="45.4944730" lon="9.2068870">
        <ele>134.6000000</ele>
        <time>2009-12-27T13:23:35Z</time>
      </trkpt>
      <trkpt lat="45.4941920" lon="9.2066170">
        <ele>132.2000000</ele>
        <time>2009-12-27T13:23:43Z</time>
      </trkpt>
      <trkpt lat="45.4941520" lon="9.2066020">
        <ele>131.8000000</ele>
        <time>2009-12-27T13:23:44Z</time>
      </trkpt>
      <trkpt lat="45.4939520" lon="9.2064470">
        <ele>131.4000000</ele>
        <time>2009-12-27T13:23:49Z</time>
      </trkpt>
      <trkpt lat="45.4938380" lon="9.2063060">
        <ele>132.0000000</ele>
        <time>2009-12-27T13:23:52Z</time>
      </trkpt>
      <trkpt lat="45.4936820" lon="9.2060840">
        <ele>129.8000000</ele>
        <time>2009-12-27T13:23:57Z</time>
      </trkpt>
      <trkpt lat="45.4935670" lon="9.2059500">
        <ele>127.6000000</ele>
        <time>2009-12-27T13:24:01Z</time>
      </trkpt>
      <trkpt lat="45.4933860" lon="9.2057600">
        <ele>128.8000000</ele>
        <time>2009-12-27T13:24:06Z</time>
      </trkpt>
      <trkpt lat="45.4932460" lon="9.2056180">
        <ele>127.6000000</ele>
        <time>2009-12-27T13:24:10Z</time>
      </trkpt>
      <trkpt lat="45.4929610" lon="9.2052100">
        <ele>133.0000000</ele>
        <time>2009-12-27T13:24:18Z</time>
      </trkpt>
      <trkpt lat="45.4926950" lon="9.2048600">
        <ele>131.6000000</ele>
        <time>2009-12-27T13:24:26Z</time>
      </trkpt>
      <trkpt lat="45.4923810" lon="9.2045470">
        <ele>125.6000000</ele>
        <time>2009-12-27T13:24:37Z</time>
      </trkpt>
      <trkpt lat="45.4922490" lon="9.2043240">
        <ele>127.0000000</ele>
        <time>2009-12-27T13:24:43Z</time>
      </trkpt>
      <trkpt lat="45.4922520" lon="9.2040930">
        <ele>128.4000000</ele>
        <time>2009-12-27T13:24:48Z</time>
      </trkpt>
      <trkpt lat="45.4922480" lon="9.2040510">
        <ele>128.2000000</ele>
        <time>2009-12-27T13:24:49Z</time>
      </trkpt>
      <trkpt lat="45.4920270" lon="9.2037100">
        <ele>129.2000000</ele>
        <time>2009-12-27T13:24:57Z</time>
      </trkpt>
      <trkpt lat="45.4919180" lon="9.2035890">
        <ele>129.8000000</ele>
        <time>2009-12-27T13:25:00Z</time>
      </trkpt>
      <trkpt lat="45.4917290" lon="9.2033950">
        <ele>129.6000000</ele>
        <time>2009-12-27T13:25:05Z</time>
      </trkpt>
      <trkpt lat="45.4916620" lon="9.2033290">
        <ele>130.2000000</ele>
        <time>2009-12-27T13:25:07Z</time>
      </trkpt>
      <trkpt lat="45.4915170" lon="9.2032120">
        <ele>130.0000000</ele>
        <time>2009-12-27T13:25:11Z</time>
      </trkpt>
      <trkpt lat="45.4914160" lon="9.2030890">
        <ele>130.8000000</ele>
        <time>2009-12-27T13:25:14Z</time>
      </trkpt>
      <trkpt lat="45.4911360" lon="9.2027320">
        <ele>130.4000000</ele>
        <time>2009-12-27T13:25:22Z</time>
      </trkpt>
      <trkpt lat="45.4908480" lon="9.2023780">
        <ele>131.8000000</ele>
        <time>2009-12-27T13:25:30Z</time>
      </trkpt>
      <trkpt lat="45.4905570" lon="9.2020320">
        <ele>133.4000000</ele>
        <time>2009-12-27T13:25:38Z</time>
      </trkpt>
      <trkpt lat="45.4902670" lon="9.2016850">
        <ele>135.4000000</ele>
        <time>2009-12-27T13:25:46Z</time>
      </trkpt>
      <trkpt lat="45.4901550" lon="9.2015740">
        <ele>136.4000000</ele>
        <time>2009-12-27T13:25:49Z</time>
      </trkpt>
      <trkpt lat="45.4900870" lon="9.2015030">
        <ele>137.2000000</ele>
        <time>2009-12-27T13:25:51Z</time>
      </trkpt>
      <trkpt lat="45.4899550" lon="9.2013690">
        <ele>136.8000000</ele>
        <time>2009-12-27T13:25:55Z</time>
      </trkpt>
      <trkpt lat="45.4898480" lon="9.2012160">
        <ele>137.8000000</ele>
        <time>2009-12-27T13:26:00Z</time>
      </trkpt>
      <trkpt lat="45.4897840" lon="9.2010780">
        <ele>134.0000000</ele>
        <time>2009-12-27T13:26:06Z</time>
      </trkpt>
      <trkpt lat="45.4897820" lon="9.2010290">
        <ele>133.4000000</ele>
        <time>2009-12-27T13:26:11Z</time>
      </trkpt>
      <trkpt lat="45.4897370" lon="9.2009760">
        <ele>132.0000000</ele>
        <time>2009-12-27T13:26:17Z</time>
      </trkpt>
      <trkpt lat="45.4897290" lon="9.2009660">
        <ele>131.8000000</ele>
        <time>2009-12-27T13:26:18Z</time>
      </trkpt>
      <trkpt lat="45.4894240" lon="9.2006920">
        <ele>129.0000000</ele>
        <time>2009-12-27T13:26:45Z</time>
      </trkpt>
      <trkpt lat="45.4891460" lon="9.2003540">
        <ele>128.8000000</ele>
        <time>2009-12-27T13:26:54Z</time>
      </trkpt>
      <trkpt lat="45.4890450" lon="9.2002480">
        <ele>129.4000000</ele>
        <time>2009-12-27T13:26:57Z</time>
      </trkpt>
      <trkpt lat="45.4888310" lon="9.2000080">
        <ele>130.6000000</ele>
        <time>2009-12-27T13:27:03Z</time>
      </trkpt>
      <trkpt lat="45.4885460" lon="9.1996390">
        <ele>131.4000000</ele>
        <time>2009-12-27T13:27:11Z</time>
      </trkpt>
      <trkpt lat="45.4884740" lon="9.1995510">
        <ele>130.6000000</ele>
        <time>2009-12-27T13:27:13Z</time>
      </trkpt>
      <trkpt lat="45.4882590" lon="9.1993060">
        <ele>133.2000000</ele>
        <time>2009-12-27T13:27:19Z</time>
      </trkpt>
      <trkpt lat="45.4880190" lon="9.1989830">
        <ele>134.2000000</ele>
        <time>2009-12-27T13:27:26Z</time>
      </trkpt>
      <trkpt lat="45.4879890" lon="9.1989350">
        <ele>134.2000000</ele>
        <time>2009-12-27T13:27:27Z</time>
      </trkpt>
      <trkpt lat="45.4877920" lon="9.1986700">
        <ele>131.8000000</ele>
        <time>2009-12-27T13:27:33Z</time>
      </trkpt>
      <trkpt lat="45.4877110" lon="9.1985810">
        <ele>131.8000000</ele>
        <time>2009-12-27T13:27:35Z</time>
      </trkpt>
      <trkpt lat="45.4876580" lon="9.1985590">
        <ele>131.4000000</ele>
        <time>2009-12-27T13:27:36Z</time>
      </trkpt>
      <trkpt lat="45.4873900" lon="9.1982580">
        <ele>131.0000000</ele>
        <time>2009-12-27T13:27:43Z</time>
      </trkpt>
      <trkpt lat="45.4873610" lon="9.1982040">
        <ele>131.4000000</ele>
        <time>2009-12-27T13:27:44Z</time>
      </trkpt>
      <trkpt lat="45.4872220" lon="9.1980040">
        <ele>133.8000000</ele>
        <time>2009-12-27T13:27:50Z</time>
      </trkpt>
      <trkpt lat="45.4871100" lon="9.1979240">
        <ele>129.4000000</ele>
        <time>2009-12-27T13:27:59Z</time>
      </trkpt>
      <trkpt lat="45.4868160" lon="9.1975810">
        <ele>128.2000000</ele>
        <time>2009-12-27T13:28:09Z</time>
      </trkpt>
      <trkpt lat="45.4866660" lon="9.1973990">
        <ele>129.8000000</ele>
        <time>2009-12-27T13:28:16Z</time>
      </trkpt>
      <trkpt lat="45.4865690" lon="9.1971870">
        <ele>137.8000000</ele>
        <time>2009-12-27T13:28:22Z</time>
      </trkpt>
      <trkpt lat="45.4865520" lon="9.1971470">
        <ele>140.6000000</ele>
        <time>2009-12-27T13:28:23Z</time>
      </trkpt>
      <trkpt lat="45.4865250" lon="9.1970540">
        <ele>150.6000000</ele>
        <time>2009-12-27T13:28:25Z</time>
      </trkpt>
      <trkpt lat="45.4864450" lon="9.1966760">
        <ele>159.8000000</ele>
        <time>2009-12-27T13:28:32Z</time>
      </trkpt>
      <trkpt lat="45.4864060" lon="9.1966470">
        <ele>157.8000000</ele>
        <time>2009-12-27T13:28:33Z</time>
      </trkpt>
      <trkpt lat="45.4863510" lon="9.1966270">
        <ele>155.6000000</ele>
        <time>2009-12-27T13:28:34Z</time>
      </trkpt>
      <trkpt lat="45.4861200" lon="9.1963220">
        <ele>163.0000000</ele>
        <time>2009-12-27T13:28:40Z</time>
      </trkpt>
      <trkpt lat="45.4860330" lon="9.1962420">
        <ele>162.2000000</ele>
        <time>2009-12-27T13:28:42Z</time>
      </trkpt>
      <trkpt lat="45.4857960" lon="9.1960580">
        <ele>156.8000000</ele>
        <time>2009-12-27T13:28:47Z</time>
      </trkpt>
      <trkpt lat="45.4854050" lon="9.1958620">
        <ele>143.0000000</ele>
        <time>2009-12-27T13:28:54Z</time>
      </trkpt>
      <trkpt lat="45.4850730" lon="9.1955530">
        <ele>136.8000000</ele>
        <time>2009-12-27T13:29:02Z</time>
      </trkpt>
      <trkpt lat="45.4848000" lon="9.1951830">
        <ele>135.0000000</ele>
        <time>2009-12-27T13:29:11Z</time>
      </trkpt>
      <trkpt lat="45.4845300" lon="9.1948330">
        <ele>133.6000000</ele>
        <time>2009-12-27T13:29:22Z</time>
      </trkpt>
      <trkpt lat="45.4842000" lon="9.1945170">
        <ele>127.6000000</ele>
        <time>2009-12-27T13:29:31Z</time>
      </trkpt>
      <trkpt lat="45.4839060" lon="9.1941570">
        <ele>127.6000000</ele>
        <time>2009-12-27T13:29:39Z</time>
      </trkpt>
      <trkpt lat="45.4836190" lon="9.1938240">
        <ele>128.0000000</ele>
        <time>2009-12-27T13:29:47Z</time>
      </trkpt>
      <trkpt lat="45.4833290" lon="9.1934830">
        <ele>127.0000000</ele>
        <time>2009-12-27T13:29:55Z</time>
      </trkpt>
      <trkpt lat="45.4831980" lon="9.1933160">
        <ele>126.8000000</ele>
        <time>2009-12-27T13:29:59Z</time>
      </trkpt>
      <trkpt lat="45.4831460" lon="9.1930530">
        <ele>126.2000000</ele>
        <time>2009-12-27T13:30:04Z</time>
      </trkpt>
      <trkpt lat="45.4831720" lon="9.1929470">
        <ele>125.8000000</ele>
        <time>2009-12-27T13:30:06Z</time>
      </trkpt>
      <trkpt lat="45.4831830" lon="9.1928940">
        <ele>125.8000000</ele>
        <time>2009-12-27T13:30:07Z</time>
      </trkpt>
      <trkpt lat="45.4832080" lon="9.1927800">
        <ele>125.8000000</ele>
        <time>2009-12-27T13:30:09Z</time>
      </trkpt>
      <trkpt lat="45.4832390" lon="9.1926570">
        <ele>127.8000000</ele>
        <time>2009-12-27T13:30:13Z</time>
      </trkpt>
      <trkpt lat="45.4832100" lon="9.1927840">
        <ele>129.8000000</ele>
        <time>2009-12-27T13:30:17Z</time>
      </trkpt>
      <trkpt lat="45.4831030" lon="9.1928330">
        <ele>130.8000000</ele>
        <time>2009-12-27T13:30:22Z</time>
      </trkpt>
      <trkpt lat="45.4828660" lon="9.1927620">
        <ele>132.4000000</ele>
        <time>2009-12-27T13:30:32Z</time>
      </trkpt>
      <trkpt lat="45.4828900" lon="9.1917800">
        <ele>132.6000000</ele>
        <time>2009-12-27T13:30:35Z</time>
      </trkpt>
      <trkpt lat="45.4829800" lon="9.1916210">
        <ele>133.6000000</ele>
        <time>2009-12-27T13:30:37Z</time>
      </trkpt>
      <trkpt lat="45.4832660" lon="9.1912140">
        <ele>134.2000000</ele>
        <time>2009-12-27T13:30:39Z</time>
      </trkpt>
      <trkpt lat="45.4838710" lon="9.1906270">
        <ele>150.2000000</ele>
        <time>2009-12-27T13:30:41Z</time>
      </trkpt>
      <trkpt lat="45.4839110" lon="9.1904860">
        <ele>153.6000000</ele>
        <time>2009-12-27T13:30:47Z</time>
      </trkpt>
      <trkpt lat="45.4839400" lon="9.1904780">
        <ele>155.6000000</ele>
        <time>2009-12-27T13:30:49Z</time>
      </trkpt>
      <trkpt lat="45.4839550" lon="9.1901710">
        <ele>157.4000000</ele>
        <time>2009-12-27T13:30:54Z</time>
      </trkpt>
      <trkpt lat="45.4841860" lon="9.1895120">
        <ele>163.2000000</ele>
        <time>2009-12-27T13:31:01Z</time>
      </trkpt>
      <trkpt lat="45.4843900" lon="9.1890180">
        <ele>164.6000000</ele>
        <time>2009-12-27T13:31:03Z</time>
      </trkpt>
      <trkpt lat="45.4842280" lon="9.1891200">
        <ele>169.4000000</ele>
        <time>2009-12-27T13:31:05Z</time>
      </trkpt>
      <trkpt lat="45.4842680" lon="9.1889350">
        <ele>150.8000000</ele>
        <time>2009-12-27T13:31:10Z</time>
      </trkpt>
      <trkpt lat="45.4841560" lon="9.1886580">
        <ele>143.0000000</ele>
        <time>2009-12-27T13:31:15Z</time>
      </trkpt>
      <trkpt lat="45.4838660" lon="9.1882710">
        <ele>132.0000000</ele>
        <time>2009-12-27T13:31:23Z</time>
      </trkpt>
      <trkpt lat="45.4837320" lon="9.1880670">
        <ele>129.4000000</ele>
        <time>2009-12-27T13:31:27Z</time>
      </trkpt>
      <trkpt lat="45.4836660" lon="9.1878750">
        <ele>128.2000000</ele>
        <time>2009-12-27T13:31:30Z</time>
      </trkpt>
      <trkpt lat="45.4836610" lon="9.1878070">
        <ele>127.8000000</ele>
        <time>2009-12-27T13:31:31Z</time>
      </trkpt>
      <trkpt lat="45.4837300" lon="9.1872620">
        <ele>125.6000000</ele>
        <time>2009-12-27T13:31:39Z</time>
      </trkpt>
      <trkpt lat="45.4837860" lon="9.1870010">
        <ele>124.8000000</ele>
        <time>2009-12-27T13:31:43Z</time>
      </trkpt>
      <trkpt lat="45.4838960" lon="9.1867700">
        <ele>124.2000000</ele>
        <time>2009-12-27T13:31:47Z</time>
      </trkpt>
      <trkpt lat="45.4840330" lon="9.1863910">
        <ele>123.2000000</ele>
        <time>2009-12-27T13:31:53Z</time>
      </trkpt>
      <trkpt lat="45.4840980" lon="9.1862780">
        <ele>122.8000000</ele>
        <time>2009-12-27T13:31:55Z</time>
      </trkpt>
      <trkpt lat="45.4843510" lon="9.1858410">
        <ele>122.8000000</ele>
        <time>2009-12-27T13:32:02Z</time>
      </trkpt>
      <trkpt lat="45.4846150" lon="9.1854130">
        <ele>119.8000000</ele>
        <time>2009-12-27T13:32:08Z</time>
      </trkpt>
      <trkpt lat="45.4848800" lon="9.1850000">
        <ele>120.2000000</ele>
        <time>2009-12-27T13:32:16Z</time>
      </trkpt>
      <trkpt lat="45.4851380" lon="9.1845650">
        <ele>120.2000000</ele>
        <time>2009-12-27T13:32:24Z</time>
      </trkpt>
      <trkpt lat="45.4852900" lon="9.1842920">
        <ele>120.0000000</ele>
        <time>2009-12-27T13:32:29Z</time>
      </trkpt>
      <trkpt lat="45.4853780" lon="9.1841260">
        <ele>120.0000000</ele>
        <time>2009-12-27T13:32:32Z</time>
      </trkpt>
      <trkpt lat="45.4855970" lon="9.1836560">
        <ele>121.4000000</ele>
        <time>2009-12-27T13:32:40Z</time>
      </trkpt>
      <trkpt lat="45.4856780" lon="9.1834920">
        <ele>123.0000000</ele>
        <time>2009-12-27T13:32:43Z</time>
      </trkpt>
      <trkpt lat="45.4857630" lon="9.1832620">
        <ele>125.8000000</ele>
        <time>2009-12-27T13:32:47Z</time>
      </trkpt>
      <trkpt lat="45.4857810" lon="9.1832030">
        <ele>126.2000000</ele>
        <time>2009-12-27T13:32:48Z</time>
      </trkpt>
      <trkpt lat="45.4858430" lon="9.1829420">
        <ele>127.4000000</ele>
        <time>2009-12-27T13:32:52Z</time>
      </trkpt>
      <trkpt lat="45.4858740" lon="9.1826770">
        <ele>126.8000000</ele>
        <time>2009-12-27T13:32:56Z</time>
      </trkpt>
      <trkpt lat="45.4859040" lon="9.1821680">
        <ele>124.2000000</ele>
        <time>2009-12-27T13:33:04Z</time>
      </trkpt>
      <trkpt lat="45.4858180" lon="9.1816620">
        <ele>122.0000000</ele>
        <time>2009-12-27T13:33:12Z</time>
      </trkpt>
      <trkpt lat="45.4857960" lon="9.1816040">
        <ele>121.6000000</ele>
        <time>2009-12-27T13:33:13Z</time>
      </trkpt>
      <trkpt lat="45.4857060" lon="9.1814220">
        <ele>121.8000000</ele>
        <time>2009-12-27T13:33:16Z</time>
      </trkpt>
      <trkpt lat="45.4855710" lon="9.1812940">
        <ele>122.0000000</ele>
        <time>2009-12-27T13:33:19Z</time>
      </trkpt>
      <trkpt lat="45.4855220" lon="9.1812640">
        <ele>122.0000000</ele>
        <time>2009-12-27T13:33:20Z</time>
      </trkpt>
      <trkpt lat="45.4852260" lon="9.1810770">
        <ele>122.4000000</ele>
        <time>2009-12-27T13:33:26Z</time>
      </trkpt>
      <trkpt lat="45.4849290" lon="9.1807660">
        <ele>122.2000000</ele>
        <time>2009-12-27T13:33:33Z</time>
      </trkpt>
      <trkpt lat="45.4847820" lon="9.1805540">
        <ele>121.2000000</ele>
        <time>2009-12-27T13:33:38Z</time>
      </trkpt>
      <trkpt lat="45.4846850" lon="9.1803900">
        <ele>120.6000000</ele>
        <time>2009-12-27T13:33:43Z</time>
      </trkpt>
      <trkpt lat="45.4846660" lon="9.1803250">
        <ele>120.8000000</ele>
        <time>2009-12-27T13:33:44Z</time>
      </trkpt>
      <trkpt lat="45.4845080" lon="9.1798740">
        <ele>120.6000000</ele>
        <time>2009-12-27T13:33:50Z</time>
      </trkpt>
      <trkpt lat="45.4843890" lon="9.1793760">
        <ele>119.6000000</ele>
        <time>2009-12-27T13:33:57Z</time>
      </trkpt>
      <trkpt lat="45.4843570" lon="9.1791450">
        <ele>119.4000000</ele>
        <time>2009-12-27T13:34:00Z</time>
      </trkpt>
      <trkpt lat="45.4843510" lon="9.1788200">
        <ele>120.2000000</ele>
        <time>2009-12-27T13:34:04Z</time>
      </trkpt>
      <trkpt lat="45.4844220" lon="9.1782390">
        <ele>120.8000000</ele>
        <time>2009-12-27T13:34:11Z</time>
      </trkpt>
      <trkpt lat="45.4845220" lon="9.1777110">
        <ele>121.0000000</ele>
        <time>2009-12-27T13:34:18Z</time>
      </trkpt>
      <trkpt lat="45.4846310" lon="9.1772120">
        <ele>120.4000000</ele>
        <time>2009-12-27T13:34:25Z</time>
      </trkpt>
      <trkpt lat="45.4846920" lon="9.1770220">
        <ele>120.2000000</ele>
        <time>2009-12-27T13:34:28Z</time>
      </trkpt>
      <trkpt lat="45.4848440" lon="9.1767530">
        <ele>121.0000000</ele>
        <time>2009-12-27T13:34:34Z</time>
      </trkpt>
      <trkpt lat="45.4851530" lon="9.1764410">
        <ele>121.8000000</ele>
        <time>2009-12-27T13:34:45Z</time>
      </trkpt>
      <trkpt lat="45.4855110" lon="9.1761500">
        <ele>121.8000000</ele>
        <time>2009-12-27T13:34:53Z</time>
      </trkpt>
      <trkpt lat="45.4858570" lon="9.1758840">
        <ele>123.2000000</ele>
        <time>2009-12-27T13:35:00Z</time>
      </trkpt>
      <trkpt lat="45.4861900" lon="9.1756270">
        <ele>120.8000000</ele>
        <time>2009-12-27T13:35:07Z</time>
      </trkpt>
      <trkpt lat="45.4865270" lon="9.1753570">
        <ele>117.8000000</ele>
        <time>2009-12-27T13:35:14Z</time>
      </trkpt>
      <trkpt lat="45.4868720" lon="9.1750880">
        <ele>114.8000000</ele>
        <time>2009-12-27T13:35:21Z</time>
      </trkpt>
      <trkpt lat="45.4872060" lon="9.1747920">
        <ele>111.6000000</ele>
        <time>2009-12-27T13:35:28Z</time>
      </trkpt>
      <trkpt lat="45.4873620" lon="9.1745410">
        <ele>113.8000000</ele>
        <time>2009-12-27T13:35:32Z</time>
      </trkpt>
      <trkpt lat="45.4874420" lon="9.1743220">
        <ele>115.2000000</ele>
        <time>2009-12-27T13:35:35Z</time>
      </trkpt>
      <trkpt lat="45.4875510" lon="9.1737770">
        <ele>117.6000000</ele>
        <time>2009-12-27T13:35:42Z</time>
      </trkpt>
      <trkpt lat="45.4875910" lon="9.1731860">
        <ele>123.0000000</ele>
        <time>2009-12-27T13:35:49Z</time>
      </trkpt>
      <trkpt lat="45.4876200" lon="9.1728580">
        <ele>125.4000000</ele>
        <time>2009-12-27T13:35:53Z</time>
      </trkpt>
      <trkpt lat="45.4876680" lon="9.1726080">
        <ele>122.6000000</ele>
        <time>2009-12-27T13:35:56Z</time>
      </trkpt>
      <trkpt lat="45.4877310" lon="9.1723770">
        <ele>124.8000000</ele>
        <time>2009-12-27T13:35:59Z</time>
      </trkpt>
      <trkpt lat="45.4877900" lon="9.1722380">
        <ele>127.0000000</ele>
        <time>2009-12-27T13:36:01Z</time>
      </trkpt>
      <trkpt lat="45.4878630" lon="9.1721240">
        <ele>132.2000000</ele>
        <time>2009-12-27T13:36:03Z</time>
      </trkpt>
      <trkpt lat="45.4882070" lon="9.1717880">
        <ele>135.2000000</ele>
        <time>2009-12-27T13:36:10Z</time>
      </trkpt>
      <trkpt lat="45.4885240" lon="9.1715060">
        <ele>129.2000000</ele>
        <time>2009-12-27T13:36:17Z</time>
      </trkpt>
      <trkpt lat="45.4888470" lon="9.1711440">
        <ele>129.6000000</ele>
        <time>2009-12-27T13:36:25Z</time>
      </trkpt>
      <trkpt lat="45.4891240" lon="9.1707650">
        <ele>129.2000000</ele>
        <time>2009-12-27T13:36:32Z</time>
      </trkpt>
      <trkpt lat="45.4893980" lon="9.1703730">
        <ele>126.4000000</ele>
        <time>2009-12-27T13:36:39Z</time>
      </trkpt>
      <trkpt lat="45.4895910" lon="9.1700900">
        <ele>126.6000000</ele>
        <time>2009-12-27T13:36:44Z</time>
      </trkpt>
      <trkpt lat="45.4896770" lon="9.1699880">
        <ele>127.0000000</ele>
        <time>2009-12-27T13:36:46Z</time>
      </trkpt>
      <trkpt lat="45.4899980" lon="9.1697000">
        <ele>125.0000000</ele>
        <time>2009-12-27T13:36:53Z</time>
      </trkpt>
      <trkpt lat="45.4902540" lon="9.1693210">
        <ele>123.6000000</ele>
        <time>2009-12-27T13:37:00Z</time>
      </trkpt>
      <trkpt lat="45.4902930" lon="9.1692690">
        <ele>123.8000000</ele>
        <time>2009-12-27T13:37:01Z</time>
      </trkpt>
      <trkpt lat="45.4905310" lon="9.1689610">
        <ele>123.8000000</ele>
        <time>2009-12-27T13:37:07Z</time>
      </trkpt>
      <trkpt lat="45.4908300" lon="9.1686160">
        <ele>125.2000000</ele>
        <time>2009-12-27T13:37:14Z</time>
      </trkpt>
      <trkpt lat="45.4910960" lon="9.1682350">
        <ele>125.4000000</ele>
        <time>2009-12-27T13:37:21Z</time>
      </trkpt>
      <trkpt lat="45.4913840" lon="9.1678550">
        <ele>124.8000000</ele>
        <time>2009-12-27T13:37:28Z</time>
      </trkpt>
      <trkpt lat="45.4915060" lon="9.1677000">
        <ele>125.8000000</ele>
        <time>2009-12-27T13:37:31Z</time>
      </trkpt>
      <trkpt lat="45.4915970" lon="9.1675150">
        <ele>126.4000000</ele>
        <time>2009-12-27T13:37:34Z</time>
      </trkpt>
      <trkpt lat="45.4916150" lon="9.1674500">
        <ele>127.0000000</ele>
        <time>2009-12-27T13:37:35Z</time>
      </trkpt>
      <trkpt lat="45.4915120" lon="9.1670720">
        <ele>125.6000000</ele>
        <time>2009-12-27T13:37:41Z</time>
      </trkpt>
      <trkpt lat="45.4914380" lon="9.1669500">
        <ele>125.0000000</ele>
        <time>2009-12-27T13:37:43Z</time>
      </trkpt>
      <trkpt lat="45.4911550" lon="9.1665260">
        <ele>128.2000000</ele>
        <time>2009-12-27T13:37:50Z</time>
      </trkpt>
      <trkpt lat="45.4908550" lon="9.1661370">
        <ele>127.6000000</ele>
        <time>2009-12-27T13:37:58Z</time>
      </trkpt>
      <trkpt lat="45.4908300" lon="9.1660830">
        <ele>128.4000000</ele>
        <time>2009-12-27T13:37:59Z</time>
      </trkpt>
      <trkpt lat="45.4907570" lon="9.1659410">
        <ele>128.8000000</ele>
        <time>2009-12-27T13:38:02Z</time>
      </trkpt>
      <trkpt lat="45.4906270" lon="9.1657450">
        <ele>129.2000000</ele>
        <time>2009-12-27T13:38:06Z</time>
      </trkpt>
      <trkpt lat="45.4904140" lon="9.1653440">
        <ele>133.2000000</ele>
        <time>2009-12-27T13:38:13Z</time>
      </trkpt>
      <trkpt lat="45.4903830" lon="9.1652840">
        <ele>134.0000000</ele>
        <time>2009-12-27T13:38:14Z</time>
      </trkpt>
      <trkpt lat="45.4901550" lon="9.1648970">
        <ele>135.8000000</ele>
        <time>2009-12-27T13:38:21Z</time>
      </trkpt>
      <trkpt lat="45.4901330" lon="9.1648460">
        <ele>136.6000000</ele>
        <time>2009-12-27T13:38:22Z</time>
      </trkpt>
      <trkpt lat="45.4898680" lon="9.1644670">
        <ele>135.4000000</ele>
        <time>2009-12-27T13:38:31Z</time>
      </trkpt>
      <trkpt lat="45.4895730" lon="9.1640920">
        <ele>132.4000000</ele>
        <time>2009-12-27T13:38:39Z</time>
      </trkpt>
      <trkpt lat="45.4895020" lon="9.1639880">
        <ele>132.4000000</ele>
        <time>2009-12-27T13:38:41Z</time>
      </trkpt>
      <trkpt lat="45.4893140" lon="9.1637290">
        <ele>132.4000000</ele>
        <time>2009-12-27T13:38:46Z</time>
      </trkpt>
      <trkpt lat="45.4892160" lon="9.1635670">
        <ele>133.8000000</ele>
        <time>2009-12-27T13:38:49Z</time>
      </trkpt>
      <trkpt lat="45.4890460" lon="9.1632870">
        <ele>132.6000000</ele>
        <time>2009-12-27T13:38:54Z</time>
      </trkpt>
      <trkpt lat="45.4889430" lon="9.1631230">
        <ele>133.2000000</ele>
        <time>2009-12-27T13:38:57Z</time>
      </trkpt>
      <trkpt lat="45.4888050" lon="9.1629100">
        <ele>132.4000000</ele>
        <time>2009-12-27T13:39:01Z</time>
      </trkpt>
      <trkpt lat="45.4887660" lon="9.1628600">
        <ele>132.4000000</ele>
        <time>2009-12-27T13:39:02Z</time>
      </trkpt>
      <trkpt lat="45.4886830" lon="9.1627660">
        <ele>132.4000000</ele>
        <time>2009-12-27T13:39:04Z</time>
      </trkpt>
      <trkpt lat="45.4884940" lon="9.1624990">
        <ele>130.2000000</ele>
        <time>2009-12-27T13:39:09Z</time>
      </trkpt>
      <trkpt lat="45.4882240" lon="9.1621280">
        <ele>129.8000000</ele>
        <time>2009-12-27T13:39:16Z</time>
      </trkpt>
      <trkpt lat="45.4881250" lon="9.1619510">
        <ele>131.8000000</ele>
        <time>2009-12-27T13:39:19Z</time>
      </trkpt>
      <trkpt lat="45.4881060" lon="9.1616570">
        <ele>132.0000000</ele>
        <time>2009-12-27T13:39:23Z</time>
      </trkpt>
      <trkpt lat="45.4881120" lon="9.1612040">
        <ele>137.2000000</ele>
        <time>2009-12-27T13:39:29Z</time>
      </trkpt>
      <trkpt lat="45.4880920" lon="9.1611400">
        <ele>138.0000000</ele>
        <time>2009-12-27T13:39:30Z</time>
      </trkpt>
      <trkpt lat="45.4879320" lon="9.1608320">
        <ele>144.6000000</ele>
        <time>2009-12-27T13:39:35Z</time>
      </trkpt>
      <trkpt lat="45.4879170" lon="9.1606830">
        <ele>145.2000000</ele>
        <time>2009-12-27T13:39:37Z</time>
      </trkpt>
      <trkpt lat="45.4879260" lon="9.1601010">
        <ele>141.4000000</ele>
        <time>2009-12-27T13:39:43Z</time>
      </trkpt>
      <trkpt lat="45.4879370" lon="9.1599290">
        <ele>140.0000000</ele>
        <time>2009-12-27T13:39:45Z</time>
      </trkpt>
      <trkpt lat="45.4879540" lon="9.1597560">
        <ele>137.6000000</ele>
        <time>2009-12-27T13:39:47Z</time>
      </trkpt>
      <trkpt lat="45.4879600" lon="9.1595740">
        <ele>136.8000000</ele>
        <time>2009-12-27T13:39:49Z</time>
      </trkpt>
      <trkpt lat="45.4879690" lon="9.1593940">
        <ele>136.6000000</ele>
        <time>2009-12-27T13:39:51Z</time>
      </trkpt>
      <trkpt lat="45.4879670" lon="9.1592220">
        <ele>136.2000000</ele>
        <time>2009-12-27T13:39:53Z</time>
      </trkpt>
      <trkpt lat="45.4879710" lon="9.1590470">
        <ele>134.8000000</ele>
        <time>2009-12-27T13:39:55Z</time>
      </trkpt>
      <trkpt lat="45.4879770" lon="9.1589610">
        <ele>133.8000000</ele>
        <time>2009-12-27T13:39:56Z</time>
      </trkpt>
      <trkpt lat="45.4879990" lon="9.1584720">
        <ele>127.2000000</ele>
        <time>2009-12-27T13:40:02Z</time>
      </trkpt>
      <trkpt lat="45.4880320" lon="9.1579120">
        <ele>128.4000000</ele>
        <time>2009-12-27T13:40:09Z</time>
      </trkpt>
      <trkpt lat="45.4880660" lon="9.1574870">
        <ele>120.8000000</ele>
        <time>2009-12-27T13:40:15Z</time>
      </trkpt>
      <trkpt lat="45.4880600" lon="9.1573320">
        <ele>118.8000000</ele>
        <time>2009-12-27T13:40:17Z</time>
      </trkpt>
      <trkpt lat="45.4880870" lon="9.1570570">
        <ele>118.8000000</ele>
        <time>2009-12-27T13:40:21Z</time>
      </trkpt>
      <trkpt lat="45.4881790" lon="9.1568210">
        <ele>123.0000000</ele>
        <time>2009-12-27T13:40:24Z</time>
      </trkpt>
      <trkpt lat="45.4882080" lon="9.1567400">
        <ele>124.0000000</ele>
        <time>2009-12-27T13:40:25Z</time>
      </trkpt>
      <trkpt lat="45.4882640" lon="9.1565910">
        <ele>125.8000000</ele>
        <time>2009-12-27T13:40:27Z</time>
      </trkpt>
      <trkpt lat="45.4883020" lon="9.1564430">
        <ele>126.0000000</ele>
        <time>2009-12-27T13:40:29Z</time>
      </trkpt>
      <trkpt lat="45.4883080" lon="9.1562750">
        <ele>125.2000000</ele>
        <time>2009-12-27T13:40:31Z</time>
      </trkpt>
      <trkpt lat="45.4883180" lon="9.1560940">
        <ele>125.4000000</ele>
        <time>2009-12-27T13:40:33Z</time>
      </trkpt>
      <trkpt lat="45.4884200" lon="9.1557760">
        <ele>127.2000000</ele>
        <time>2009-12-27T13:40:37Z</time>
      </trkpt>
      <trkpt lat="45.4885810" lon="9.1552950">
        <ele>126.2000000</ele>
        <time>2009-12-27T13:40:43Z</time>
      </trkpt>
      <trkpt lat="45.4886130" lon="9.1552220">
        <ele>126.0000000</ele>
        <time>2009-12-27T13:40:44Z</time>
      </trkpt>
      <trkpt lat="45.4888130" lon="9.1548090">
        <ele>124.2000000</ele>
        <time>2009-12-27T13:40:50Z</time>
      </trkpt>
      <trkpt lat="45.4888800" lon="9.1546810">
        <ele>124.4000000</ele>
        <time>2009-12-27T13:40:52Z</time>
      </trkpt>
      <trkpt lat="45.4890510" lon="9.1543820">
        <ele>122.8000000</ele>
        <time>2009-12-27T13:40:57Z</time>
      </trkpt>
      <trkpt lat="45.4891220" lon="9.1542910">
        <ele>122.4000000</ele>
        <time>2009-12-27T13:40:59Z</time>
      </trkpt>
      <trkpt lat="45.4893080" lon="9.1540430">
        <ele>121.6000000</ele>
        <time>2009-12-27T13:41:04Z</time>
      </trkpt>
      <trkpt lat="45.4893240" lon="9.1539410">
        <ele>122.8000000</ele>
        <time>2009-12-27T13:41:05Z</time>
      </trkpt>
      <trkpt lat="45.4894000" lon="9.1536820">
        <ele>123.4000000</ele>
        <time>2009-12-27T13:41:08Z</time>
      </trkpt>
      <trkpt lat="45.4894860" lon="9.1534520">
        <ele>125.2000000</ele>
        <time>2009-12-27T13:41:11Z</time>
      </trkpt>
      <trkpt lat="45.4897190" lon="9.1529910">
        <ele>128.8000000</ele>
        <time>2009-12-27T13:41:18Z</time>
      </trkpt>
      <trkpt lat="45.4898140" lon="9.1527830">
        <ele>129.4000000</ele>
        <time>2009-12-27T13:41:21Z</time>
      </trkpt>
      <trkpt lat="45.4899150" lon="9.1526080">
        <ele>128.2000000</ele>
        <time>2009-12-27T13:41:24Z</time>
      </trkpt>
      <trkpt lat="45.4899430" lon="9.1525410">
        <ele>127.4000000</ele>
        <time>2009-12-27T13:41:25Z</time>
      </trkpt>
      <trkpt lat="45.4901330" lon="9.1520930">
        <ele>124.6000000</ele>
        <time>2009-12-27T13:41:32Z</time>
      </trkpt>
      <trkpt lat="45.4902420" lon="9.1518250">
        <ele>124.2000000</ele>
        <time>2009-12-27T13:41:36Z</time>
      </trkpt>
      <trkpt lat="45.4902810" lon="9.1515760">
        <ele>123.6000000</ele>
        <time>2009-12-27T13:41:38Z</time>
      </trkpt>
      <trkpt lat="45.4903280" lon="9.1514630">
        <ele>123.8000000</ele>
        <time>2009-12-27T13:41:40Z</time>
      </trkpt>
      <trkpt lat="45.4905130" lon="9.1510940">
        <ele>123.8000000</ele>
        <time>2009-12-27T13:41:46Z</time>
      </trkpt>
      <trkpt lat="45.4906420" lon="9.1508580">
        <ele>123.4000000</ele>
        <time>2009-12-27T13:41:50Z</time>
      </trkpt>
      <trkpt lat="45.4907330" lon="9.1506720">
        <ele>123.4000000</ele>
        <time>2009-12-27T13:41:53Z</time>
      </trkpt>
      <trkpt lat="45.4908210" lon="9.1504940">
        <ele>122.6000000</ele>
        <time>2009-12-27T13:41:56Z</time>
      </trkpt>
      <trkpt lat="45.4909060" lon="9.1503240">
        <ele>120.6000000</ele>
        <time>2009-12-27T13:41:59Z</time>
      </trkpt>
      <trkpt lat="45.4909660" lon="9.1501870">
        <ele>120.4000000</ele>
        <time>2009-12-27T13:42:01Z</time>
      </trkpt>
      <trkpt lat="45.4911880" lon="9.1497690">
        <ele>121.4000000</ele>
        <time>2009-12-27T13:42:08Z</time>
      </trkpt>
      <trkpt lat="45.4913870" lon="9.1492940">
        <ele>120.8000000</ele>
        <time>2009-12-27T13:42:15Z</time>
      </trkpt>
      <trkpt lat="45.4915360" lon="9.1490160">
        <ele>121.4000000</ele>
        <time>2009-12-27T13:42:20Z</time>
      </trkpt>
      <trkpt lat="45.4916160" lon="9.1488580">
        <ele>122.0000000</ele>
        <time>2009-12-27T13:42:23Z</time>
      </trkpt>
      <trkpt lat="45.4917170" lon="9.1486870">
        <ele>122.8000000</ele>
        <time>2009-12-27T13:42:27Z</time>
      </trkpt>
      <trkpt lat="45.4918610" lon="9.1484410">
        <ele>124.0000000</ele>
        <time>2009-12-27T13:42:34Z</time>
      </trkpt>
      <trkpt lat="45.4920740" lon="9.1479940">
        <ele>117.2000000</ele>
        <time>2009-12-27T13:42:45Z</time>
      </trkpt>
      <trkpt lat="45.4922050" lon="9.1476650">
        <ele>117.0000000</ele>
        <time>2009-12-27T13:42:49Z</time>
      </trkpt>
      <trkpt lat="45.4922490" lon="9.1475180">
        <ele>117.2000000</ele>
        <time>2009-12-27T13:42:51Z</time>
      </trkpt>
      <trkpt lat="45.4924320" lon="9.1470300">
        <ele>118.6000000</ele>
        <time>2009-12-27T13:42:59Z</time>
      </trkpt>
      <trkpt lat="45.4924410" lon="9.1469330">
        <ele>119.0000000</ele>
        <time>2009-12-27T13:43:00Z</time>
      </trkpt>
      <trkpt lat="45.4925630" lon="9.1465190">
        <ele>119.4000000</ele>
        <time>2009-12-27T13:43:07Z</time>
      </trkpt>
      <trkpt lat="45.4925780" lon="9.1464720">
        <ele>119.8000000</ele>
        <time>2009-12-27T13:43:08Z</time>
      </trkpt>
      <trkpt lat="45.4926090" lon="9.1463870">
        <ele>120.0000000</ele>
        <time>2009-12-27T13:43:10Z</time>
      </trkpt>
      <trkpt lat="45.4927690" lon="9.1460490">
        <ele>120.2000000</ele>
        <time>2009-12-27T13:43:16Z</time>
      </trkpt>
      <trkpt lat="45.4929780" lon="9.1455930">
        <ele>124.6000000</ele>
        <time>2009-12-27T13:43:23Z</time>
      </trkpt>
      <trkpt lat="45.4930100" lon="9.1455300">
        <ele>125.4000000</ele>
        <time>2009-12-27T13:43:24Z</time>
      </trkpt>
      <trkpt lat="45.4930760" lon="9.1454020">
        <ele>126.2000000</ele>
        <time>2009-12-27T13:43:26Z</time>
      </trkpt>
      <trkpt lat="45.4931980" lon="9.1451220">
        <ele>127.0000000</ele>
        <time>2009-12-27T13:43:30Z</time>
      </trkpt>
      <trkpt lat="45.4933920" lon="9.1447180">
        <ele>127.6000000</ele>
        <time>2009-12-27T13:43:36Z</time>
      </trkpt>
      <trkpt lat="45.4934160" lon="9.1446420">
        <ele>127.6000000</ele>
        <time>2009-12-27T13:43:37Z</time>
      </trkpt>
      <trkpt lat="45.4935520" lon="9.1443000">
        <ele>125.2000000</ele>
        <time>2009-12-27T13:43:42Z</time>
      </trkpt>
      <trkpt lat="45.4936120" lon="9.1441710">
        <ele>124.2000000</ele>
        <time>2009-12-27T13:43:44Z</time>
      </trkpt>
      <trkpt lat="45.4936420" lon="9.1441040">
        <ele>124.0000000</ele>
        <time>2009-12-27T13:43:45Z</time>
      </trkpt>
      <trkpt lat="45.4938220" lon="9.1437080">
        <ele>127.6000000</ele>
        <time>2009-12-27T13:43:50Z</time>
      </trkpt>
      <trkpt lat="45.4939010" lon="9.1435930">
        <ele>129.0000000</ele>
        <time>2009-12-27T13:43:52Z</time>
      </trkpt>
      <trkpt lat="45.4939750" lon="9.1433460">
        <ele>129.8000000</ele>
        <time>2009-12-27T13:43:55Z</time>
      </trkpt>
      <trkpt lat="45.4940290" lon="9.1432410">
        <ele>127.4000000</ele>
        <time>2009-12-27T13:43:57Z</time>
      </trkpt>
      <trkpt lat="45.4941170" lon="9.1430030">
        <ele>126.2000000</ele>
        <time>2009-12-27T13:44:00Z</time>
      </trkpt>
      <trkpt lat="45.4942140" lon="9.1427870">
        <ele>126.8000000</ele>
        <time>2009-12-27T13:44:03Z</time>
      </trkpt>
      <trkpt lat="45.4942720" lon="9.1426500">
        <ele>127.0000000</ele>
        <time>2009-12-27T13:44:05Z</time>
      </trkpt>
      <trkpt lat="45.4944470" lon="9.1423660">
        <ele>126.2000000</ele>
        <time>2009-12-27T13:44:10Z</time>
      </trkpt>
      <trkpt lat="45.4947200" lon="9.1419650">
        <ele>127.6000000</ele>
        <time>2009-12-27T13:44:17Z</time>
      </trkpt>
      <trkpt lat="45.4947890" lon="9.1418480">
        <ele>127.6000000</ele>
        <time>2009-12-27T13:44:19Z</time>
      </trkpt>
      <trkpt lat="45.4948950" lon="9.1414170">
        <ele>125.2000000</ele>
        <time>2009-12-27T13:44:24Z</time>
      </trkpt>
      <trkpt lat="45.4949310" lon="9.1413520">
        <ele>125.4000000</ele>
        <time>2009-12-27T13:44:25Z</time>
      </trkpt>
      <trkpt lat="45.4950800" lon="9.1409810">
        <ele>124.6000000</ele>
        <time>2009-12-27T13:44:30Z</time>
      </trkpt>
      <trkpt lat="45.4950870" lon="9.1408620">
        <ele>124.8000000</ele>
        <time>2009-12-27T13:44:31Z</time>
      </trkpt>
      <trkpt lat="45.4952280" lon="9.1405840">
        <ele>129.8000000</ele>
        <time>2009-12-27T13:44:35Z</time>
      </trkpt>
      <trkpt lat="45.4953030" lon="9.1404570">
        <ele>130.6000000</ele>
        <time>2009-12-27T13:44:37Z</time>
      </trkpt>
      <trkpt lat="45.4955770" lon="9.1400350">
        <ele>134.6000000</ele>
        <time>2009-12-27T13:44:44Z</time>
      </trkpt>
      <trkpt lat="45.4957600" lon="9.1394940">
        <ele>139.2000000</ele>
        <time>2009-12-27T13:44:51Z</time>
      </trkpt>
      <trkpt lat="45.4959450" lon="9.1390520">
        <ele>138.0000000</ele>
        <time>2009-12-27T13:44:57Z</time>
      </trkpt>
      <trkpt lat="45.4960420" lon="9.1388450">
        <ele>136.8000000</ele>
        <time>2009-12-27T13:45:00Z</time>
      </trkpt>
      <trkpt lat="45.4961850" lon="9.1386100">
        <ele>134.4000000</ele>
        <time>2009-12-27T13:45:04Z</time>
      </trkpt>
      <trkpt lat="45.4962860" lon="9.1384270">
        <ele>132.4000000</ele>
        <time>2009-12-27T13:45:07Z</time>
      </trkpt>
      <trkpt lat="45.4964320" lon="9.1381720">
        <ele>131.4000000</ele>
        <time>2009-12-27T13:45:11Z</time>
      </trkpt>
      <trkpt lat="45.4965440" lon="9.1379710">
        <ele>131.0000000</ele>
        <time>2009-12-27T13:45:14Z</time>
      </trkpt>
      <trkpt lat="45.4966220" lon="9.1376990">
        <ele>133.2000000</ele>
        <time>2009-12-27T13:45:17Z</time>
      </trkpt>
      <trkpt lat="45.4966560" lon="9.1374820">
        <ele>132.4000000</ele>
        <time>2009-12-27T13:45:19Z</time>
      </trkpt>
      <trkpt lat="45.4967700" lon="9.1372190">
        <ele>131.8000000</ele>
        <time>2009-12-27T13:45:22Z</time>
      </trkpt>
      <trkpt lat="45.4970010" lon="9.1367710">
        <ele>129.4000000</ele>
        <time>2009-12-27T13:45:29Z</time>
      </trkpt>
      <trkpt lat="45.4972160" lon="9.1362800">
        <ele>128.0000000</ele>
        <time>2009-12-27T13:45:36Z</time>
      </trkpt>
      <trkpt lat="45.4973890" lon="9.1358270">
        <ele>130.2000000</ele>
        <time>2009-12-27T13:45:42Z</time>
      </trkpt>
      <trkpt lat="45.4975790" lon="9.1353800">
        <ele>131.6000000</ele>
        <time>2009-12-27T13:45:48Z</time>
      </trkpt>
      <trkpt lat="45.4977960" lon="9.1349610">
        <ele>131.8000000</ele>
        <time>2009-12-27T13:45:54Z</time>
      </trkpt>
      <trkpt lat="45.4978390" lon="9.1348970">
        <ele>131.6000000</ele>
        <time>2009-12-27T13:45:55Z</time>
      </trkpt>
      <trkpt lat="45.4980180" lon="9.1345440">
        <ele>130.0000000</ele>
        <time>2009-12-27T13:46:00Z</time>
      </trkpt>
      <trkpt lat="45.4982850" lon="9.1341050">
        <ele>128.0000000</ele>
        <time>2009-12-27T13:46:07Z</time>
      </trkpt>
      <trkpt lat="45.4983620" lon="9.1335410">
        <ele>132.2000000</ele>
        <time>2009-12-27T13:46:13Z</time>
      </trkpt>
      <trkpt lat="45.4983750" lon="9.1334410">
        <ele>132.6000000</ele>
        <time>2009-12-27T13:46:25Z</time>
      </trkpt>
    </trkseg>
  </trk>

</gpx>
